Time,TemperatureF,DewpointF,PressureIn,WindDirection,WindDirectionDegrees,WindSpeedMPH,WindSpeedGustMPH,Humidity,HourlyPrecipIn,Conditions,Clouds,dailyrainin,SoftwareType,DateUTC
2013-08-18 00:00:00,59.9,58.5,30.21,SSE,150,0.0,0.0,95,0.00,,CLR,0.00,VWS V14.01,2013-08-18 04:00:00,
2013-08-18 00:01:00,59.9,58.5,30.21,SSE,150,0.0,0.0,95,0.00,,CLR,0.00,VWS V14.01,2013-08-18 04:01:00,
2013-08-18 00:02:00,59.8,58.4,30.21,SSE,150,0.0,0.0,95,0.00,,CLR,0.00,VWS V14.01,2013-08-18 04:02:00,
2013-08-18 00:03:00,59.9,58.5,30.21,SSE,150,0.0,0.0,95,0.00,,CLR,0.00,VWS V14.01,2013-08-18 04:03:00,
2013-08-18 00:04:00,59.9,58.5,30.21,SSE,150,0.0,0.0,95,0.00,,CLR,0.00,VWS V14.01,2013-08-18 04:04:00,
2013-08-18 00:05:00,59.9,58.5,30.21,SSE,150,0.0,0.0,95,0.00,,CLR,0.00,VWS V14.01,2013-08-18 04:05:00,
2013-08-18 00:06:00,59.9,58.5,30.21,SSE,150,0.0,0.0,95,0.00,,CLR,0.00,VWS V14.01,2013-08-18 04:06:00,
2013-08-18 00:07:00,59.9,58.5,30.21,SSE,150,0.0,0.0,95,0.00,,CLR,0.00,VWS V14.01,2013-08-18 04:07:00,
2013-08-18 00:08:00,60.0,58.6,30.21,SSE,150,0.0,0.0,95,0.00,,CLR,0.00,VWS V14.01,2013-08-18 04:08:00,
2013-08-18 00:09:00,60.0,58.6,30.21,SSE,150,0.0,0.0,95,0.00,,CLR,0.00,VWS V14.01,2013-08-18 04:09:00,
2013-08-18 00:10:00,60.0,58.6,30.21,SSE,150,0.0,0.0,95,0.00,,CLR,0.00,VWS V14.01,2013-08-18 04:10:00,
2013-08-18 00:11:00,60.1,58.7,30.21,SSE,150,0.0,0.0,95,0.00,,CLR,0.00,VWS V14.01,2013-08-18 04:11:00,
2013-08-18 00:12:00,60.1,58.7,30.21,SSE,150,0.0,0.0,95,0.00,,CLR,0.00,VWS V14.01,2013-08-18 04:12:00,
2013-08-18 00:13:00,60.1,58.7,30.21,SSE,150,0.0,0.0,95,0.00,,CLR,0.00,VWS V14.01,2013-08-18 04:13:00,
2013-08-18 00:14:00,60.1,58.7,30.21,SSE,150,0.0,0.0,95,0.00,,CLR,0.00,VWS V14.01,2013-08-18 04:14:00,
2013-08-18 00:15:00,60.1,58.0,30.21,SSE,150,0.0,0.0,94,0.00,,,0.00,weatherlink.com 1.10,2013-08-18 04:15:00,
2013-08-18 00:16:00,60.1,58.7,30.20,SSE,150,0.0,0.0,95,0.00,,CLR,0.00,VWS V14.01,2013-08-18 04:16:00,
2013-08-18 00:17:00,60.1,58.7,30.20,SSE,150,0.0,0.0,95,0.00,,CLR,0.00,VWS V14.01,2013-08-18 04:17:00,
2013-08-18 00:18:00,60.1,58.7,30.20,SSE,150,0.0,0.0,95,0.00,,CLR,0.00,VWS V14.01,2013-08-18 04:18:00,
2013-08-18 00:19:00,60.2,58.8,30.20,SSE,150,0.0,0.0,95,0.00,,CLR,0.00,VWS V14.01,2013-08-18 04:19:00,
2013-08-18 00:20:00,60.2,58.8,30.20,SSE,150,0.0,0.0,95,0.00,,CLR,0.00,VWS V14.01,2013-08-18 04:20:00,
2013-08-18 00:21:00,60.2,58.8,30.20,SSE,150,0.0,0.0,95,0.00,,CLR,0.00,VWS V14.01,2013-08-18 04:21:00,
2013-08-18 00:22:00,60.2,58.8,30.20,SSE,150,0.0,0.0,95,0.00,,CLR,0.00,VWS V14.01,2013-08-18 04:22:00,
2013-08-18 00:23:00,60.2,58.8,30.20,SSE,150,0.0,0.0,95,0.00,,CLR,0.00,VWS V14.01,2013-08-18 04:23:00,
2013-08-18 00:24:00,60.2,58.8,30.20,SSE,150,0.0,0.0,95,0.00,,CLR,0.00,VWS V14.01,2013-08-18 04:24:00,
2013-08-18 00:25:00,60.3,58.9,30.20,SSE,151,0.0,0.0,95,0.00,,CLR,0.00,VWS V14.01,2013-08-18 04:25:00,
2013-08-18 00:26:00,60.3,58.9,30.20,SSE,150,0.0,0.0,95,0.00,,CLR,0.00,VWS V14.01,2013-08-18 04:26:00,
2013-08-18 00:27:00,60.3,58.9,30.20,SSE,150,0.0,0.0,95,0.00,,CLR,0.00,VWS V14.01,2013-08-18 04:27:00,
2013-08-18 00:28:00,60.3,58.9,30.20,SSE,150,0.0,0.0,95,0.00,,CLR,0.00,VWS V14.01,2013-08-18 04:28:00,
2013-08-18 00:29:00,60.3,58.9,30.20,SSE,150,0.0,0.0,95,0.00,,CLR,0.00,VWS V14.01,2013-08-18 04:29:00,
2013-08-18 00:30:00,60.3,58.9,30.20,SSE,150,0.0,0.0,95,0.00,,CLR,0.00,VWS V14.01,2013-08-18 04:30:00,
2013-08-18 00:31:00,59.9,59.0,30.21,SSE,150,0.0,0.0,95,0.00,,,0.00,weatherlink.com 1.10,2013-08-18 04:31:00,
2013-08-18 00:32:00,60.3,58.9,30.20,SSE,150,0.0,0.0,95,0.00,,CLR,0.00,VWS V14.01,2013-08-18 04:32:00,
2013-08-18 00:33:00,60.2,58.8,30.20,SSE,150,0.0,0.0,95,0.00,,CLR,0.00,VWS V14.01,2013-08-18 04:33:00,
2013-08-18 00:34:00,60.2,58.8,30.20,SSE,150,0.0,0.0,95,0.00,,CLR,0.00,VWS V14.01,2013-08-18 04:34:00,
2013-08-18 00:35:00,60.2,58.8,30.20,SSE,150,0.0,0.0,95,0.00,,CLR,0.00,VWS V14.01,2013-08-18 04:35:00,
2013-08-18 00:36:00,60.2,58.8,30.20,SSE,150,0.0,0.0,95,0.00,,CLR,0.00,VWS V14.01,2013-08-18 04:36:00,
2013-08-18 00:37:00,60.1,58.7,30.20,SSE,150,0.0,0.0,95,0.00,,CLR,0.00,VWS V14.01,2013-08-18 04:37:00,
2013-08-18 00:38:00,60.1,58.7,30.20,SSE,150,0.0,0.0,95,0.00,,CLR,0.00,VWS V14.01,2013-08-18 04:38:00,
2013-08-18 00:39:00,60.1,58.7,30.20,SSE,150,0.0,0.0,95,0.00,,CLR,0.00,VWS V14.01,2013-08-18 04:39:00,
2013-08-18 00:40:00,60.0,58.6,30.20,SSE,150,0.0,0.0,95,0.00,,CLR,0.00,VWS V14.01,2013-08-18 04:40:00,
2013-08-18 00:41:00,60.0,58.6,30.20,SSE,150,0.0,0.0,95,0.00,,CLR,0.00,VWS V14.01,2013-08-18 04:41:00,
2013-08-18 00:42:00,59.9,58.5,30.20,SSE,150,0.0,0.0,95,0.00,,CLR,0.00,VWS V14.01,2013-08-18 04:42:00,
2013-08-18 00:43:00,59.9,58.5,30.20,SSE,150,0.0,0.0,95,0.00,,CLR,0.00,VWS V14.01,2013-08-18 04:43:00,
2013-08-18 00:44:00,59.9,58.5,30.20,SSE,150,0.0,0.0,95,0.00,,CLR,0.00,VWS V14.01,2013-08-18 04:44:00,
2013-08-18 00:45:00,59.8,58.4,30.20,SSE,150,0.0,0.0,95,0.00,,CLR,0.00,VWS V14.01,2013-08-18 04:45:00,
2013-08-18 00:46:00,59.7,58.3,30.20,SSE,150,0.0,0.0,95,0.00,,CLR,0.00,VWS V14.01,2013-08-18 04:46:00,
2013-08-18 00:47:00,59.7,58.3,30.20,SSE,150,0.0,0.0,95,0.00,,CLR,0.00,VWS V14.01,2013-08-18 04:47:00,
2013-08-18 00:48:00,60.2,59.0,30.20,SSE,150,0.0,0.0,95,0.00,,,0.00,weatherlink.com 1.10,2013-08-18 04:48:00,
2013-08-18 00:49:00,59.6,58.2,30.20,SSE,150,0.0,0.0,95,0.00,,CLR,0.00,VWS V14.01,2013-08-18 04:49:00,
2013-08-18 00:50:00,59.6,58.2,30.20,SSE,151,0.0,0.0,95,0.00,,CLR,0.00,VWS V14.01,2013-08-18 04:50:00,
2013-08-18 00:51:00,59.5,58.1,30.20,SSE,150,0.0,0.0,95,0.00,,CLR,0.00,VWS V14.01,2013-08-18 04:51:00,
2013-08-18 00:52:00,59.5,58.1,30.20,SSE,150,0.0,0.0,95,0.00,,CLR,0.00,VWS V14.01,2013-08-18 04:52:00,
2013-08-18 00:53:00,59.5,58.4,30.20,SSE,150,0.0,0.0,96,0.00,,CLR,0.00,VWS V14.01,2013-08-18 04:53:00,
2013-08-18 00:54:00,59.5,58.4,30.20,SSE,150,0.0,0.0,96,0.00,,CLR,0.00,VWS V14.01,2013-08-18 04:54:00,
2013-08-18 00:55:00,59.5,58.4,30.20,SSE,150,0.0,0.0,96,0.00,,CLR,0.00,VWS V14.01,2013-08-18 04:55:00,
2013-08-18 00:56:00,59.5,58.4,30.20,SSE,150,0.0,0.0,96,0.00,,CLR,0.00,VWS V14.01,2013-08-18 04:56:00,
2013-08-18 00:57:00,59.4,58.3,30.20,SSE,150,0.0,0.0,96,0.00,,CLR,0.00,VWS V14.01,2013-08-18 04:57:00,
2013-08-18 00:58:00,59.5,58.4,30.20,SSE,150,0.0,0.0,96,0.00,,CLR,0.00,VWS V14.01,2013-08-18 04:58:00,
2013-08-18 00:59:00,59.5,58.4,30.20,SSE,150,0.0,0.0,96,0.00,,CLR,0.00,VWS V14.01,2013-08-18 04:59:00,
2013-08-18 01:00:00,59.4,58.3,30.20,SSE,150,0.0,0.0,96,0.00,,CLR,0.00,VWS V14.01,2013-08-18 05:00:00,
2013-08-18 01:01:00,59.5,58.4,30.20,SSE,150,0.0,0.0,96,0.00,,CLR,0.00,VWS V14.01,2013-08-18 05:01:00,
2013-08-18 01:02:00,59.4,58.3,30.20,SSE,150,0.0,0.0,96,0.00,,CLR,0.00,VWS V14.01,2013-08-18 05:02:00,
2013-08-18 01:03:00,60.1,59.0,30.20,SSE,150,0.0,0.0,95,0.00,,,0.00,weatherlink.com 1.10,2013-08-18 05:03:00,
2013-08-18 01:04:00,59.4,58.3,30.20,SSE,150,0.0,0.0,96,0.00,,CLR,0.00,VWS V14.01,2013-08-18 05:04:00,
2013-08-18 01:05:00,59.3,58.2,30.20,SSE,151,0.0,0.0,96,0.00,,CLR,0.00,VWS V14.01,2013-08-18 05:05:00,
2013-08-18 01:06:00,59.3,58.2,30.20,SSE,150,0.0,0.0,96,0.00,,CLR,0.00,VWS V14.01,2013-08-18 05:06:00,
2013-08-18 01:07:00,59.3,58.2,30.20,SSE,150,0.0,0.0,96,0.00,,CLR,0.00,VWS V14.01,2013-08-18 05:07:00,
2013-08-18 01:08:00,59.3,58.2,30.20,SSE,150,0.0,0.0,96,0.00,,CLR,0.00,VWS V14.01,2013-08-18 05:08:00,
2013-08-18 01:09:00,59.3,58.2,30.20,SSE,150,0.0,0.0,96,0.00,,CLR,0.00,VWS V14.01,2013-08-18 05:09:00,
2013-08-18 01:10:00,59.3,58.5,30.20,SSE,150,0.0,0.0,97,0.00,,CLR,0.00,VWS V14.01,2013-08-18 05:10:00,
2013-08-18 01:11:00,59.3,58.5,30.20,SSE,150,0.0,0.0,97,0.00,,CLR,0.00,VWS V14.01,2013-08-18 05:11:00,
2013-08-18 01:12:00,59.3,58.5,30.20,SSE,150,0.0,0.0,97,0.00,,CLR,0.00,VWS V14.01,2013-08-18 05:12:00,
2013-08-18 01:13:00,59.3,58.5,30.20,SSE,150,0.0,0.0,97,0.00,,CLR,0.00,VWS V14.01,2013-08-18 05:13:00,
2013-08-18 01:14:00,59.3,58.5,30.20,SSE,150,0.0,0.0,97,0.00,,CLR,0.00,VWS V14.01,2013-08-18 05:14:00,
2013-08-18 01:15:00,59.4,58.5,30.20,SSE,150,0.0,0.0,97,0.00,,CLR,0.00,VWS V14.01,2013-08-18 05:15:00,
2013-08-18 01:16:00,59.4,58.5,30.20,SSE,150,0.0,0.0,97,0.00,,CLR,0.00,VWS V14.01,2013-08-18 05:16:00,
2013-08-18 01:17:00,59.4,58.5,30.20,SSE,150,0.0,0.0,97,0.00,,CLR,0.00,VWS V14.01,2013-08-18 05:17:00,
2013-08-18 01:18:00,59.4,58.5,30.20,SSE,150,0.0,0.0,97,0.00,,CLR,0.00,VWS V14.01,2013-08-18 05:18:00,
2013-08-18 01:19:00,59.4,58.5,30.20,SSE,150,0.0,0.0,97,0.00,,CLR,0.00,VWS V14.01,2013-08-18 05:19:00,
2013-08-18 01:20:00,59.5,58.0,30.20,SSE,150,0.0,0.0,96,0.00,,,0.00,weatherlink.com 1.10,2013-08-18 05:20:00,
2013-08-18 01:21:00,59.5,58.7,30.20,SSE,150,0.0,0.0,97,0.00,,CLR,0.00,VWS V14.01,2013-08-18 05:21:00,
2013-08-18 01:22:00,59.5,58.7,30.19,SSE,150,0.0,0.0,97,0.00,,CLR,0.00,VWS V14.01,2013-08-18 05:22:00,
2013-08-18 01:23:00,59.4,58.5,30.19,SSE,150,0.0,0.0,97,0.00,,CLR,0.00,VWS V14.01,2013-08-18 05:23:00,
2013-08-18 01:24:00,59.5,58.7,30.19,SSE,150,0.0,0.0,97,0.00,,CLR,0.00,VWS V14.01,2013-08-18 05:24:00,
2013-08-18 01:25:00,59.4,58.5,30.19,SSE,150,0.0,0.0,97,0.00,,CLR,0.00,VWS V14.01,2013-08-18 05:25:00,
2013-08-18 01:26:00,59.4,58.5,30.19,SSE,150,0.0,0.0,97,0.00,,CLR,0.00,VWS V14.01,2013-08-18 05:26:00,
2013-08-18 01:27:00,59.4,58.5,30.19,SSE,150,0.0,0.0,97,0.00,,CLR,0.00,VWS V14.01,2013-08-18 05:27:00,
2013-08-18 01:28:00,59.4,58.5,30.19,SSE,150,0.0,0.0,97,0.00,,CLR,0.00,VWS V14.01,2013-08-18 05:28:00,
2013-08-18 01:29:00,59.4,58.5,30.20,SSE,150,0.0,0.0,97,0.00,,CLR,0.00,VWS V14.01,2013-08-18 05:29:00,
2013-08-18 01:30:00,59.4,58.5,30.19,SSE,150,0.0,0.0,97,0.00,,CLR,0.00,VWS V14.01,2013-08-18 05:30:00,
2013-08-18 01:31:00,59.3,58.5,30.19,SSE,150,0.0,0.0,97,0.00,,CLR,0.00,VWS V14.01,2013-08-18 05:31:00,
2013-08-18 01:32:00,59.2,58.3,30.19,SSE,150,0.0,0.0,97,0.00,,CLR,0.00,VWS V14.01,2013-08-18 05:32:00,
2013-08-18 01:33:00,59.2,58.3,30.19,SSE,150,0.0,0.0,97,0.00,,CLR,0.00,VWS V14.01,2013-08-18 05:33:00,
2013-08-18 01:34:00,59.1,58.2,30.19,SSE,150,0.0,0.0,97,0.00,,CLR,0.00,VWS V14.01,2013-08-18 05:34:00,
2013-08-18 01:35:00,59.1,58.2,30.19,SSE,150,0.0,0.0,97,0.00,,CLR,0.00,VWS V14.01,2013-08-18 05:35:00,
2013-08-18 01:36:00,59.0,58.2,30.19,SSE,150,0.0,0.0,97,0.00,,CLR,0.00,VWS V14.01,2013-08-18 05:36:00,
2013-08-18 01:37:00,59.3,59.0,30.20,SSE,151,0.0,0.0,97,0.00,,,0.00,weatherlink.com 1.10,2013-08-18 05:37:00,
2013-08-18 01:38:00,58.9,58.0,30.19,SSE,150,0.0,0.0,97,0.00,,CLR,0.00,VWS V14.01,2013-08-18 05:38:00,
2013-08-18 01:39:00,58.9,58.0,30.19,SSE,150,0.0,0.0,97,0.00,,CLR,0.00,VWS V14.01,2013-08-18 05:39:00,
2013-08-18 01:40:00,58.8,58.0,30.19,SSE,150,0.0,0.0,97,0.00,,CLR,0.00,VWS V14.01,2013-08-18 05:40:00,
2013-08-18 01:41:00,58.8,58.0,30.20,SSE,150,0.0,0.0,97,0.00,,CLR,0.00,VWS V14.01,2013-08-18 05:41:00,
2013-08-18 01:42:00,58.8,58.0,30.20,SSE,150,0.0,0.0,97,0.00,,CLR,0.00,VWS V14.01,2013-08-18 05:42:00,
2013-08-18 01:43:00,58.8,58.0,30.19,SSE,150,0.0,0.0,97,0.00,,CLR,0.00,VWS V14.01,2013-08-18 05:43:00,
2013-08-18 01:44:00,58.8,58.0,30.20,SSE,150,0.0,0.0,97,0.00,,CLR,0.00,VWS V14.01,2013-08-18 05:44:00,
2013-08-18 01:45:00,58.8,58.0,30.20,SSE,150,0.0,0.0,97,0.00,,CLR,0.00,VWS V14.01,2013-08-18 05:45:00,
2013-08-18 01:46:00,58.8,58.0,30.20,SSE,150,0.0,0.0,97,0.00,,CLR,0.00,VWS V14.01,2013-08-18 05:46:00,
2013-08-18 01:47:00,58.7,57.8,30.19,SSE,150,0.0,0.0,97,0.00,,CLR,0.00,VWS V14.01,2013-08-18 05:47:00,
2013-08-18 01:48:00,58.7,57.8,30.19,SSE,150,0.0,0.0,97,0.00,,CLR,0.00,VWS V14.01,2013-08-18 05:48:00,
2013-08-18 01:49:00,58.6,57.8,30.20,SSE,150,0.0,0.0,97,0.00,,CLR,0.00,VWS V14.01,2013-08-18 05:49:00,
2013-08-18 01:50:00,58.6,57.8,30.20,SSE,150,0.0,0.0,97,0.00,,CLR,0.00,VWS V14.01,2013-08-18 05:50:00,
2013-08-18 01:51:00,58.6,57.8,30.20,SSE,150,0.0,0.0,97,0.00,,CLR,0.00,VWS V14.01,2013-08-18 05:51:00,
2013-08-18 01:52:00,58.5,57.7,30.20,SSE,150,0.0,0.0,97,0.00,,CLR,0.00,VWS V14.01,2013-08-18 05:52:00,
2013-08-18 01:53:00,59.4,59.0,30.20,SSE,150,0.0,0.0,97,0.00,,,0.00,weatherlink.com 1.10,2013-08-18 05:53:00,
2013-08-18 01:54:00,58.5,57.7,30.20,SSE,150,0.0,0.0,97,0.00,,CLR,0.00,VWS V14.01,2013-08-18 05:54:00,
2013-08-18 01:55:00,58.5,57.7,30.20,SSE,150,0.0,0.0,97,0.00,,CLR,0.00,VWS V14.01,2013-08-18 05:55:00,
2013-08-18 01:56:00,58.4,57.6,30.20,SSE,150,0.0,0.0,97,0.00,,CLR,0.00,VWS V14.01,2013-08-18 05:56:00,
2013-08-18 01:57:00,58.4,57.6,30.19,SSE,150,0.0,0.0,97,0.00,,CLR,0.00,VWS V14.01,2013-08-18 05:57:00,
2013-08-18 01:58:00,58.4,57.6,30.19,SSE,150,0.0,0.0,97,0.00,,CLR,0.00,VWS V14.01,2013-08-18 05:58:00,
2013-08-18 01:59:00,58.4,57.6,30.19,SSE,151,0.0,0.0,97,0.00,,CLR,0.00,VWS V14.01,2013-08-18 05:59:00,
2013-08-18 02:00:00,58.4,57.6,30.20,SSE,150,0.0,0.0,97,0.00,,CLR,0.00,VWS V14.01,2013-08-18 06:00:00,
2013-08-18 02:01:00,58.4,57.6,30.19,SSE,150,0.0,0.0,97,0.00,,CLR,0.00,VWS V14.01,2013-08-18 06:01:00,
2013-08-18 02:02:00,58.4,57.6,30.20,SSE,150,0.0,0.0,97,0.00,,CLR,0.00,VWS V14.01,2013-08-18 06:02:00,
2013-08-18 02:03:00,58.4,57.6,30.20,SSE,150,0.0,0.0,97,0.00,,CLR,0.00,VWS V14.01,2013-08-18 06:03:00,
2013-08-18 02:04:00,58.4,57.8,30.20,SSE,150,0.0,0.0,98,0.00,,CLR,0.00,VWS V14.01,2013-08-18 06:04:00,
2013-08-18 02:05:00,58.4,57.8,30.20,SSE,150,0.0,0.0,98,0.00,,CLR,0.00,VWS V14.01,2013-08-18 06:05:00,
2013-08-18 02:06:00,58.4,57.8,30.20,SSE,150,0.0,0.0,98,0.00,,CLR,0.00,VWS V14.01,2013-08-18 06:06:00,
2013-08-18 02:07:00,58.4,57.8,30.19,SSE,150,0.0,0.0,98,0.00,,CLR,0.00,VWS V14.01,2013-08-18 06:07:00,
2013-08-18 02:08:00,58.4,57.8,30.19,SSE,150,0.0,0.0,98,0.00,,CLR,0.00,VWS V14.01,2013-08-18 06:08:00,
2013-08-18 02:09:00,58.8,58.0,30.20,SSE,150,0.0,0.0,97,0.00,,,0.00,weatherlink.com 1.10,2013-08-18 06:09:00,
2013-08-18 02:10:00,58.5,57.9,30.20,SSE,150,0.0,0.0,98,0.00,,CLR,0.00,VWS V14.01,2013-08-18 06:10:00,
2013-08-18 02:11:00,58.5,57.9,30.20,SSE,150,0.0,0.0,98,0.00,,CLR,0.00,VWS V14.01,2013-08-18 06:11:00,
2013-08-18 02:12:00,58.5,57.9,30.20,SSE,150,0.0,0.0,98,0.00,,CLR,0.00,VWS V14.01,2013-08-18 06:12:00,
2013-08-18 02:13:00,58.5,57.9,30.20,SSE,150,0.0,0.0,98,0.00,,CLR,0.00,VWS V14.01,2013-08-18 06:13:00,
2013-08-18 02:14:00,58.5,57.9,30.20,SSE,150,0.0,0.0,98,0.00,,CLR,0.00,VWS V14.01,2013-08-18 06:14:00,
2013-08-18 02:15:00,58.5,57.9,30.20,SSE,150,0.0,0.0,98,0.00,,CLR,0.00,VWS V14.01,2013-08-18 06:15:00,
2013-08-18 02:16:00,58.6,58.0,30.20,SSE,150,0.0,0.0,98,0.00,,CLR,0.00,VWS V14.01,2013-08-18 06:16:00,
2013-08-18 02:17:00,58.6,58.0,30.20,SSE,150,0.0,0.0,98,0.00,,CLR,0.00,VWS V14.01,2013-08-18 06:17:00,
2013-08-18 02:18:00,58.6,58.0,30.20,SSE,150,0.0,0.0,98,0.00,,CLR,0.00,VWS V14.01,2013-08-18 06:18:00,
2013-08-18 02:19:00,58.6,58.0,30.20,SSE,150,0.0,0.0,98,0.00,,CLR,0.00,VWS V14.01,2013-08-18 06:19:00,
2013-08-18 02:20:00,58.5,57.9,30.20,SSE,150,0.0,0.0,98,0.00,,CLR,0.00,VWS V14.01,2013-08-18 06:20:00,
2013-08-18 02:21:00,58.5,57.9,30.20,SSE,150,0.0,0.0,98,0.00,,CLR,0.00,VWS V14.01,2013-08-18 06:21:00,
2013-08-18 02:22:00,58.5,57.9,30.20,SSE,150,0.0,0.0,98,0.00,,CLR,0.00,VWS V14.01,2013-08-18 06:22:00,
2013-08-18 02:23:00,58.5,57.9,30.20,SSE,150,0.0,0.0,98,0.00,,CLR,0.00,VWS V14.01,2013-08-18 06:23:00,
2013-08-18 02:24:00,58.4,57.8,30.20,SSE,150,0.0,0.0,98,0.00,,CLR,0.00,VWS V14.01,2013-08-18 06:24:00,
2013-08-18 02:25:00,58.4,57.8,30.20,SSE,150,0.0,0.0,98,0.00,,CLR,0.00,VWS V14.01,2013-08-18 06:25:00,
2013-08-18 02:26:00,58.4,58.0,30.20,SSE,150,0.0,0.0,97,0.00,,,0.00,weatherlink.com 1.10,2013-08-18 06:26:00,
2013-08-18 02:27:00,58.3,57.7,30.20,SSE,150,0.0,0.0,98,0.00,,CLR,0.00,VWS V14.01,2013-08-18 06:27:00,
2013-08-18 02:28:00,58.2,57.4,30.20,SSE,150,0.0,0.0,97,0.00,,CLR,0.00,VWS V14.01,2013-08-18 06:28:00,
2013-08-18 02:29:00,58.1,57.3,30.20,SSE,150,0.0,0.0,97,0.00,,CLR,0.00,VWS V14.01,2013-08-18 06:29:00,
2013-08-18 02:30:00,58.1,57.3,30.20,SSE,150,0.0,0.0,97,0.00,,CLR,0.00,VWS V14.01,2013-08-18 06:30:00,
2013-08-18 02:31:00,58.0,57.2,30.20,SSE,150,0.0,0.0,97,0.00,,CLR,0.00,VWS V14.01,2013-08-18 06:31:00,
2013-08-18 02:32:00,58.0,57.2,30.20,SSE,150,0.0,0.0,97,0.00,,CLR,0.00,VWS V14.01,2013-08-18 06:32:00,
2013-08-18 02:33:00,57.9,57.3,30.20,SSE,150,0.0,0.0,98,0.00,,CLR,0.00,VWS V14.01,2013-08-18 06:33:00,
2013-08-18 02:34:00,57.9,57.1,30.20,SSE,150,0.0,0.0,97,0.00,,CLR,0.00,VWS V14.01,2013-08-18 06:34:00,
2013-08-18 02:35:00,57.9,57.1,30.20,SSE,150,0.0,0.0,97,0.00,,CLR,0.00,VWS V14.01,2013-08-18 06:35:00,
2013-08-18 02:36:00,57.8,57.0,30.20,SSE,150,0.0,0.0,97,0.00,,CLR,0.00,VWS V14.01,2013-08-18 06:36:00,
2013-08-18 02:37:00,57.7,56.9,30.20,SSE,150,0.0,0.0,97,0.00,,CLR,0.00,VWS V14.01,2013-08-18 06:37:00,
2013-08-18 02:38:00,57.7,56.9,30.20,SSE,150,0.0,0.0,97,0.00,,CLR,0.00,VWS V14.01,2013-08-18 06:38:00,
2013-08-18 02:39:00,57.7,57.1,30.20,SSE,150,0.0,0.0,98,0.00,,CLR,0.00,VWS V14.01,2013-08-18 06:39:00,
2013-08-18 02:40:00,57.7,57.1,30.20,SSE,150,0.0,0.0,98,0.00,,CLR,0.00,VWS V14.01,2013-08-18 06:40:00,
2013-08-18 02:41:00,57.7,57.1,30.20,SSE,150,0.0,0.0,98,0.00,,CLR,0.00,VWS V14.01,2013-08-18 06:41:00,
2013-08-18 02:42:00,58.6,58.0,30.20,SSE,150,0.0,0.0,98,0.00,,,0.00,weatherlink.com 1.10,2013-08-18 06:42:00,
2013-08-18 02:43:00,57.8,57.2,30.20,SSE,150,0.0,0.0,98,0.00,,CLR,0.00,VWS V14.01,2013-08-18 06:43:00,
2013-08-18 02:44:00,57.8,57.2,30.20,SSE,150,0.0,0.0,98,0.00,,CLR,0.00,VWS V14.01,2013-08-18 06:44:00,
2013-08-18 02:45:00,57.8,57.2,30.20,SSE,150,0.0,0.0,98,0.00,,CLR,0.00,VWS V14.01,2013-08-18 06:45:00,
2013-08-18 02:46:00,57.9,57.3,30.20,SSE,151,0.0,0.0,98,0.00,,CLR,0.00,VWS V14.01,2013-08-18 06:46:00,
2013-08-18 02:47:00,57.9,57.3,30.20,SSE,150,0.0,0.0,98,0.00,,CLR,0.00,VWS V14.01,2013-08-18 06:47:00,
2013-08-18 02:48:00,57.9,57.3,30.20,SSE,150,0.0,0.0,98,0.00,,CLR,0.00,VWS V14.01,2013-08-18 06:48:00,
2013-08-18 02:49:00,57.9,57.3,30.20,SSE,150,0.0,0.0,98,0.00,,CLR,0.00,VWS V14.01,2013-08-18 06:49:00,
2013-08-18 02:50:00,58.0,57.4,30.20,SSE,150,0.0,0.0,98,0.00,,CLR,0.00,VWS V14.01,2013-08-18 06:50:00,
2013-08-18 02:51:00,58.0,57.4,30.20,SSE,150,0.0,0.0,98,0.00,,CLR,0.00,VWS V14.01,2013-08-18 06:51:00,
2013-08-18 02:52:00,58.0,57.4,30.20,SSE,150,0.0,0.0,98,0.00,,CLR,0.00,VWS V14.01,2013-08-18 06:52:00,
2013-08-18 02:53:00,58.0,57.4,30.20,SSE,151,0.0,0.0,98,0.00,,CLR,0.00,VWS V14.01,2013-08-18 06:53:00,
2013-08-18 02:54:00,58.0,57.4,30.20,SSE,150,0.0,0.0,98,0.00,,CLR,0.00,VWS V14.01,2013-08-18 06:54:00,
2013-08-18 02:55:00,58.0,57.4,30.20,SSE,150,0.0,0.0,98,0.00,,CLR,0.00,VWS V14.01,2013-08-18 06:55:00,
2013-08-18 02:56:00,58.1,57.5,30.20,SSE,150,0.0,0.0,98,0.00,,CLR,0.00,VWS V14.01,2013-08-18 06:56:00,
2013-08-18 02:57:00,58.1,57.5,30.20,SSE,150,0.0,0.0,98,0.00,,CLR,0.00,VWS V14.01,2013-08-18 06:57:00,
2013-08-18 02:58:00,58.1,57.5,30.20,SSE,150,0.0,0.0,98,0.00,,CLR,0.00,VWS V14.01,2013-08-18 06:58:00,
2013-08-18 02:59:00,57.9,57.0,30.20,SSE,150,0.0,0.0,98,0.00,,,0.00,weatherlink.com 1.10,2013-08-18 06:59:00,
2013-08-18 03:00:00,58.1,57.5,30.20,SSE,150,0.0,0.0,98,0.00,,CLR,0.00,VWS V14.01,2013-08-18 07:00:00,
2013-08-18 03:01:00,58.0,57.4,30.20,SSE,150,0.0,0.0,98,0.00,,CLR,0.00,VWS V14.01,2013-08-18 07:01:00,
2013-08-18 03:02:00,58.0,57.4,30.20,SSE,150,0.0,0.0,98,0.00,,CLR,0.00,VWS V14.01,2013-08-18 07:02:00,
2013-08-18 03:03:00,58.0,57.4,30.20,SSE,151,0.0,0.0,98,0.00,,CLR,0.00,VWS V14.01,2013-08-18 07:03:00,
2013-08-18 03:04:00,58.0,57.4,30.20,SSE,150,0.0,0.0,98,0.00,,CLR,0.00,VWS V14.01,2013-08-18 07:04:00,
2013-08-18 03:05:00,57.9,57.3,30.20,SSE,150,0.0,0.0,98,0.00,,CLR,0.00,VWS V14.01,2013-08-18 07:05:00,
2013-08-18 03:06:00,57.9,57.3,30.20,SSE,150,0.0,0.0,98,0.00,,CLR,0.00,VWS V14.01,2013-08-18 07:06:00,
2013-08-18 03:07:00,57.9,57.3,30.20,SSE,150,0.0,0.0,98,0.00,,CLR,0.00,VWS V14.01,2013-08-18 07:07:00,
2013-08-18 03:08:00,57.8,57.2,30.20,SSE,150,0.0,0.0,98,0.00,,CLR,0.00,VWS V14.01,2013-08-18 07:08:00,
2013-08-18 03:09:00,57.8,57.2,30.20,SSE,150,0.0,0.0,98,0.00,,CLR,0.00,VWS V14.01,2013-08-18 07:09:00,
2013-08-18 03:10:00,57.8,57.2,30.20,SSE,150,0.0,0.0,98,0.00,,CLR,0.00,VWS V14.01,2013-08-18 07:10:00,
2013-08-18 03:11:00,57.8,57.2,30.20,SSE,150,0.0,0.0,98,0.00,,CLR,0.00,VWS V14.01,2013-08-18 07:11:00,
2013-08-18 03:12:00,57.7,57.1,30.20,SSE,150,0.0,0.0,98,0.00,,CLR,0.00,VWS V14.01,2013-08-18 07:12:00,
2013-08-18 03:13:00,57.7,57.1,30.20,SSE,150,0.0,0.0,98,0.00,,CLR,0.00,VWS V14.01,2013-08-18 07:13:00,
2013-08-18 03:14:00,57.7,57.1,30.20,SSE,150,0.0,0.0,98,0.00,,CLR,0.00,VWS V14.01,2013-08-18 07:14:00,
2013-08-18 03:15:00,57.9,57.0,30.20,SSE,150,0.0,0.0,98,0.00,,,0.00,weatherlink.com 1.10,2013-08-18 07:15:00,
2013-08-18 03:16:00,57.7,57.1,30.20,SSE,151,0.0,0.0,98,0.00,,CLR,0.00,VWS V14.01,2013-08-18 07:16:00,
2013-08-18 03:17:00,57.7,57.1,30.20,SSE,150,0.0,0.0,98,0.00,,CLR,0.00,VWS V14.01,2013-08-18 07:17:00,
2013-08-18 03:18:00,57.6,57.0,30.20,SSE,150,0.0,0.0,98,0.00,,CLR,0.00,VWS V14.01,2013-08-18 07:18:00,
2013-08-18 03:19:00,57.6,57.0,30.20,SSE,150,0.0,0.0,98,0.00,,CLR,0.00,VWS V14.01,2013-08-18 07:19:00,
2013-08-18 03:20:00,57.6,57.0,30.20,SSE,150,0.0,0.0,98,0.00,,CLR,0.00,VWS V14.01,2013-08-18 07:20:00,
2013-08-18 03:21:00,57.6,57.0,30.20,SSE,150,0.0,0.0,98,0.00,,CLR,0.00,VWS V14.01,2013-08-18 07:21:00,
2013-08-18 03:22:00,57.6,57.0,30.20,SSE,150,0.0,0.0,98,0.00,,CLR,0.00,VWS V14.01,2013-08-18 07:22:00,
2013-08-18 03:23:00,57.6,57.0,30.20,SSE,150,0.0,0.0,98,0.00,,CLR,0.00,VWS V14.01,2013-08-18 07:23:00,
2013-08-18 03:24:00,57.6,57.0,30.21,SSE,150,0.0,0.0,98,0.00,,CLR,0.00,VWS V14.01,2013-08-18 07:24:00,
2013-08-18 03:25:00,57.6,57.0,30.20,SSE,150,0.0,0.0,98,0.00,,CLR,0.00,VWS V14.01,2013-08-18 07:25:00,
2013-08-18 03:26:00,57.6,57.3,30.20,SSE,150,0.0,0.0,99,0.00,,CLR,0.00,VWS V14.01,2013-08-18 07:26:00,
2013-08-18 03:27:00,57.6,57.3,30.20,SSE,150,0.0,0.0,99,0.00,,CLR,0.00,VWS V14.01,2013-08-18 07:27:00,
2013-08-18 03:28:00,57.6,57.3,30.21,SSE,150,0.0,0.0,99,0.00,,CLR,0.00,VWS V14.01,2013-08-18 07:28:00,
2013-08-18 03:29:00,57.6,57.0,30.21,SSE,150,0.0,0.0,98,0.00,,CLR,0.00,VWS V14.01,2013-08-18 07:29:00,
2013-08-18 03:30:00,57.6,57.0,30.21,SSE,150,0.0,0.0,98,0.00,,CLR,0.00,VWS V14.01,2013-08-18 07:30:00,
2013-08-18 03:31:00,57.5,56.9,30.21,SSE,150,0.0,0.0,98,0.00,,CLR,0.00,VWS V14.01,2013-08-18 07:31:00,
2013-08-18 03:32:00,57.9,57.0,30.20,SSE,150,0.0,0.0,98,0.00,,,0.00,weatherlink.com 1.10,2013-08-18 07:32:00,
2013-08-18 03:33:00,57.5,56.9,30.21,SSE,151,0.0,0.0,98,0.00,,CLR,0.00,VWS V14.01,2013-08-18 07:33:00,
2013-08-18 03:34:00,57.5,56.9,30.21,SSE,150,0.0,0.0,98,0.00,,CLR,0.00,VWS V14.01,2013-08-18 07:34:00,
2013-08-18 03:35:00,57.5,56.9,30.21,SSE,150,0.0,0.0,98,0.00,,CLR,0.00,VWS V14.01,2013-08-18 07:35:00,
2013-08-18 03:36:00,57.4,56.8,30.20,SSE,151,0.0,0.0,98,0.00,,CLR,0.00,VWS V14.01,2013-08-18 07:36:00,
2013-08-18 03:37:00,57.4,56.8,30.20,SSE,150,0.0,0.0,98,0.00,,CLR,0.00,VWS V14.01,2013-08-18 07:37:00,
2013-08-18 03:38:00,57.4,56.8,30.20,SSE,150,0.0,0.0,98,0.00,,CLR,0.00,VWS V14.01,2013-08-18 07:38:00,
2013-08-18 03:39:00,57.3,56.7,30.20,SSE,150,0.0,0.0,98,0.00,,CLR,0.00,VWS V14.01,2013-08-18 07:39:00,
2013-08-18 03:40:00,57.3,56.7,30.20,SSE,150,0.0,0.0,98,0.00,,CLR,0.00,VWS V14.01,2013-08-18 07:40:00,
2013-08-18 03:41:00,57.2,56.6,30.20,SSE,150,0.0,0.0,98,0.00,,CLR,0.00,VWS V14.01,2013-08-18 07:41:00,
2013-08-18 03:42:00,57.1,56.5,30.20,SSE,150,0.0,0.0,98,0.00,,CLR,0.00,VWS V14.01,2013-08-18 07:42:00,
2013-08-18 03:43:00,57.1,56.5,30.20,SSE,150,0.0,0.0,98,0.00,,CLR,0.00,VWS V14.01,2013-08-18 07:43:00,
2013-08-18 03:44:00,57.0,56.4,30.20,SSE,150,0.0,0.0,98,0.00,,CLR,0.00,VWS V14.01,2013-08-18 07:44:00,
2013-08-18 03:45:00,57.0,56.4,30.20,SSE,150,0.0,0.0,98,0.00,,CLR,0.00,VWS V14.01,2013-08-18 07:45:00,
2013-08-18 03:46:00,56.9,56.3,30.20,SSE,150,0.0,0.0,98,0.00,,CLR,0.00,VWS V14.01,2013-08-18 07:46:00,
2013-08-18 03:47:00,56.9,56.3,30.20,SSE,150,0.0,0.0,98,0.00,,CLR,0.00,VWS V14.01,2013-08-18 07:47:00,
2013-08-18 03:48:00,57.6,57.0,30.20,SSE,150,0.0,0.0,98,0.00,,,0.00,weatherlink.com 1.10,2013-08-18 07:48:00,
2013-08-18 03:49:00,56.9,56.3,30.20,SSE,150,0.0,0.0,98,0.00,,CLR,0.00,VWS V14.01,2013-08-18 07:49:00,
2013-08-18 03:50:00,56.9,56.6,30.20,SSE,150,0.0,0.0,99,0.00,,CLR,0.00,VWS V14.01,2013-08-18 07:50:00,
2013-08-18 03:51:00,57.0,56.7,30.20,SSE,150,0.0,0.0,99,0.00,,CLR,0.00,VWS V14.01,2013-08-18 07:51:00,
2013-08-18 03:52:00,57.2,56.9,30.20,SSE,153,0.0,0.0,99,0.00,,CLR,0.00,VWS V14.01,2013-08-18 07:52:00,
2013-08-18 03:53:00,57.4,57.1,30.20,SSW,201,0.0,1.0,99,0.00,,CLR,0.00,VWS V14.01,2013-08-18 07:53:00,
2013-08-18 03:54:00,57.6,57.3,30.20,SSW,201,0.0,1.0,99,0.00,,CLR,0.00,VWS V14.01,2013-08-18 07:54:00,
2013-08-18 03:55:00,57.7,57.4,30.20,SSW,201,0.0,1.0,99,0.00,,CLR,0.00,VWS V14.01,2013-08-18 07:55:00,
2013-08-18 03:56:00,57.6,57.3,30.20,SSW,201,0.0,1.0,99,0.00,,CLR,0.00,VWS V14.01,2013-08-18 07:56:00,
2013-08-18 03:57:00,57.7,57.4,30.20,SSW,201,0.0,0.0,99,0.00,,CLR,0.00,VWS V14.01,2013-08-18 07:57:00,
2013-08-18 03:58:00,57.7,57.4,30.20,SSW,201,0.0,0.0,99,0.00,,CLR,0.00,VWS V14.01,2013-08-18 07:58:00,
2013-08-18 03:59:00,57.6,57.3,30.20,SSW,201,0.0,0.0,99,0.00,,CLR,0.00,VWS V14.01,2013-08-18 07:59:00,
2013-08-18 04:00:00,57.6,57.3,30.20,SSW,201,0.0,0.0,99,0.00,,CLR,0.00,VWS V14.01,2013-08-18 08:00:00,
2013-08-18 04:01:00,57.6,57.3,30.20,SSW,201,0.0,0.0,99,0.00,,CLR,0.00,VWS V14.01,2013-08-18 08:01:00,
2013-08-18 04:02:00,57.6,57.3,30.21,SSW,201,0.0,0.0,99,0.00,,CLR,0.00,VWS V14.01,2013-08-18 08:02:00,
2013-08-18 04:03:00,57.6,57.3,30.21,SSW,201,0.0,0.0,99,0.00,,CLR,0.00,VWS V14.01,2013-08-18 08:03:00,
2013-08-18 04:04:00,57.6,57.3,30.21,SSW,201,0.0,0.0,99,0.00,,CLR,0.00,VWS V14.01,2013-08-18 08:04:00,
2013-08-18 04:05:00,57.3,57.0,30.20,SSE,150,0.0,0.0,98,0.00,,,0.00,weatherlink.com 1.10,2013-08-18 08:05:00,
2013-08-18 04:06:00,57.6,57.3,30.20,SSW,201,0.0,0.0,99,0.00,,CLR,0.00,VWS V14.01,2013-08-18 08:06:00,
2013-08-18 04:07:00,57.6,57.3,30.20,SSW,201,0.0,0.0,99,0.00,,CLR,0.00,VWS V14.01,2013-08-18 08:07:00,
2013-08-18 04:08:00,57.6,57.3,30.20,SSW,201,0.0,0.0,99,0.00,,CLR,0.00,VWS V14.01,2013-08-18 08:08:00,
2013-08-18 04:09:00,57.6,57.3,30.20,SSW,201,0.0,0.0,99,0.00,,CLR,0.00,VWS V14.01,2013-08-18 08:09:00,
2013-08-18 04:10:00,57.5,57.2,30.20,SSW,201,0.0,0.0,99,0.00,,CLR,0.00,VWS V14.01,2013-08-18 08:10:00,
2013-08-18 04:11:00,57.5,57.2,30.20,SSW,201,0.0,0.0,99,0.00,,CLR,0.00,VWS V14.01,2013-08-18 08:11:00,
2013-08-18 04:12:00,57.5,57.2,30.20,SSW,201,0.0,0.0,99,0.00,,CLR,0.00,VWS V14.01,2013-08-18 08:12:00,
2013-08-18 04:13:00,57.5,57.2,30.20,SSW,201,0.0,0.0,99,0.00,,CLR,0.00,VWS V14.01,2013-08-18 08:13:00,
2013-08-18 04:14:00,57.5,57.2,30.20,SSW,201,0.0,0.0,99,0.00,,CLR,0.00,VWS V14.01,2013-08-18 08:14:00,
2013-08-18 04:15:00,57.5,57.2,30.20,SSW,201,0.0,0.0,99,0.00,,CLR,0.00,VWS V14.01,2013-08-18 08:15:00,
2013-08-18 04:16:00,57.6,57.3,30.20,SSW,201,0.0,0.0,99,0.00,,CLR,0.00,VWS V14.01,2013-08-18 08:16:00,
2013-08-18 04:17:00,57.6,57.3,30.20,SSW,201,0.0,0.0,99,0.00,,CLR,0.00,VWS V14.01,2013-08-18 08:17:00,
2013-08-18 04:18:00,57.6,57.3,30.20,SSW,201,0.0,0.0,99,0.00,,CLR,0.00,VWS V14.01,2013-08-18 08:18:00,
2013-08-18 04:19:00,57.6,57.3,30.20,SSW,201,0.0,0.0,99,0.00,,CLR,0.00,VWS V14.01,2013-08-18 08:19:00,
2013-08-18 04:20:00,57.6,57.3,30.20,SSW,201,0.0,0.0,99,0.00,,CLR,0.00,VWS V14.01,2013-08-18 08:20:00,
2013-08-18 04:21:00,57.7,58.0,30.20,SSW,201,0.0,1.0,99,0.00,,,0.00,weatherlink.com 1.10,2013-08-18 08:21:00,
2013-08-18 04:22:00,57.6,57.3,30.20,SSW,201,0.0,0.0,99,0.00,,CLR,0.00,VWS V14.01,2013-08-18 08:22:00,
2013-08-18 04:23:00,57.6,57.3,30.20,SSW,201,0.0,0.0,99,0.00,,CLR,0.00,VWS V14.01,2013-08-18 08:23:00,
2013-08-18 04:24:00,57.6,57.3,30.20,SSW,201,0.0,0.0,99,0.00,,CLR,0.00,VWS V14.01,2013-08-18 08:24:00,
2013-08-18 04:25:00,57.6,57.3,30.20,SSW,201,0.0,0.0,99,0.00,,CLR,0.00,VWS V14.01,2013-08-18 08:25:00,
2013-08-18 04:26:00,57.6,57.3,30.20,SSW,201,0.0,0.0,99,0.00,,CLR,0.00,VWS V14.01,2013-08-18 08:26:00,
2013-08-18 04:27:00,57.6,57.3,30.20,SSW,201,0.0,0.0,99,0.00,,CLR,0.00,VWS V14.01,2013-08-18 08:27:00,
2013-08-18 04:28:00,57.6,57.3,30.20,SSW,201,0.0,0.0,99,0.00,,CLR,0.00,VWS V14.01,2013-08-18 08:28:00,
2013-08-18 04:29:00,57.6,57.3,30.20,SSW,200,0.0,0.0,99,0.00,,CLR,0.00,VWS V14.01,2013-08-18 08:29:00,
2013-08-18 04:30:00,57.7,57.4,30.20,SSW,200,0.0,0.0,99,0.00,,CLR,0.00,VWS V14.01,2013-08-18 08:30:00,
2013-08-18 04:31:00,57.7,57.4,30.20,SSW,200,0.0,0.0,99,0.00,,CLR,0.00,VWS V14.01,2013-08-18 08:31:00,
2013-08-18 04:32:00,57.8,57.5,30.20,SSW,200,0.0,0.0,99,0.00,,CLR,0.00,VWS V14.01,2013-08-18 08:32:00,
2013-08-18 04:33:00,57.7,57.4,30.20,SSW,200,0.0,0.0,99,0.00,,CLR,0.00,VWS V14.01,2013-08-18 08:33:00,
2013-08-18 04:34:00,57.7,57.4,30.20,SSW,200,0.0,0.0,99,0.00,,CLR,0.00,VWS V14.01,2013-08-18 08:34:00,
2013-08-18 04:35:00,57.6,57.3,30.20,SSW,200,0.0,0.0,99,0.00,,CLR,0.00,VWS V14.01,2013-08-18 08:35:00,
2013-08-18 04:36:00,57.6,57.3,30.20,SSW,200,0.0,0.0,99,0.00,,CLR,0.00,VWS V14.01,2013-08-18 08:36:00,
2013-08-18 04:37:00,57.5,57.0,30.20,SSW,201,0.0,0.0,99,0.00,,,0.00,weatherlink.com 1.10,2013-08-18 08:37:00,
2013-08-18 04:38:00,57.5,57.2,30.20,SSW,200,0.0,0.0,99,0.00,,CLR,0.00,VWS V14.01,2013-08-18 08:38:00,
2013-08-18 04:39:00,57.4,57.1,30.20,SSW,200,0.0,0.0,99,0.00,,CLR,0.00,VWS V14.01,2013-08-18 08:39:00,
2013-08-18 04:40:00,57.4,57.1,30.20,SSW,200,0.0,0.0,99,0.00,,CLR,0.00,VWS V14.01,2013-08-18 08:40:00,
2013-08-18 04:41:00,57.4,57.1,30.20,SSW,200,0.0,0.0,99,0.00,,CLR,0.00,VWS V14.01,2013-08-18 08:41:00,
2013-08-18 04:42:00,57.4,57.1,30.20,SSW,200,0.0,0.0,99,0.00,,CLR,0.00,VWS V14.01,2013-08-18 08:42:00,
2013-08-18 04:43:00,57.4,57.1,30.20,SSW,200,0.0,0.0,99,0.00,,CLR,0.00,VWS V14.01,2013-08-18 08:43:00,
2013-08-18 04:44:00,57.4,57.1,30.20,SSW,200,0.0,0.0,99,0.00,,CLR,0.00,VWS V14.01,2013-08-18 08:44:00,
2013-08-18 04:45:00,57.4,57.1,30.20,SSW,200,0.0,0.0,99,0.00,,CLR,0.00,VWS V14.01,2013-08-18 08:45:00,
2013-08-18 04:46:00,57.6,57.3,30.20,SSW,200,0.0,0.0,99,0.00,,CLR,0.00,VWS V14.01,2013-08-18 08:46:00,
2013-08-18 04:47:00,57.7,57.4,30.20,SSW,200,0.0,0.0,99,0.00,,CLR,0.00,VWS V14.01,2013-08-18 08:47:00,
2013-08-18 04:48:00,57.7,57.4,30.20,SSW,200,0.0,0.0,99,0.00,,CLR,0.00,VWS V14.01,2013-08-18 08:48:00,
2013-08-18 04:49:00,57.7,57.4,30.20,SSW,200,0.0,0.0,99,0.00,,CLR,0.00,VWS V14.01,2013-08-18 08:49:00,
2013-08-18 04:50:00,57.8,57.5,30.20,SSW,200,0.0,0.0,99,0.00,,CLR,0.00,VWS V14.01,2013-08-18 08:50:00,
2013-08-18 04:51:00,57.8,57.5,30.20,SSW,200,0.0,0.0,99,0.00,,CLR,0.00,VWS V14.01,2013-08-18 08:51:00,
2013-08-18 04:52:00,57.8,57.5,30.20,SSW,200,0.0,0.0,99,0.00,,CLR,0.00,VWS V14.01,2013-08-18 08:52:00,
2013-08-18 04:53:00,57.6,57.0,30.20,SSW,201,0.0,0.0,99,0.00,,,0.00,weatherlink.com 1.10,2013-08-18 08:53:00,
2013-08-18 04:54:00,57.8,57.5,30.20,SSW,200,0.0,0.0,99,0.00,,CLR,0.00,VWS V14.01,2013-08-18 08:54:00,
2013-08-18 04:55:00,57.8,57.5,30.20,SSW,200,0.0,0.0,99,0.00,,CLR,0.00,VWS V14.01,2013-08-18 08:55:00,
2013-08-18 04:56:00,57.7,57.4,30.20,SSW,200,0.0,0.0,99,0.00,,CLR,0.00,VWS V14.01,2013-08-18 08:56:00,
2013-08-18 04:57:00,57.7,57.4,30.20,SSW,200,0.0,0.0,99,0.00,,CLR,0.00,VWS V14.01,2013-08-18 08:57:00,
2013-08-18 04:58:00,57.6,57.3,30.20,SSW,200,0.0,0.0,99,0.00,,CLR,0.00,VWS V14.01,2013-08-18 08:58:00,
2013-08-18 04:59:00,57.6,57.3,30.20,SSW,200,0.0,0.0,99,0.00,,CLR,0.00,VWS V14.01,2013-08-18 08:59:00,
2013-08-18 05:00:00,57.5,57.2,30.20,SSW,200,0.0,0.0,99,0.00,,CLR,0.00,VWS V14.01,2013-08-18 09:00:00,
2013-08-18 05:01:00,57.5,57.2,30.20,SSW,200,0.0,0.0,99,0.00,,CLR,0.00,VWS V14.01,2013-08-18 09:01:00,
2013-08-18 05:02:00,57.4,57.1,30.20,SSW,200,0.0,0.0,99,0.00,,CLR,0.00,VWS V14.01,2013-08-18 09:02:00,
2013-08-18 05:03:00,57.4,57.1,30.20,SSW,200,0.0,0.0,99,0.00,,CLR,0.00,VWS V14.01,2013-08-18 09:03:00,
2013-08-18 05:04:00,57.4,57.1,30.20,SSW,200,0.0,0.0,99,0.00,,CLR,0.00,VWS V14.01,2013-08-18 09:04:00,
2013-08-18 05:05:00,57.4,57.1,30.20,SSW,199,0.0,0.0,99,0.00,,CLR,0.00,VWS V14.01,2013-08-18 09:05:00,
2013-08-18 05:06:00,57.5,57.2,30.20,SSW,200,0.0,0.0,99,0.00,,CLR,0.00,VWS V14.01,2013-08-18 09:06:00,
2013-08-18 05:07:00,57.5,57.2,30.20,SSW,200,0.0,0.0,99,0.00,,CLR,0.00,VWS V14.01,2013-08-18 09:07:00,
2013-08-18 05:08:00,57.5,57.2,30.20,SSW,200,0.0,0.0,99,0.00,,CLR,0.00,VWS V14.01,2013-08-18 09:08:00,
2013-08-18 05:09:00,57.5,57.2,30.20,SSW,200,0.0,0.0,99,0.00,,CLR,0.00,VWS V14.01,2013-08-18 09:09:00,
2013-08-18 05:10:00,57.5,57.2,30.20,SSW,200,0.0,0.0,99,0.00,,CLR,0.00,VWS V14.01,2013-08-18 09:10:00,
2013-08-18 05:11:00,57.5,57.0,30.20,SSW,200,0.0,0.0,99,0.00,,,0.00,weatherlink.com 1.10,2013-08-18 09:11:00,
2013-08-18 05:12:00,57.5,57.2,30.20,SSW,200,0.0,0.0,99,0.00,,CLR,0.00,VWS V14.01,2013-08-18 09:12:00,
2013-08-18 05:13:00,57.5,57.2,30.20,SSW,200,0.0,0.0,99,0.00,,CLR,0.00,VWS V14.01,2013-08-18 09:13:00,
2013-08-18 05:14:00,57.4,57.1,30.20,SSW,200,0.0,0.0,99,0.00,,CLR,0.00,VWS V14.01,2013-08-18 09:14:00,
2013-08-18 05:15:00,57.4,57.1,30.20,SSW,200,0.0,0.0,99,0.00,,CLR,0.00,VWS V14.01,2013-08-18 09:15:00,
2013-08-18 05:16:00,57.4,57.1,30.20,SSW,200,0.0,0.0,99,0.00,,CLR,0.00,VWS V14.01,2013-08-18 09:16:00,
2013-08-18 05:17:00,57.4,57.1,30.20,SSW,200,0.0,0.0,99,0.00,,CLR,0.00,VWS V14.01,2013-08-18 09:17:00,
2013-08-18 05:18:00,57.4,57.1,30.20,SSW,200,0.0,0.0,99,0.00,,CLR,0.00,VWS V14.01,2013-08-18 09:18:00,
2013-08-18 05:19:00,57.4,57.1,30.20,SSW,200,0.0,0.0,99,0.00,,CLR,0.00,VWS V14.01,2013-08-18 09:19:00,
2013-08-18 05:20:00,57.4,57.1,30.20,SSW,200,0.0,0.0,99,0.00,,CLR,0.00,VWS V14.01,2013-08-18 09:20:00,
2013-08-18 05:21:00,57.5,57.2,30.20,SSW,200,0.0,0.0,99,0.00,,CLR,0.00,VWS V14.01,2013-08-18 09:21:00,
2013-08-18 05:22:00,57.6,57.3,30.20,SSW,200,0.0,0.0,99,0.00,,CLR,0.00,VWS V14.01,2013-08-18 09:22:00,
2013-08-18 05:23:00,57.6,57.3,30.20,SSW,200,0.0,0.0,99,0.00,,CLR,0.00,VWS V14.01,2013-08-18 09:23:00,
2013-08-18 05:24:00,57.6,57.3,30.20,SSW,200,0.0,0.0,99,0.00,,CLR,0.00,VWS V14.01,2013-08-18 09:24:00,
2013-08-18 05:25:00,57.6,57.3,30.20,SSW,199,0.0,0.0,99,0.00,,CLR,0.00,VWS V14.01,2013-08-18 09:25:00,
2013-08-18 05:26:00,57.7,57.4,30.20,SSW,200,0.0,0.0,99,0.00,,CLR,0.00,VWS V14.01,2013-08-18 09:26:00,
2013-08-18 05:27:00,57.5,57.0,30.20,SSW,200,0.0,1.0,99,0.00,,,0.00,weatherlink.com 1.10,2013-08-18 09:27:00,
2013-08-18 05:28:00,57.8,57.5,30.20,SSW,200,0.0,0.0,99,0.00,,CLR,0.00,VWS V14.01,2013-08-18 09:28:00,
2013-08-18 05:29:00,57.7,57.4,30.20,SSW,200,0.0,0.0,99,0.00,,CLR,0.00,VWS V14.01,2013-08-18 09:29:00,
2013-08-18 05:30:00,57.7,57.4,30.21,SSW,200,0.0,0.0,99,0.00,,CLR,0.00,VWS V14.01,2013-08-18 09:30:00,
2013-08-18 05:31:00,57.7,57.4,30.20,SSW,200,0.0,0.0,99,0.00,,CLR,0.00,VWS V14.01,2013-08-18 09:31:00,
2013-08-18 05:32:00,57.6,57.3,30.21,SSW,200,0.0,0.0,99,0.00,,CLR,0.00,VWS V14.01,2013-08-18 09:32:00,
2013-08-18 05:33:00,57.7,57.4,30.21,SSW,200,0.0,0.0,99,0.00,,CLR,0.00,VWS V14.01,2013-08-18 09:33:00,
2013-08-18 05:34:00,57.8,57.5,30.21,SSW,200,0.0,0.0,99,0.00,,CLR,0.00,VWS V14.01,2013-08-18 09:34:00,
2013-08-18 05:35:00,57.8,57.5,30.21,SSW,200,0.0,0.0,99,0.00,,CLR,0.00,VWS V14.01,2013-08-18 09:35:00,
2013-08-18 05:36:00,57.8,57.5,30.21,SSW,200,0.0,0.0,99,0.00,,CLR,0.00,VWS V14.01,2013-08-18 09:36:00,
2013-08-18 05:37:00,57.8,57.5,30.21,SSW,199,0.0,0.0,99,0.00,,CLR,0.00,VWS V14.01,2013-08-18 09:37:00,
2013-08-18 05:38:00,57.7,57.4,30.21,SSW,200,0.0,0.0,99,0.00,,CLR,0.00,VWS V14.01,2013-08-18 09:38:00,
2013-08-18 05:39:00,57.7,57.4,30.21,SSW,200,0.0,0.0,99,0.00,,CLR,0.00,VWS V14.01,2013-08-18 09:39:00,
2013-08-18 05:40:00,57.7,57.4,30.21,SSW,200,0.0,0.0,99,0.00,,CLR,0.00,VWS V14.01,2013-08-18 09:40:00,
2013-08-18 05:41:00,57.7,57.4,30.21,SSW,200,0.0,0.0,99,0.00,,CLR,0.00,VWS V14.01,2013-08-18 09:41:00,
2013-08-18 05:42:00,57.6,57.3,30.21,SSW,199,0.0,0.0,99,0.00,,CLR,0.00,VWS V14.01,2013-08-18 09:42:00,
2013-08-18 05:43:00,57.4,57.0,30.20,SSW,200,0.0,0.0,99,0.00,,,0.00,weatherlink.com 1.10,2013-08-18 09:43:00,
2013-08-18 05:44:00,57.6,57.3,30.21,SSW,200,0.0,0.0,99,0.00,,CLR,0.00,VWS V14.01,2013-08-18 09:44:00,
2013-08-18 05:45:00,57.6,57.3,30.21,SSW,200,0.0,0.0,99,0.00,,CLR,0.00,VWS V14.01,2013-08-18 09:45:00,
2013-08-18 05:46:00,57.6,57.3,30.21,SSW,200,0.0,0.0,99,0.00,,CLR,0.00,VWS V14.01,2013-08-18 09:46:00,
2013-08-18 05:47:00,57.6,57.3,30.21,SSW,200,0.0,0.0,99,0.00,,CLR,0.00,VWS V14.01,2013-08-18 09:47:00,
2013-08-18 05:48:00,57.6,57.3,30.21,SSW,200,0.0,0.0,99,0.00,,CLR,0.00,VWS V14.01,2013-08-18 09:48:00,
2013-08-18 05:49:00,57.6,57.3,30.21,SSW,200,0.0,0.0,99,0.00,,CLR,0.00,VWS V14.01,2013-08-18 09:49:00,
2013-08-18 05:50:00,57.6,57.3,30.21,SSW,200,0.0,0.0,99,0.00,,CLR,0.00,VWS V14.01,2013-08-18 09:50:00,
2013-08-18 05:51:00,57.6,57.3,30.21,SSW,200,0.0,0.0,99,0.00,,CLR,0.00,VWS V14.01,2013-08-18 09:51:00,
2013-08-18 05:52:00,57.5,57.2,30.21,SSW,200,0.0,0.0,99,0.00,,CLR,0.00,VWS V14.01,2013-08-18 09:52:00,
2013-08-18 05:53:00,57.5,57.2,30.21,SSW,200,0.0,0.0,99,0.00,,CLR,0.00,VWS V14.01,2013-08-18 09:53:00,
2013-08-18 05:54:00,57.6,57.3,30.21,SSW,199,0.0,0.0,99,0.00,,CLR,0.00,VWS V14.01,2013-08-18 09:54:00,
2013-08-18 05:55:00,57.6,57.3,30.21,SSW,200,0.0,0.0,99,0.00,,CLR,0.00,VWS V14.01,2013-08-18 09:55:00,
2013-08-18 05:56:00,57.6,57.3,30.21,SSW,200,0.0,0.0,99,0.00,,CLR,0.00,VWS V14.01,2013-08-18 09:56:00,
2013-08-18 05:57:00,57.6,57.3,30.21,SSW,200,0.0,0.0,99,0.00,,CLR,0.00,VWS V14.01,2013-08-18 09:57:00,
2013-08-18 05:58:00,57.6,57.3,30.21,SSW,200,0.0,0.0,99,0.00,,CLR,0.00,VWS V14.01,2013-08-18 09:58:00,
2013-08-18 05:59:00,57.6,57.3,30.21,SSW,200,0.0,0.0,99,0.00,,CLR,0.00,VWS V14.01,2013-08-18 09:59:00,
2013-08-18 06:00:00,57.7,58.0,30.21,SSW,200,0.0,0.0,99,0.00,,,0.00,weatherlink.com 1.10,2013-08-18 10:00:00,
2013-08-18 06:01:00,57.6,57.3,30.21,SSW,200,0.0,0.0,99,0.00,,CLR,0.00,VWS V14.01,2013-08-18 10:01:00,
2013-08-18 06:02:00,57.6,57.3,30.21,SSW,199,0.0,0.0,99,0.00,,CLR,0.00,VWS V14.01,2013-08-18 10:02:00,
2013-08-18 06:03:00,57.6,57.3,30.21,SSW,200,0.0,0.0,99,0.00,,CLR,0.00,VWS V14.01,2013-08-18 10:03:00,
2013-08-18 06:04:00,57.6,57.3,30.21,SSW,200,0.0,0.0,99,0.00,,CLR,0.00,VWS V14.01,2013-08-18 10:04:00,
2013-08-18 06:05:00,57.6,57.3,30.21,SSW,200,0.0,0.0,99,0.00,,CLR,0.00,VWS V14.01,2013-08-18 10:05:00,
2013-08-18 06:06:00,57.7,57.4,30.21,SSW,200,0.0,0.0,99,0.00,,CLR,0.00,VWS V14.01,2013-08-18 10:06:00,
2013-08-18 06:07:00,57.7,57.4,30.21,SSW,200,0.0,0.0,99,0.00,,CLR,0.00,VWS V14.01,2013-08-18 10:07:00,
2013-08-18 06:08:00,57.8,57.8,30.21,SSW,200,0.0,0.0,100,0.00,,CLR,0.00,VWS V14.01,2013-08-18 10:08:00,
2013-08-18 06:09:00,57.8,57.8,30.21,SSW,200,0.0,0.0,100,0.00,,CLR,0.00,VWS V14.01,2013-08-18 10:09:00,
2013-08-18 06:10:00,57.8,57.8,30.21,SSW,200,0.0,0.0,100,0.00,,CLR,0.00,VWS V14.01,2013-08-18 10:10:00,
2013-08-18 06:11:00,57.9,57.9,30.21,SSW,200,0.0,0.0,100,0.00,,CLR,0.00,VWS V14.01,2013-08-18 10:11:00,
2013-08-18 06:12:00,57.9,57.9,30.21,SSW,200,0.0,0.0,100,0.00,,CLR,0.00,VWS V14.01,2013-08-18 10:12:00,
2013-08-18 06:13:00,57.9,57.9,30.21,SSW,200,0.0,0.0,100,0.00,,CLR,0.00,VWS V14.01,2013-08-18 10:13:00,
2013-08-18 06:14:00,58.0,57.7,30.21,SSW,200,0.0,0.0,99,0.00,,CLR,0.00,VWS V14.01,2013-08-18 10:14:00,
2013-08-18 06:15:00,58.0,58.0,30.21,SSW,200,0.0,0.0,100,0.00,,CLR,0.00,VWS V14.01,2013-08-18 10:15:00,
2013-08-18 06:16:00,57.6,57.0,30.21,SSW,200,0.0,0.0,99,0.00,,,0.00,weatherlink.com 1.10,2013-08-18 10:16:00,
2013-08-18 06:17:00,58.0,58.0,30.21,SSW,200,0.0,0.0,100,0.00,,CLR,0.00,VWS V14.01,2013-08-18 10:17:00,
2013-08-18 06:18:00,58.0,58.0,30.21,SSW,200,0.0,0.0,100,0.00,,CLR,0.00,VWS V14.01,2013-08-18 10:18:00,
2013-08-18 06:19:00,58.1,58.1,30.21,SSW,200,0.0,0.0,100,0.00,,CLR,0.00,VWS V14.01,2013-08-18 10:19:00,
2013-08-18 06:20:00,58.1,58.1,30.21,SSW,200,0.0,0.0,100,0.00,,CLR,0.00,VWS V14.01,2013-08-18 10:20:00,
2013-08-18 06:21:00,58.1,58.1,30.21,SSW,200,0.0,0.0,100,0.00,,CLR,0.00,VWS V14.01,2013-08-18 10:21:00,
2013-08-18 06:22:00,58.2,58.2,30.21,SSW,200,0.0,0.0,100,0.00,,CLR,0.00,VWS V14.01,2013-08-18 10:22:00,
2013-08-18 06:23:00,58.2,58.2,30.21,SSW,200,0.0,0.0,100,0.00,,CLR,0.00,VWS V14.01,2013-08-18 10:23:00,
2013-08-18 06:24:00,58.3,58.3,30.21,SSW,200,0.0,0.0,100,0.00,,CLR,0.00,VWS V14.01,2013-08-18 10:24:00,
2013-08-18 06:25:00,58.3,58.3,30.21,SSW,200,0.0,0.0,100,0.00,,CLR,0.00,VWS V14.01,2013-08-18 10:25:00,
2013-08-18 06:26:00,58.4,58.4,30.21,SSW,200,0.0,0.0,100,0.00,,CLR,0.00,VWS V14.01,2013-08-18 10:26:00,
2013-08-18 06:27:00,58.4,58.4,30.21,SSW,200,0.0,0.0,100,0.00,,CLR,0.00,VWS V14.01,2013-08-18 10:27:00,
2013-08-18 06:28:00,58.5,58.5,30.21,SSW,200,0.0,0.0,100,0.00,,CLR,0.00,VWS V14.01,2013-08-18 10:28:00,
2013-08-18 06:29:00,58.6,58.6,30.21,SSW,200,0.0,0.0,100,0.00,,CLR,0.00,VWS V14.01,2013-08-18 10:29:00,
2013-08-18 06:30:00,58.7,58.7,30.21,SSW,200,0.0,0.0,100,0.00,,CLR,0.00,VWS V14.01,2013-08-18 10:30:00,
2013-08-18 06:31:00,58.7,58.7,30.21,SSW,200,0.0,0.0,100,0.00,,CLR,0.00,VWS V14.01,2013-08-18 10:31:00,
2013-08-18 06:32:00,58.8,58.8,30.21,SSW,200,0.0,0.0,100,0.00,,CLR,0.00,VWS V14.01,2013-08-18 10:32:00,
2013-08-18 06:33:00,57.7,58.0,30.21,SSW,200,0.0,0.0,99,0.00,,,0.00,weatherlink.com 1.10,2013-08-18 10:33:00,
2013-08-18 06:34:00,58.8,58.5,30.21,SSW,200,0.0,0.0,99,0.00,,CLR,0.00,VWS V14.01,2013-08-18 10:34:00,
2013-08-18 06:35:00,58.9,58.6,30.21,SSW,200,0.0,0.0,99,0.00,,CLR,0.00,VWS V14.01,2013-08-18 10:35:00,
2013-08-18 06:36:00,59.0,58.7,30.21,SSW,200,0.0,0.0,99,0.00,,CLR,0.00,VWS V14.01,2013-08-18 10:36:00,
2013-08-18 06:37:00,59.1,58.8,30.21,SSW,200,0.0,0.0,99,0.00,,CLR,0.00,VWS V14.01,2013-08-18 10:37:00,
2013-08-18 06:38:00,59.2,58.9,30.21,SSW,200,0.0,0.0,99,0.00,,CLR,0.00,VWS V14.01,2013-08-18 10:38:00,
2013-08-18 06:39:00,59.4,59.1,30.21,SSW,200,0.0,0.0,99,0.00,,CLR,0.00,VWS V14.01,2013-08-18 10:39:00,
2013-08-18 06:40:00,59.7,59.4,30.21,SSW,200,0.0,0.0,99,0.00,,CLR,0.00,VWS V14.01,2013-08-18 10:40:00,
2013-08-18 06:41:00,60.0,60.0,30.21,SSW,200,0.0,0.0,100,0.00,,CLR,0.00,VWS V14.01,2013-08-18 10:41:00,
2013-08-18 06:42:00,60.2,60.2,30.21,SSW,200,0.0,0.0,100,0.00,,CLR,0.00,VWS V14.01,2013-08-18 10:42:00,
2013-08-18 06:43:00,60.4,60.4,30.21,SSW,200,0.0,0.0,100,0.00,,CLR,0.00,VWS V14.01,2013-08-18 10:43:00,
2013-08-18 06:44:00,60.6,60.6,30.22,SSW,200,0.0,0.0,100,0.00,,CLR,0.00,VWS V14.01,2013-08-18 10:44:00,
2013-08-18 06:45:00,60.9,60.9,30.21,SSW,200,0.0,0.0,100,0.00,,CLR,0.00,VWS V14.01,2013-08-18 10:45:00,
2013-08-18 06:46:00,61.2,61.2,30.22,SSW,200,0.0,0.0,100,0.00,,CLR,0.00,VWS V14.01,2013-08-18 10:46:00,
2013-08-18 06:47:00,61.5,61.5,30.22,SSW,200,0.0,0.0,100,0.00,,CLR,0.00,VWS V14.01,2013-08-18 10:47:00,
2013-08-18 06:48:00,61.8,61.8,30.22,SSW,200,0.0,0.0,100,0.00,,CLR,0.00,VWS V14.01,2013-08-18 10:48:00,
2013-08-18 06:49:00,58.2,58.0,30.21,SSW,200,0.0,0.0,100,0.00,,,0.00,weatherlink.com 1.10,2013-08-18 10:49:00,
2013-08-18 06:50:00,62.1,62.1,30.21,SSW,200,0.0,0.0,100,0.00,,CLR,0.00,VWS V14.01,2013-08-18 10:50:00,
2013-08-18 06:51:00,61.8,61.8,30.21,SSW,200,0.0,0.0,100,0.00,,CLR,0.00,VWS V14.01,2013-08-18 10:51:00,
2013-08-18 06:52:00,61.6,61.3,30.21,SSW,198,0.0,0.0,99,0.00,,CLR,0.00,VWS V14.01,2013-08-18 10:52:00,
2013-08-18 06:53:00,61.4,61.1,30.21,SSW,198,0.0,0.0,99,0.00,,CLR,0.00,VWS V14.01,2013-08-18 10:53:00,
2013-08-18 06:54:00,61.4,61.1,30.21,SSW,198,0.0,0.0,99,0.00,,CLR,0.00,VWS V14.01,2013-08-18 10:54:00,
2013-08-18 06:55:00,61.4,61.1,30.21,SSW,198,0.0,0.0,99,0.00,,CLR,0.00,VWS V14.01,2013-08-18 10:55:00,
2013-08-18 06:56:00,61.6,61.3,30.21,SSW,198,0.0,0.0,99,0.00,,CLR,0.00,VWS V14.01,2013-08-18 10:56:00,
2013-08-18 06:57:00,61.6,61.3,30.21,SSW,198,0.0,0.0,99,0.00,,CLR,0.00,VWS V14.01,2013-08-18 10:57:00,
2013-08-18 06:58:00,61.7,61.4,30.21,SSW,198,0.0,0.0,99,0.00,,CLR,0.00,VWS V14.01,2013-08-18 10:58:00,
2013-08-18 06:59:00,61.7,61.4,30.21,SSW,198,0.0,0.0,99,0.00,,CLR,0.00,VWS V14.01,2013-08-18 10:59:00,
2013-08-18 07:00:00,61.8,61.5,30.21,SSW,198,0.0,0.0,99,0.00,,CLR,0.00,VWS V14.01,2013-08-18 11:00:00,
2013-08-18 07:01:00,61.8,61.5,30.21,SSW,198,0.0,0.0,99,0.00,,CLR,0.00,VWS V14.01,2013-08-18 11:01:00,
2013-08-18 07:02:00,61.8,61.2,30.21,SSW,198,0.0,0.0,98,0.00,,CLR,0.00,VWS V14.01,2013-08-18 11:02:00,
2013-08-18 07:03:00,61.9,61.3,30.21,SSW,198,0.0,0.0,98,0.00,,CLR,0.00,VWS V14.01,2013-08-18 11:03:00,
2013-08-18 07:04:00,62.1,61.5,30.21,SSW,198,0.0,0.0,98,0.00,,CLR,0.00,VWS V14.01,2013-08-18 11:04:00,
2013-08-18 07:05:00,62.2,61.6,30.21,SSW,198,0.0,0.0,98,0.00,,CLR,0.00,VWS V14.01,2013-08-18 11:05:00,
2013-08-18 07:06:00,59.6,59.0,30.21,SSW,200,0.0,0.0,99,0.00,,,0.00,weatherlink.com 1.10,2013-08-18 11:06:00,
2013-08-18 07:07:00,62.5,61.9,30.21,SSW,198,0.0,0.0,98,0.00,,CLR,0.00,VWS V14.01,2013-08-18 11:07:00,
2013-08-18 07:08:00,62.7,62.4,30.21,SSW,198,0.0,0.0,99,0.00,,CLR,0.00,VWS V14.01,2013-08-18 11:08:00,
2013-08-18 07:09:00,62.9,62.6,30.21,SSW,195,0.0,0.0,99,0.00,,CLR,0.00,VWS V14.01,2013-08-18 11:09:00,
2013-08-18 07:10:00,63.0,62.4,30.21,SSW,193,0.0,0.0,98,0.00,,CLR,0.00,VWS V14.01,2013-08-18 11:10:00,
2013-08-18 07:11:00,63.2,62.6,30.21,SSW,193,0.0,0.0,98,0.00,,CLR,0.00,VWS V14.01,2013-08-18 11:11:00,
2013-08-18 07:12:00,63.3,62.7,30.21,SSW,193,0.0,0.0,98,0.00,,CLR,0.00,VWS V14.01,2013-08-18 11:12:00,
2013-08-18 07:13:00,63.5,62.9,30.21,SSW,193,0.0,0.0,98,0.00,,CLR,0.00,VWS V14.01,2013-08-18 11:13:00,
2013-08-18 07:14:00,63.7,63.1,30.21,SSW,193,0.0,0.0,98,0.00,,CLR,0.00,VWS V14.01,2013-08-18 11:14:00,
2013-08-18 07:15:00,63.9,63.0,30.21,SSW,193,0.0,0.0,97,0.00,,CLR,0.00,VWS V14.01,2013-08-18 11:15:00,
2013-08-18 07:16:00,64.1,63.2,30.21,SSW,193,0.0,0.0,97,0.00,,CLR,0.00,VWS V14.01,2013-08-18 11:16:00,
2013-08-18 07:17:00,64.3,63.4,30.21,SSW,193,0.0,0.0,97,0.00,,CLR,0.00,VWS V14.01,2013-08-18 11:17:00,
2013-08-18 07:18:00,64.5,63.3,30.21,SSW,193,0.0,0.0,96,0.00,,CLR,0.00,VWS V14.01,2013-08-18 11:18:00,
2013-08-18 07:19:00,64.7,63.5,30.21,SSW,193,0.0,0.0,96,0.00,,CLR,0.00,VWS V14.01,2013-08-18 11:19:00,
2013-08-18 07:20:00,64.8,63.6,30.21,SSW,193,0.0,0.0,96,0.00,,CLR,0.00,VWS V14.01,2013-08-18 11:20:00,
2013-08-18 07:21:00,64.9,63.1,30.21,SSW,193,0.0,0.0,94,0.00,,CLR,0.00,VWS V14.01,2013-08-18 11:21:00,
2013-08-18 07:22:00,61.4,61.0,30.21,SSW,198,0.0,1.0,99,0.00,,,0.00,weatherlink.com 1.10,2013-08-18 11:22:00,
2013-08-18 07:23:00,64.9,62.8,30.21,SSW,193,0.0,0.0,93,0.00,,CLR,0.00,VWS V14.01,2013-08-18 11:23:00,
2013-08-18 07:24:00,64.9,62.8,30.21,SSW,193,0.0,0.0,93,0.00,,CLR,0.00,VWS V14.01,2013-08-18 11:24:00,
2013-08-18 07:25:00,65.0,62.9,30.21,SSW,193,0.0,0.0,93,0.00,,CLR,0.00,VWS V14.01,2013-08-18 11:25:00,
2013-08-18 07:26:00,65.0,62.6,30.21,SSW,193,0.0,0.0,92,0.00,,CLR,0.00,VWS V14.01,2013-08-18 11:26:00,
2013-08-18 07:27:00,65.0,62.6,30.21,SSW,193,0.0,0.0,92,0.00,,CLR,0.00,VWS V14.01,2013-08-18 11:27:00,
2013-08-18 07:28:00,65.0,62.3,30.21,SSW,193,0.0,0.0,91,0.00,,CLR,0.00,VWS V14.01,2013-08-18 11:28:00,
2013-08-18 07:29:00,65.0,62.3,30.21,SSW,193,0.0,0.0,91,0.00,,CLR,0.00,VWS V14.01,2013-08-18 11:29:00,
2013-08-18 07:30:00,65.1,62.7,30.21,SSW,193,0.0,0.0,92,0.00,,CLR,0.00,VWS V14.01,2013-08-18 11:30:00,
2013-08-18 07:31:00,65.3,62.9,30.21,SSW,193,0.0,0.0,92,0.00,,CLR,0.00,VWS V14.01,2013-08-18 11:31:00,
2013-08-18 07:32:00,65.5,63.1,30.21,SSW,193,0.0,0.0,92,0.00,,CLR,0.00,VWS V14.01,2013-08-18 11:32:00,
2013-08-18 07:33:00,65.6,62.9,30.21,SSW,193,0.0,0.0,91,0.00,,CLR,0.00,VWS V14.01,2013-08-18 11:33:00,
2013-08-18 07:34:00,65.9,63.2,30.21,SSW,193,0.0,0.0,91,0.00,,CLR,0.00,VWS V14.01,2013-08-18 11:34:00,
2013-08-18 07:35:00,66.1,63.4,30.21,SSW,193,0.0,0.0,91,0.00,,CLR,0.00,VWS V14.01,2013-08-18 11:35:00,
2013-08-18 07:36:00,66.2,63.2,30.21,SSW,193,0.0,0.0,90,0.00,,CLR,0.00,VWS V14.01,2013-08-18 11:36:00,
2013-08-18 07:37:00,66.5,63.5,30.21,SSW,193,0.0,0.0,90,0.00,,CLR,0.00,VWS V14.01,2013-08-18 11:37:00,
2013-08-18 07:38:00,66.7,63.7,30.21,SSW,193,0.0,0.0,90,0.00,,CLR,0.00,VWS V14.01,2013-08-18 11:38:00,
2013-08-18 07:39:00,63.4,63.0,30.21,SSW,193,0.0,0.0,98,0.00,,,0.00,weatherlink.com 1.10,2013-08-18 11:39:00,
2013-08-18 07:40:00,67.1,63.8,30.21,SSW,193,0.0,0.0,89,0.00,,CLR,0.00,VWS V14.01,2013-08-18 11:40:00,
2013-08-18 07:41:00,67.3,63.6,30.21,SSW,193,0.0,0.0,88,0.00,,CLR,0.00,VWS V14.01,2013-08-18 11:41:00,
2013-08-18 07:42:00,67.5,63.5,30.21,SSW,193,0.0,0.0,87,0.00,,CLR,0.00,VWS V14.01,2013-08-18 11:42:00,
2013-08-18 07:43:00,67.7,63.7,30.21,SSW,193,0.0,1.0,87,0.00,,CLR,0.00,VWS V14.01,2013-08-18 11:43:00,
2013-08-18 07:44:00,67.8,63.5,30.21,South,190,0.0,1.0,86,0.00,,CLR,0.00,VWS V14.01,2013-08-18 11:44:00,
2013-08-18 07:45:00,67.9,63.2,30.22,ESE,121,1.0,1.0,85,0.00,,CLR,0.00,VWS V14.01,2013-08-18 11:45:00,
2013-08-18 07:46:00,67.9,63.2,30.21,ESE,121,0.0,1.0,85,0.00,,CLR,0.00,VWS V14.01,2013-08-18 11:46:00,
2013-08-18 07:47:00,68.0,63.3,30.21,ESE,121,0.0,1.0,85,0.00,,CLR,0.00,VWS V14.01,2013-08-18 11:47:00,
2013-08-18 07:48:00,68.0,63.3,30.21,ESE,122,0.0,1.0,85,0.00,,CLR,0.00,VWS V14.01,2013-08-18 11:48:00,
2013-08-18 07:49:00,68.1,63.4,30.21,ESE,122,0.0,0.0,85,0.00,,CLR,0.00,VWS V14.01,2013-08-18 11:49:00,
2013-08-18 07:50:00,68.2,63.5,30.21,ESE,108,1.0,1.0,85,0.00,,CLR,0.00,VWS V14.01,2013-08-18 11:50:00,
2013-08-18 07:51:00,68.1,63.1,30.21,ESE,107,0.0,1.0,84,0.00,,CLR,0.00,VWS V14.01,2013-08-18 11:51:00,
2013-08-18 07:52:00,68.1,62.8,30.21,ESE,107,0.0,1.0,83,0.00,,CLR,0.00,VWS V14.01,2013-08-18 11:52:00,
2013-08-18 07:53:00,68.0,63.0,30.21,ESE,107,1.0,1.0,84,0.00,,CLR,0.00,VWS V14.01,2013-08-18 11:53:00,
2013-08-18 07:54:00,65.0,62.0,30.21,SSW,193,0.0,0.0,91,0.00,,,0.00,weatherlink.com 1.10,2013-08-18 11:54:00,
2013-08-18 07:55:00,68.0,63.0,30.21,SE,129,0.0,2.0,84,0.00,,CLR,0.00,VWS V14.01,2013-08-18 11:55:00,
2013-08-18 07:56:00,67.9,62.9,30.21,SE,128,0.0,2.0,84,0.00,,CLR,0.00,VWS V14.01,2013-08-18 11:56:00,
2013-08-18 07:57:00,68.0,63.0,30.21,SE,128,0.0,2.0,84,0.00,,CLR,0.00,VWS V14.01,2013-08-18 11:57:00,
2013-08-18 07:58:00,68.0,63.3,30.21,ESE,115,1.0,2.0,85,0.00,,CLR,0.00,VWS V14.01,2013-08-18 11:58:00,
2013-08-18 07:59:00,68.1,63.1,30.21,ESE,121,1.0,1.0,84,0.00,,CLR,0.00,VWS V14.01,2013-08-18 11:59:00,
2013-08-18 08:00:00,68.2,63.5,30.21,ESE,103,2.0,2.0,85,0.00,,CLR,0.00,VWS V14.01,2013-08-18 12:00:00,
2013-08-18 08:01:00,68.2,63.2,30.21,SE,124,1.0,2.0,84,0.00,,CLR,0.00,VWS V14.01,2013-08-18 12:01:00,
2013-08-18 08:02:00,68.2,63.2,30.21,ESE,120,2.0,2.0,84,0.00,,CLR,0.00,VWS V14.01,2013-08-18 12:02:00,
2013-08-18 08:03:00,68.2,63.2,30.21,ESE,118,1.0,2.0,84,0.00,,CLR,0.00,VWS V14.01,2013-08-18 12:03:00,
2013-08-18 08:04:00,68.2,63.2,30.21,SE,132,2.0,2.0,84,0.00,,CLR,0.00,VWS V14.01,2013-08-18 12:04:00,
2013-08-18 08:05:00,68.1,62.8,30.21,ESE,122,0.0,2.0,83,0.00,,CLR,0.00,VWS V14.01,2013-08-18 12:05:00,
2013-08-18 08:06:00,68.0,62.7,30.21,SE,129,0.0,2.0,83,0.00,,CLR,0.00,VWS V14.01,2013-08-18 12:06:00,
2013-08-18 08:07:00,68.0,63.0,30.21,SE,129,0.0,2.0,84,0.00,,CLR,0.00,VWS V14.01,2013-08-18 12:07:00,
2013-08-18 08:08:00,68.1,63.1,30.21,SE,128,0.0,2.0,84,0.00,,CLR,0.00,VWS V14.01,2013-08-18 12:08:00,
2013-08-18 08:09:00,68.2,63.5,30.21,SE,128,0.0,1.0,85,0.00,,CLR,0.00,VWS V14.01,2013-08-18 12:09:00,
2013-08-18 08:10:00,68.3,63.3,30.21,ESE,112,1.0,1.0,84,0.00,,CLR,0.00,VWS V14.01,2013-08-18 12:10:00,
2013-08-18 08:11:00,67.9,63.0,30.21,ESE,120,1.0,1.0,85,0.00,,,0.00,weatherlink.com 1.10,2013-08-18 12:11:00,
2013-08-18 08:12:00,68.4,63.4,30.21,East,89,1.0,1.0,84,0.00,,CLR,0.00,VWS V14.01,2013-08-18 12:12:00,
2013-08-18 08:13:00,68.4,63.0,30.21,East,89,0.0,1.0,83,0.00,,CLR,0.00,VWS V14.01,2013-08-18 12:13:00,
2013-08-18 08:14:00,68.4,63.0,30.21,East,89,0.0,1.0,83,0.00,,CLR,0.00,VWS V14.01,2013-08-18 12:14:00,
2013-08-18 08:15:00,68.5,63.5,30.21,ESE,117,1.0,2.0,84,0.00,,CLR,0.00,VWS V14.01,2013-08-18 12:15:00,
2013-08-18 08:16:00,68.5,62.8,30.21,SE,129,0.0,2.0,82,0.00,,CLR,0.00,VWS V14.01,2013-08-18 12:16:00,
2013-08-18 08:17:00,68.5,62.8,30.21,SE,124,1.0,2.0,82,0.00,,CLR,0.00,VWS V14.01,2013-08-18 12:17:00,
2013-08-18 08:18:00,68.5,63.1,30.21,ESE,105,0.0,2.0,83,0.00,,CLR,0.00,VWS V14.01,2013-08-18 12:18:00,
2013-08-18 08:19:00,68.6,63.2,30.21,East,101,0.0,1.0,83,0.00,,CLR,0.00,VWS V14.01,2013-08-18 12:19:00,
2013-08-18 08:20:00,68.7,63.3,30.21,East,98,0.0,1.0,83,0.00,,CLR,0.00,VWS V14.01,2013-08-18 12:20:00,
2013-08-18 08:21:00,68.8,63.4,30.21,East,98,0.0,1.0,83,0.00,,CLR,0.00,VWS V14.01,2013-08-18 12:21:00,
2013-08-18 08:22:00,68.9,63.5,30.21,SE,127,1.0,1.0,83,0.00,,CLR,0.00,VWS V14.01,2013-08-18 12:22:00,
2013-08-18 08:23:00,69.1,63.4,30.21,ESE,109,0.0,2.0,82,0.00,,CLR,0.00,VWS V14.01,2013-08-18 12:23:00,
2013-08-18 08:24:00,69.1,63.4,30.21,ESE,102,0.0,2.0,82,0.00,,CLR,0.00,VWS V14.01,2013-08-18 12:24:00,
2013-08-18 08:25:00,69.3,63.9,30.21,ESE,114,0.0,2.0,83,0.00,,CLR,0.00,VWS V14.01,2013-08-18 12:25:00,
2013-08-18 08:26:00,69.4,63.7,30.21,SW,226,0.0,2.0,82,0.00,,CLR,0.00,VWS V14.01,2013-08-18 12:26:00,
2013-08-18 08:27:00,68.2,63.0,30.21,ESE,113,0.0,2.0,84,0.00,,,0.00,weatherlink.com 1.10,2013-08-18 12:27:00,
2013-08-18 08:28:00,69.6,63.9,30.21,ESE,111,0.0,0.0,82,0.00,,CLR,0.00,VWS V14.01,2013-08-18 12:28:00,
2013-08-18 08:29:00,69.7,64.0,30.21,East,82,0.0,0.0,82,0.00,,CLR,0.00,VWS V14.01,2013-08-18 12:29:00,
2013-08-18 08:30:00,69.8,63.7,30.21,SE,141,1.0,1.0,81,0.00,,CLR,0.00,VWS V14.01,2013-08-18 12:30:00,
2013-08-18 08:31:00,69.8,63.0,30.21,ESE,118,1.0,2.0,79,0.00,,CLR,0.00,VWS V14.01,2013-08-18 12:31:00,
2013-08-18 08:32:00,69.8,62.6,30.21,ESE,118,0.0,2.0,78,0.00,,CLR,0.00,VWS V14.01,2013-08-18 12:32:00,
2013-08-18 08:33:00,69.9,63.1,30.21,ESE,118,0.0,2.0,79,0.00,,CLR,0.00,VWS V14.01,2013-08-18 12:33:00,
2013-08-18 08:34:00,69.9,63.1,30.21,ESE,120,0.0,1.0,79,0.00,,CLR,0.00,VWS V14.01,2013-08-18 12:34:00,
2013-08-18 08:35:00,70.0,63.2,30.21,East,95,0.0,1.0,79,0.00,,CLR,0.00,VWS V14.01,2013-08-18 12:35:00,
2013-08-18 08:36:00,70.1,62.9,30.21,East,95,0.0,1.0,78,0.00,,CLR,0.00,VWS V14.01,2013-08-18 12:36:00,
2013-08-18 08:37:00,70.1,62.9,30.21,East,95,0.0,1.0,78,0.00,,CLR,0.00,VWS V14.01,2013-08-18 12:37:00,
2013-08-18 08:38:00,70.2,63.0,30.21,East,87,1.0,1.0,78,0.00,,CLR,0.00,VWS V14.01,2013-08-18 12:38:00,
2013-08-18 08:39:00,70.1,62.9,30.21,ESE,111,2.0,2.0,78,0.00,,CLR,0.00,VWS V14.01,2013-08-18 12:39:00,
2013-08-18 08:40:00,70.1,62.9,30.21,ESE,122,0.0,2.0,78,0.00,,CLR,0.00,VWS V14.01,2013-08-18 12:40:00,
2013-08-18 08:41:00,70.0,62.8,30.21,ESE,122,0.0,2.0,78,0.00,,CLR,0.00,VWS V14.01,2013-08-18 12:41:00,
2013-08-18 08:42:00,70.0,63.2,30.21,ESE,120,0.0,2.0,79,0.00,,CLR,0.00,VWS V14.01,2013-08-18 12:42:00,
2013-08-18 08:43:00,70.1,63.7,30.21,ESE,108,0.0,0.0,80,0.00,,CLR,0.00,VWS V14.01,2013-08-18 12:43:00,
2013-08-18 08:44:00,70.2,63.8,30.21,ESE,108,0.0,0.0,80,0.00,,CLR,0.00,VWS V14.01,2013-08-18 12:44:00,
2013-08-18 08:45:00,68.5,63.0,30.21,East,98,1.0,2.0,83,0.00,,,0.00,weatherlink.com 1.10,2013-08-18 12:45:00,
2013-08-18 08:46:00,70.7,64.2,30.21,ESE,108,0.0,0.0,80,0.00,,CLR,0.00,VWS V14.01,2013-08-18 12:46:00,
2013-08-18 08:47:00,70.8,64.3,30.21,ESE,109,0.0,0.0,80,0.00,,CLR,0.00,VWS V14.01,2013-08-18 12:47:00,
2013-08-18 08:48:00,71.0,64.5,30.20,ESE,108,0.0,0.0,80,0.00,,CLR,0.00,VWS V14.01,2013-08-18 12:48:00,
2013-08-18 08:49:00,71.2,64.7,30.21,ESE,111,0.0,0.0,80,0.00,,CLR,0.00,VWS V14.01,2013-08-18 12:49:00,
2013-08-18 08:50:00,71.4,64.6,30.21,SE,141,1.0,1.0,79,0.00,,CLR,0.00,VWS V14.01,2013-08-18 12:50:00,
2013-08-18 08:51:00,71.5,64.3,30.21,SE,128,1.0,1.0,78,0.00,,CLR,0.00,VWS V14.01,2013-08-18 12:51:00,
2013-08-18 08:52:00,71.6,63.6,30.21,ESE,104,1.0,1.0,76,0.00,,CLR,0.00,VWS V14.01,2013-08-18 12:52:00,
2013-08-18 08:53:00,71.5,63.5,30.21,SE,127,1.0,2.0,76,0.00,,CLR,0.00,VWS V14.01,2013-08-18 12:53:00,
2013-08-18 08:54:00,71.5,63.9,30.21,ESE,104,0.0,2.0,77,0.00,,CLR,0.00,VWS V14.01,2013-08-18 12:54:00,
2013-08-18 08:55:00,71.4,63.8,30.21,ESE,105,1.0,2.0,77,0.00,,CLR,0.00,VWS V14.01,2013-08-18 12:55:00,
2013-08-18 08:56:00,71.4,63.8,30.21,East,82,1.0,2.0,77,0.00,,CLR,0.00,VWS V14.01,2013-08-18 12:56:00,
2013-08-18 08:57:00,71.4,64.2,30.21,East,82,0.0,1.0,78,0.00,,CLR,0.00,VWS V14.01,2013-08-18 12:57:00,
2013-08-18 08:58:00,71.4,64.2,30.21,East,96,0.0,1.0,78,0.00,,CLR,0.00,VWS V14.01,2013-08-18 12:58:00,
2013-08-18 08:59:00,71.4,64.2,30.21,East,93,0.0,1.0,78,0.00,,CLR,0.00,VWS V14.01,2013-08-18 12:59:00,
2013-08-18 09:00:00,71.5,64.3,30.21,ESE,109,1.0,1.0,78,0.00,,CLR,0.00,VWS V14.01,2013-08-18 13:00:00,
2013-08-18 09:01:00,69.9,63.0,30.21,ESE,111,1.0,2.0,79,0.00,,,0.00,weatherlink.com 1.10,2013-08-18 13:01:00,
2013-08-18 09:02:00,71.6,64.4,30.20,ESE,117,0.0,1.0,78,0.00,,CLR,0.00,VWS V14.01,2013-08-18 13:02:00,
2013-08-18 09:03:00,71.7,64.5,30.20,ESE,110,0.0,1.0,78,0.00,,CLR,0.00,VWS V14.01,2013-08-18 13:03:00,
2013-08-18 09:04:00,71.7,64.1,30.20,ESE,110,0.0,1.0,77,0.00,,CLR,0.00,VWS V14.01,2013-08-18 13:04:00,
2013-08-18 09:05:00,71.8,64.6,30.20,ESE,110,0.0,1.0,78,0.00,,CLR,0.00,VWS V14.01,2013-08-18 13:05:00,
2013-08-18 09:06:00,71.9,64.7,30.20,ESE,110,0.0,1.0,78,0.00,,CLR,0.00,VWS V14.01,2013-08-18 13:06:00,
2013-08-18 09:07:00,71.9,64.7,30.20,SSE,153,1.0,1.0,78,0.00,,CLR,0.00,VWS V14.01,2013-08-18 13:07:00,
2013-08-18 09:08:00,71.9,63.5,30.20,SE,129,1.0,3.0,75,0.00,,CLR,0.00,VWS V14.01,2013-08-18 13:08:00,
2013-08-18 09:09:00,71.8,63.5,30.20,East,91,0.0,3.0,75,0.00,,CLR,0.00,VWS V14.01,2013-08-18 13:09:00,
2013-08-18 09:10:00,71.8,63.8,30.20,East,91,1.0,3.0,76,0.00,,CLR,0.00,VWS V14.01,2013-08-18 13:10:00,
2013-08-18 09:11:00,71.8,64.2,30.20,ESE,114,1.0,3.0,77,0.00,,CLR,0.00,VWS V14.01,2013-08-18 13:11:00,
2013-08-18 09:12:00,71.8,63.8,30.20,ESE,122,3.0,3.0,76,0.00,,CLR,0.00,VWS V14.01,2013-08-18 13:12:00,
2013-08-18 09:13:00,71.9,63.9,30.20,SSE,159,1.0,3.0,76,0.00,,CLR,0.00,VWS V14.01,2013-08-18 13:13:00,
2013-08-18 09:14:00,72.0,64.4,30.20,ESE,106,1.0,3.0,77,0.00,,CLR,0.00,VWS V14.01,2013-08-18 13:14:00,
2013-08-18 09:15:00,72.0,64.0,30.20,ESE,109,1.0,3.0,76,0.00,,CLR,0.00,VWS V14.01,2013-08-18 13:15:00,
2013-08-18 09:16:00,72.0,64.0,30.20,East,91,1.0,2.0,76,0.00,,CLR,0.00,VWS V14.01,2013-08-18 13:16:00,
2013-08-18 09:17:00,71.5,64.0,30.21,ESE,116,2.0,2.0,78,0.00,,,0.00,weatherlink.com 1.10,2013-08-18 13:17:00,
2013-08-18 09:18:00,72.0,63.7,30.20,East,100,3.0,3.0,75,0.00,,CLR,0.00,VWS V14.01,2013-08-18 13:18:00,
2013-08-18 09:19:00,71.9,63.5,30.20,East,100,1.0,3.0,75,0.00,,CLR,0.00,VWS V14.01,2013-08-18 13:19:00,
2013-08-18 09:20:00,72.0,64.0,30.20,ESE,103,1.0,3.0,76,0.00,,CLR,0.00,VWS V14.01,2013-08-18 13:20:00,
2013-08-18 09:21:00,72.0,64.0,30.20,SSE,166,2.0,3.0,76,0.00,,CLR,0.00,VWS V14.01,2013-08-18 13:21:00,
2013-08-18 09:22:00,72.0,62.5,30.20,ESE,110,1.0,2.0,72,0.00,,CLR,0.00,VWS V14.01,2013-08-18 13:22:00,
2013-08-18 09:23:00,72.0,63.3,30.20,SE,130,0.0,2.0,74,0.00,,CLR,0.00,VWS V14.01,2013-08-18 13:23:00,
2013-08-18 09:24:00,72.0,63.3,30.20,SE,130,0.0,2.0,74,0.00,,CLR,0.00,VWS V14.01,2013-08-18 13:24:00,
2013-08-18 09:25:00,72.0,63.3,30.20,SE,129,0.0,1.0,74,0.00,,CLR,0.00,VWS V14.01,2013-08-18 13:25:00,
2013-08-18 09:26:00,72.0,63.3,30.20,SE,129,0.0,1.0,74,0.00,,CLR,0.00,VWS V14.01,2013-08-18 13:26:00,
2013-08-18 09:27:00,72.0,63.7,30.20,SE,129,0.0,1.0,75,0.00,,CLR,0.00,VWS V14.01,2013-08-18 13:27:00,
2013-08-18 09:28:00,72.1,63.8,30.20,East,101,0.0,1.0,75,0.00,,CLR,0.00,VWS V14.01,2013-08-18 13:28:00,
2013-08-18 09:29:00,72.2,64.2,30.20,East,98,0.0,1.0,76,0.00,,CLR,0.00,VWS V14.01,2013-08-18 13:29:00,
2013-08-18 09:30:00,72.2,64.2,30.20,East,101,0.0,1.0,76,0.00,,CLR,0.00,VWS V14.01,2013-08-18 13:30:00,
2013-08-18 09:31:00,72.3,63.9,30.20,NE,34,0.0,1.0,75,0.00,,CLR,0.00,VWS V14.01,2013-08-18 13:31:00,
2013-08-18 09:32:00,72.3,63.9,30.20,NE,34,0.0,1.0,75,0.00,,CLR,0.00,VWS V14.01,2013-08-18 13:32:00,
2013-08-18 09:33:00,72.3,63.6,30.20,East,97,1.0,2.0,74,0.00,,CLR,0.00,VWS V14.01,2013-08-18 13:33:00,
2013-08-18 09:34:00,72.0,64.0,30.20,ESE,117,2.0,3.0,75,0.00,,,0.00,weatherlink.com 1.10,2013-08-18 13:34:00,
2013-08-18 09:35:00,72.3,63.9,30.20,East,99,1.0,2.0,75,0.00,,CLR,0.00,VWS V14.01,2013-08-18 13:35:00,
2013-08-18 09:36:00,72.4,64.4,30.20,East,94,0.0,2.0,76,0.00,,CLR,0.00,VWS V14.01,2013-08-18 13:36:00,
2013-08-18 09:37:00,72.6,64.6,30.20,East,97,0.0,1.0,76,0.00,,CLR,0.00,VWS V14.01,2013-08-18 13:37:00,
2013-08-18 09:38:00,72.7,64.3,30.20,East,97,0.0,1.0,75,0.00,,CLR,0.00,VWS V14.01,2013-08-18 13:38:00,
2013-08-18 09:39:00,72.8,64.4,30.20,East,93,1.0,2.0,75,0.00,,CLR,0.00,VWS V14.01,2013-08-18 13:39:00,
2013-08-18 09:40:00,72.9,64.5,30.20,SE,126,2.0,2.0,75,0.00,,CLR,0.00,VWS V14.01,2013-08-18 13:40:00,
2013-08-18 09:41:00,72.9,64.9,30.20,SE,125,0.0,2.0,76,0.00,,CLR,0.00,VWS V14.01,2013-08-18 13:41:00,
2013-08-18 09:42:00,73.0,64.6,30.20,SE,125,0.0,2.0,75,0.00,,CLR,0.00,VWS V14.01,2013-08-18 13:42:00,
2013-08-18 09:43:00,73.1,64.7,30.20,East,99,1.0,2.0,75,0.00,,CLR,0.00,VWS V14.01,2013-08-18 13:43:00,
2013-08-18 09:44:00,73.2,65.2,30.20,East,97,0.0,1.0,76,0.00,,CLR,0.00,VWS V14.01,2013-08-18 13:44:00,
2013-08-18 09:45:00,73.4,65.4,30.20,SSE,148,2.0,3.0,76,0.00,,CLR,0.00,VWS V14.01,2013-08-18 13:45:00,
2013-08-18 09:46:00,73.5,64.7,30.20,ESE,121,2.0,3.0,74,0.00,,CLR,0.00,VWS V14.01,2013-08-18 13:46:00,
2013-08-18 09:47:00,73.5,64.3,30.20,SE,128,1.0,3.0,73,0.00,,CLR,0.00,VWS V14.01,2013-08-18 13:47:00,
2013-08-18 09:48:00,73.5,64.3,30.20,ESE,122,0.0,3.0,73,0.00,,CLR,0.00,VWS V14.01,2013-08-18 13:48:00,
2013-08-18 09:49:00,73.6,64.4,30.20,ESE,122,0.0,2.0,73,0.00,,CLR,0.00,VWS V14.01,2013-08-18 13:49:00,
2013-08-18 09:50:00,72.0,63.0,30.20,SE,129,0.0,3.0,74,0.00,,,0.00,weatherlink.com 1.10,2013-08-18 13:50:00,
2013-08-18 09:51:00,73.8,65.0,30.20,SSE,166,2.0,3.0,74,0.00,,CLR,0.00,VWS V14.01,2013-08-18 13:51:00,
2013-08-18 09:52:00,73.9,65.1,30.20,SE,128,1.0,3.0,74,0.00,,CLR,0.00,VWS V14.01,2013-08-18 13:52:00,
2013-08-18 09:53:00,74.0,65.2,30.20,SE,124,0.0,3.0,74,0.00,,CLR,0.00,VWS V14.01,2013-08-18 13:53:00,
2013-08-18 09:54:00,74.1,65.7,30.20,SE,124,0.0,3.0,75,0.00,,CLR,0.00,VWS V14.01,2013-08-18 13:54:00,
2013-08-18 09:55:00,74.2,65.4,30.20,East,92,0.0,1.0,74,0.00,,CLR,0.00,VWS V14.01,2013-08-18 13:55:00,
2013-08-18 09:56:00,74.2,65.4,30.20,ESE,111,1.0,2.0,74,0.00,,CLR,0.00,VWS V14.01,2013-08-18 13:56:00,
2013-08-18 09:57:00,74.3,65.1,30.20,ESE,111,0.0,2.0,73,0.00,,CLR,0.00,VWS V14.01,2013-08-18 13:57:00,
2013-08-18 09:58:00,74.4,65.2,30.20,ESE,105,0.0,2.0,73,0.00,,CLR,0.00,VWS V14.01,2013-08-18 13:58:00,
2013-08-18 09:59:00,74.5,65.3,30.20,ESE,116,2.0,3.0,73,0.00,,CLR,0.00,VWS V14.01,2013-08-18 13:59:00,
2013-08-18 10:00:00,74.4,64.8,30.20,ESE,115,2.0,3.0,72,0.00,,CLR,0.00,VWS V14.01,2013-08-18 14:00:00,
2013-08-18 10:01:00,74.3,64.7,30.20,SSE,163,2.0,3.0,72,0.00,,CLR,0.00,VWS V14.01,2013-08-18 14:01:00,
2013-08-18 10:02:00,74.3,65.5,30.20,East,101,2.0,3.0,74,0.00,,CLR,0.00,VWS V14.01,2013-08-18 14:02:00,
2013-08-18 10:03:00,74.4,65.6,30.20,SE,124,1.0,3.0,74,0.00,,CLR,0.00,VWS V14.01,2013-08-18 14:03:00,
2013-08-18 10:04:00,74.6,65.4,30.20,SE,130,0.0,3.0,73,0.00,,CLR,0.00,VWS V14.01,2013-08-18 14:04:00,
2013-08-18 10:05:00,74.8,65.6,30.20,SE,137,2.0,3.0,73,0.00,,CLR,0.00,VWS V14.01,2013-08-18 14:05:00,
2013-08-18 10:06:00,72.9,65.0,30.20,SE,125,1.0,2.0,75,0.00,,,0.00,weatherlink.com 1.10,2013-08-18 14:06:00,
2013-08-18 10:07:00,75.1,65.5,30.20,SE,129,1.0,2.0,72,0.00,,CLR,0.00,VWS V14.01,2013-08-18 14:07:00,
2013-08-18 10:08:00,75.2,65.2,30.20,ESE,103,2.0,2.0,71,0.00,,CLR,0.00,VWS V14.01,2013-08-18 14:08:00,
2013-08-18 10:09:00,75.3,65.7,30.20,ESE,122,1.0,2.0,72,0.00,,CLR,0.00,VWS V14.01,2013-08-18 14:09:00,
2013-08-18 10:10:00,75.4,65.3,30.20,SE,132,0.0,2.0,71,0.00,,CLR,0.00,VWS V14.01,2013-08-18 14:10:00,
2013-08-18 10:11:00,75.5,64.6,30.20,SE,127,1.0,2.0,69,0.00,,CLR,0.00,VWS V14.01,2013-08-18 14:11:00,
2013-08-18 10:12:00,75.5,65.0,30.20,ESE,118,0.0,2.0,70,0.00,,CLR,0.00,VWS V14.01,2013-08-18 14:12:00,
2013-08-18 10:13:00,75.7,65.6,30.20,ESE,120,0.0,1.0,71,0.00,,CLR,0.00,VWS V14.01,2013-08-18 14:13:00,
2013-08-18 10:14:00,75.9,66.2,30.20,East,93,0.0,1.0,72,0.00,,CLR,0.00,VWS V14.01,2013-08-18 14:14:00,
2013-08-18 10:15:00,76.0,65.9,30.20,East,98,0.0,1.0,71,0.00,,CLR,0.00,VWS V14.01,2013-08-18 14:15:00,
2013-08-18 10:16:00,76.1,66.0,30.20,East,99,0.0,1.0,71,0.00,,CLR,0.00,VWS V14.01,2013-08-18 14:16:00,
2013-08-18 10:17:00,76.3,65.4,30.20,East,98,0.0,1.0,69,0.00,,CLR,0.00,VWS V14.01,2013-08-18 14:17:00,
2013-08-18 10:18:00,76.3,65.4,30.20,East,98,0.0,1.0,69,0.00,,CLR,0.00,VWS V14.01,2013-08-18 14:18:00,
2013-08-18 10:19:00,76.4,65.5,30.20,West,264,1.0,1.0,69,0.00,,CLR,0.00,VWS V14.01,2013-08-18 14:19:00,
2013-08-18 10:20:00,76.5,65.2,30.20,North,11,0.0,1.0,68,0.00,,CLR,0.00,VWS V14.01,2013-08-18 14:20:00,
2013-08-18 10:21:00,76.5,65.6,30.20,North,8,0.0,1.0,69,0.00,,CLR,0.00,VWS V14.01,2013-08-18 14:21:00,
2013-08-18 10:22:00,76.6,66.1,30.20,North,8,0.0,1.0,70,0.00,,CLR,0.00,VWS V14.01,2013-08-18 14:22:00,
2013-08-18 10:23:00,74.3,65.0,30.20,ESE,111,0.0,3.0,73,0.00,,,0.00,weatherlink.com 1.10,2013-08-18 14:23:00,
2013-08-18 10:24:00,76.7,66.6,30.20,North,9,0.0,0.0,71,0.00,,CLR,0.00,VWS V14.01,2013-08-18 14:24:00,
2013-08-18 10:25:00,76.8,66.3,30.20,NNE,13,0.0,0.0,70,0.00,,CLR,0.00,VWS V14.01,2013-08-18 14:25:00,
2013-08-18 10:26:00,76.9,66.4,30.20,NNE,13,0.0,0.0,70,0.00,,CLR,0.00,VWS V14.01,2013-08-18 14:26:00,
2013-08-18 10:27:00,77.0,66.5,30.20,North,11,0.0,0.0,70,0.00,,CLR,0.00,VWS V14.01,2013-08-18 14:27:00,
2013-08-18 10:28:00,77.1,66.6,30.20,East,93,1.0,1.0,70,0.00,,CLR,0.00,VWS V14.01,2013-08-18 14:28:00,
2013-08-18 10:29:00,77.3,65.9,30.20,ESE,120,1.0,1.0,68,0.00,,CLR,0.00,VWS V14.01,2013-08-18 14:29:00,
2013-08-18 10:30:00,77.4,65.6,30.20,ESE,121,0.0,1.0,67,0.00,,CLR,0.00,VWS V14.01,2013-08-18 14:30:00,
2013-08-18 10:31:00,77.5,65.7,30.20,SSE,151,0.0,1.0,67,0.00,,CLR,0.00,VWS V14.01,2013-08-18 14:31:00,
2013-08-18 10:32:00,77.7,65.4,30.20,SE,128,1.0,2.0,66,0.00,,CLR,0.00,VWS V14.01,2013-08-18 14:32:00,
2013-08-18 10:33:00,77.8,66.0,30.20,East,90,1.0,2.0,67,0.00,,CLR,0.00,VWS V14.01,2013-08-18 14:33:00,
2013-08-18 10:34:00,77.8,66.4,30.20,East,91,0.0,2.0,68,0.00,,CLR,0.00,VWS V14.01,2013-08-18 14:34:00,
2013-08-18 10:35:00,77.9,65.6,30.19,ESE,111,1.0,2.0,66,0.00,,CLR,0.00,VWS V14.01,2013-08-18 14:35:00,
2013-08-18 10:36:00,78.1,66.3,30.19,SSE,158,0.0,1.0,67,0.00,,CLR,0.00,VWS V14.01,2013-08-18 14:36:00,
2013-08-18 10:37:00,78.3,66.4,30.19,ESE,112,2.0,2.0,67,0.00,,CLR,0.00,VWS V14.01,2013-08-18 14:37:00,
2013-08-18 10:38:00,78.5,66.2,30.19,East,84,1.0,3.0,66,0.00,,CLR,0.00,VWS V14.01,2013-08-18 14:38:00,
2013-08-18 10:39:00,78.7,66.8,30.19,ESE,117,3.0,3.0,67,0.00,,CLR,0.00,VWS V14.01,2013-08-18 14:39:00,
2013-08-18 10:40:00,75.9,66.0,30.20,East,93,0.0,3.0,72,0.00,,,0.00,weatherlink.com 1.10,2013-08-18 14:40:00,
2013-08-18 10:41:00,78.9,67.0,30.19,ESE,108,2.0,3.0,67,0.00,,CLR,0.00,VWS V14.01,2013-08-18 14:41:00,
2013-08-18 10:42:00,78.9,65.7,30.19,SE,136,1.0,3.0,64,0.00,,CLR,0.00,VWS V14.01,2013-08-18 14:42:00,
2013-08-18 10:43:00,78.9,65.7,30.19,East,97,2.0,3.0,64,0.00,,CLR,0.00,VWS V14.01,2013-08-18 14:43:00,
2013-08-18 10:44:00,78.9,65.7,30.19,East,84,3.0,3.0,64,0.00,,CLR,0.00,VWS V14.01,2013-08-18 14:44:00,
2013-08-18 10:45:00,78.8,65.6,30.19,SE,127,2.0,3.0,64,0.00,,CLR,0.00,VWS V14.01,2013-08-18 14:45:00,
2013-08-18 10:46:00,78.8,66.1,30.19,SW,219,1.0,3.0,65,0.00,,CLR,0.00,VWS V14.01,2013-08-18 14:46:00,
2013-08-18 10:47:00,78.7,66.0,30.19,East,82,1.0,3.0,65,0.00,,CLR,0.00,VWS V14.01,2013-08-18 14:47:00,
2013-08-18 10:48:00,78.7,65.5,30.19,East,82,0.0,3.0,64,0.00,,CLR,0.00,VWS V14.01,2013-08-18 14:48:00,
2013-08-18 10:49:00,78.6,65.4,30.19,East,89,0.0,2.0,64,0.00,,CLR,0.00,VWS V14.01,2013-08-18 14:49:00,
2013-08-18 10:50:00,78.6,66.3,30.19,East,89,0.0,1.0,66,0.00,,CLR,0.00,VWS V14.01,2013-08-18 14:50:00,
2013-08-18 10:51:00,78.6,66.7,30.19,SSE,165,1.0,2.0,67,0.00,,CLR,0.00,VWS V14.01,2013-08-18 14:51:00,
2013-08-18 10:52:00,78.6,66.3,30.19,SSE,165,0.0,2.0,66,0.00,,CLR,0.00,VWS V14.01,2013-08-18 14:52:00,
2013-08-18 10:53:00,78.6,65.4,30.19,West,262,0.0,2.0,64,0.00,,CLR,0.00,VWS V14.01,2013-08-18 14:53:00,
2013-08-18 10:54:00,78.6,65.9,30.19,West,276,0.0,2.0,65,0.00,,CLR,0.00,VWS V14.01,2013-08-18 14:54:00,
2013-08-18 10:55:00,78.5,65.8,30.19,SSE,151,0.0,0.0,65,0.00,,CLR,0.00,VWS V14.01,2013-08-18 14:55:00,
2013-08-18 10:56:00,77.5,66.0,30.20,SSE,154,1.0,2.0,67,0.00,,,0.00,weatherlink.com 1.10,2013-08-18 14:56:00,
2013-08-18 10:57:00,78.7,66.0,30.19,SE,126,2.0,2.0,65,0.00,,CLR,0.00,VWS V14.01,2013-08-18 14:57:00,
2013-08-18 10:58:00,78.8,65.6,30.19,ESE,117,5.0,5.0,64,0.00,,CLR,0.00,VWS V14.01,2013-08-18 14:58:00,
2013-08-18 10:59:00,78.8,65.2,30.19,SE,132,3.0,5.0,63,0.00,,CLR,0.00,VWS V14.01,2013-08-18 14:59:00,
2013-08-18 11:00:00,78.9,65.7,30.19,SSW,207,1.0,5.0,64,0.00,,CLR,0.00,VWS V14.01,2013-08-18 15:00:00,
2013-08-18 11:01:00,79.0,66.7,30.19,SSW,208,0.0,5.0,66,0.00,,CLR,0.00,VWS V14.01,2013-08-18 15:01:00,
2013-08-18 11:02:00,79.0,65.8,30.19,NW,307,0.0,3.0,64,0.00,,CLR,0.00,VWS V14.01,2013-08-18 15:02:00,
2013-08-18 11:03:00,79.0,65.3,30.19,West,277,0.0,1.0,63,0.00,,CLR,0.00,VWS V14.01,2013-08-18 15:03:00,
2013-08-18 11:04:00,79.0,65.8,30.19,West,277,0.0,1.0,64,0.00,,CLR,0.00,VWS V14.01,2013-08-18 15:04:00,
2013-08-18 11:05:00,79.0,66.2,30.19,West,278,0.0,1.0,65,0.00,,CLR,0.00,VWS V14.01,2013-08-18 15:05:00,
2013-08-18 11:06:00,79.0,66.2,30.19,NE,47,2.0,2.0,65,0.00,,CLR,0.00,VWS V14.01,2013-08-18 15:06:00,
2013-08-18 11:07:00,79.0,65.8,30.19,ENE,65,0.0,2.0,64,0.00,,CLR,0.00,VWS V14.01,2013-08-18 15:07:00,
2013-08-18 11:08:00,79.0,66.2,30.19,ENE,75,0.0,2.0,65,0.00,,CLR,0.00,VWS V14.01,2013-08-18 15:08:00,
2013-08-18 11:09:00,79.1,65.4,30.19,East,79,1.0,2.0,63,0.00,,CLR,0.00,VWS V14.01,2013-08-18 15:09:00,
2013-08-18 11:10:00,79.1,66.8,30.19,East,82,1.0,2.0,66,0.00,,CLR,0.00,VWS V14.01,2013-08-18 15:10:00,
2013-08-18 11:11:00,79.1,66.8,30.19,SSE,151,0.0,2.0,66,0.00,,CLR,0.00,VWS V14.01,2013-08-18 15:11:00,
2013-08-18 11:12:00,78.8,66.0,30.19,SW,222,1.0,4.0,65,0.00,,,0.00,weatherlink.com 1.10,2013-08-18 15:12:00,
2013-08-18 11:13:00,79.3,66.5,30.19,ESE,105,1.0,1.0,65,0.00,,CLR,0.00,VWS V14.01,2013-08-18 15:13:00,
2013-08-18 11:14:00,79.3,66.1,30.19,SE,131,2.0,2.0,64,0.00,,CLR,0.00,VWS V14.01,2013-08-18 15:14:00,
2013-08-18 11:15:00,79.4,66.6,30.19,SE,131,1.0,2.0,65,0.00,,CLR,0.00,VWS V14.01,2013-08-18 15:15:00,
2013-08-18 11:16:00,79.6,66.4,30.19,East,91,0.0,2.0,64,0.00,,CLR,0.00,VWS V14.01,2013-08-18 15:16:00,
2013-08-18 11:17:00,79.7,66.9,30.19,SE,141,0.0,2.0,65,0.00,,CLR,0.00,VWS V14.01,2013-08-18 15:17:00,
2013-08-18 11:18:00,79.9,67.1,30.19,East,82,1.0,2.0,65,0.00,,CLR,0.00,VWS V14.01,2013-08-18 15:18:00,
2013-08-18 11:19:00,80.0,67.6,30.18,South,180,0.0,2.0,66,0.00,,CLR,0.00,VWS V14.01,2013-08-18 15:19:00,
2013-08-18 11:20:00,80.1,67.3,30.18,South,183,0.0,2.0,65,0.00,,CLR,0.00,VWS V14.01,2013-08-18 15:20:00,
2013-08-18 11:21:00,80.1,66.4,30.18,SSW,210,0.0,2.0,63,0.00,,CLR,0.00,VWS V14.01,2013-08-18 15:21:00,
2013-08-18 11:22:00,80.1,65.4,30.18,SSW,211,0.0,1.0,61,0.00,,CLR,0.00,VWS V14.01,2013-08-18 15:22:00,
2013-08-18 11:23:00,80.1,65.4,30.18,SSW,210,0.0,0.0,61,0.00,,CLR,0.00,VWS V14.01,2013-08-18 15:23:00,
2013-08-18 11:24:00,80.2,65.1,30.18,SSE,156,0.0,1.0,60,0.00,,CLR,0.00,VWS V14.01,2013-08-18 15:24:00,
2013-08-18 11:25:00,80.2,65.1,30.18,SSE,157,0.0,1.0,60,0.00,,CLR,0.00,VWS V14.01,2013-08-18 15:25:00,
2013-08-18 11:26:00,80.2,65.1,30.18,SE,146,1.0,2.0,60,0.00,,CLR,0.00,VWS V14.01,2013-08-18 15:26:00,
2013-08-18 11:27:00,80.2,64.6,30.18,East,101,0.0,2.0,59,0.00,,CLR,0.00,VWS V14.01,2013-08-18 15:27:00,
2013-08-18 11:28:00,80.2,63.1,30.18,SE,139,1.0,2.0,56,0.00,,CLR,0.00,VWS V14.01,2013-08-18 15:28:00,
2013-08-18 11:29:00,79.0,66.0,30.19,West,277,0.0,4.0,64,0.00,,,0.00,weatherlink.com 1.10,2013-08-18 15:29:00,
2013-08-18 11:30:00,80.1,65.0,30.18,SE,128,1.0,2.0,60,0.00,,CLR,0.00,VWS V14.01,2013-08-18 15:30:00,
2013-08-18 11:31:00,80.1,64.5,30.18,ESE,117,2.0,2.0,59,0.00,,CLR,0.00,VWS V14.01,2013-08-18 15:31:00,
2013-08-18 11:32:00,80.0,63.4,30.18,SSE,148,2.0,2.0,57,0.00,,CLR,0.00,VWS V14.01,2013-08-18 15:32:00,
2013-08-18 11:33:00,80.0,63.4,30.18,SE,143,1.0,2.0,57,0.00,,CLR,0.00,VWS V14.01,2013-08-18 15:33:00,
2013-08-18 11:34:00,79.9,64.3,30.18,SSE,151,1.0,3.0,59,0.00,,CLR,0.00,VWS V14.01,2013-08-18 15:34:00,
2013-08-18 11:35:00,79.9,65.3,30.18,SE,143,1.0,3.0,61,0.00,,CLR,0.00,VWS V14.01,2013-08-18 15:35:00,
2013-08-18 11:36:00,80.0,64.9,30.18,East,100,0.0,3.0,60,0.00,,CLR,0.00,VWS V14.01,2013-08-18 15:36:00,
2013-08-18 11:37:00,80.1,65.4,30.18,ENE,77,2.0,2.0,61,0.00,,CLR,0.00,VWS V14.01,2013-08-18 15:37:00,
2013-08-18 11:38:00,80.1,63.5,30.18,SE,138,2.0,3.0,57,0.00,,CLR,0.00,VWS V14.01,2013-08-18 15:38:00,
2013-08-18 11:39:00,80.0,63.4,30.18,ESE,111,1.0,3.0,57,0.00,,CLR,0.00,VWS V14.01,2013-08-18 15:39:00,
2013-08-18 11:40:00,80.0,64.4,30.18,South,174,1.0,3.0,59,0.00,,CLR,0.00,VWS V14.01,2013-08-18 15:40:00,
2013-08-18 11:41:00,80.0,65.4,30.17,ESE,108,0.0,3.0,61,0.00,,CLR,0.00,VWS V14.01,2013-08-18 15:41:00,
2013-08-18 11:42:00,80.1,65.0,30.18,ESE,108,1.0,3.0,60,0.00,,CLR,0.00,VWS V14.01,2013-08-18 15:42:00,
2013-08-18 11:43:00,80.0,65.8,30.17,ESE,111,0.0,1.0,62,0.00,,CLR,0.00,VWS V14.01,2013-08-18 15:43:00,
2013-08-18 11:44:00,80.0,65.8,30.17,ESE,112,0.0,1.0,62,0.00,,CLR,0.00,VWS V14.01,2013-08-18 15:44:00,
2013-08-18 11:45:00,79.9,64.8,30.17,SE,134,0.0,1.0,60,0.00,,CLR,0.00,VWS V14.01,2013-08-18 15:45:00,
2013-08-18 11:46:00,80.1,67.0,30.18,South,181,0.0,3.0,65,0.00,,,0.00,weatherlink.com 1.10,2013-08-18 15:46:00,
2013-08-18 11:47:00,79.8,64.7,30.17,SE,134,0.0,0.0,60,0.00,,CLR,0.00,VWS V14.01,2013-08-18 15:47:00,
2013-08-18 11:48:00,79.8,65.2,30.18,ESE,121,0.0,1.0,61,0.00,,CLR,0.00,VWS V14.01,2013-08-18 15:48:00,
2013-08-18 11:49:00,79.8,65.2,30.17,SE,131,0.0,1.0,61,0.00,,CLR,0.00,VWS V14.01,2013-08-18 15:49:00,
2013-08-18 11:50:00,79.7,64.6,30.18,SE,131,0.0,1.0,60,0.00,,CLR,0.00,VWS V14.01,2013-08-18 15:50:00,
2013-08-18 11:51:00,79.7,63.6,30.18,ESE,113,0.0,1.0,58,0.00,,CLR,0.00,VWS V14.01,2013-08-18 15:51:00,
2013-08-18 11:52:00,79.7,63.6,30.18,SE,124,0.0,1.0,58,0.00,,CLR,0.00,VWS V14.01,2013-08-18 15:52:00,
2013-08-18 11:53:00,79.7,64.6,30.17,SE,143,0.0,1.0,60,0.00,,CLR,0.00,VWS V14.01,2013-08-18 15:53:00,
2013-08-18 11:54:00,79.7,64.1,30.17,SE,129,0.0,1.0,59,0.00,,CLR,0.00,VWS V14.01,2013-08-18 15:54:00,
2013-08-18 11:55:00,79.7,65.1,30.17,NNE,32,0.0,1.0,61,0.00,,CLR,0.00,VWS V14.01,2013-08-18 15:55:00,
2013-08-18 11:56:00,79.6,65.0,30.17,ENE,63,0.0,1.0,61,0.00,,CLR,0.00,VWS V14.01,2013-08-18 15:56:00,
2013-08-18 11:57:00,79.5,64.9,30.17,SE,141,1.0,1.0,61,0.00,,CLR,0.00,VWS V14.01,2013-08-18 15:57:00,
2013-08-18 11:58:00,79.4,64.3,30.17,SSE,156,0.0,1.0,60,0.00,,CLR,0.00,VWS V14.01,2013-08-18 15:58:00,
2013-08-18 11:59:00,79.4,64.3,30.17,East,94,1.0,1.0,60,0.00,,CLR,0.00,VWS V14.01,2013-08-18 15:59:00,
2013-08-18 12:00:00,79.4,65.3,30.17,East,97,1.0,1.0,62,0.00,,CLR,0.00,VWS V14.01,2013-08-18 16:00:00,
2013-08-18 12:01:00,79.3,64.7,30.17,East,98,0.0,1.0,61,0.00,,CLR,0.00,VWS V14.01,2013-08-18 16:01:00,
2013-08-18 12:02:00,80.0,65.0,30.18,East,100,0.0,3.0,60,0.00,,,0.00,weatherlink.com 1.10,2013-08-18 16:02:00,
2013-08-18 12:03:00,79.3,65.2,30.17,SE,126,1.0,2.0,62,0.00,,CLR,0.00,VWS V14.01,2013-08-18 16:03:00,
2013-08-18 12:04:00,79.3,65.2,30.17,SE,128,1.0,2.0,62,0.00,,CLR,0.00,VWS V14.01,2013-08-18 16:04:00,
2013-08-18 12:05:00,79.3,65.2,30.17,ESE,104,0.0,2.0,62,0.00,,CLR,0.00,VWS V14.01,2013-08-18 16:05:00,
2013-08-18 12:06:00,79.3,66.1,30.17,SE,136,2.0,2.0,64,0.00,,CLR,0.00,VWS V14.01,2013-08-18 16:06:00,
2013-08-18 12:07:00,79.3,65.2,30.17,ESE,115,1.0,2.0,62,0.00,,CLR,0.00,VWS V14.01,2013-08-18 16:07:00,
2013-08-18 12:08:00,79.3,65.6,30.17,SE,138,0.0,2.0,63,0.00,,CLR,0.00,VWS V14.01,2013-08-18 16:08:00,
2013-08-18 12:09:00,79.4,66.2,30.17,SE,138,0.0,2.0,64,0.00,,CLR,0.00,VWS V14.01,2013-08-18 16:09:00,
2013-08-18 12:10:00,79.4,66.2,30.17,SE,139,0.0,1.0,64,0.00,,CLR,0.00,VWS V14.01,2013-08-18 16:10:00,
2013-08-18 12:11:00,79.3,65.2,30.17,SSE,149,1.0,1.0,62,0.00,,CLR,0.00,VWS V14.01,2013-08-18 16:11:00,
2013-08-18 12:12:00,79.3,65.2,30.17,SSE,149,0.0,1.0,62,0.00,,CLR,0.00,VWS V14.01,2013-08-18 16:12:00,
2013-08-18 12:13:00,79.2,64.6,30.17,SSE,149,0.0,1.0,61,0.00,,CLR,0.00,VWS V14.01,2013-08-18 16:13:00,
2013-08-18 12:14:00,79.1,64.5,30.17,South,169,1.0,1.0,61,0.00,,CLR,0.00,VWS V14.01,2013-08-18 16:14:00,
2013-08-18 12:15:00,79.0,65.3,30.17,South,169,0.0,1.0,63,0.00,,CLR,0.00,VWS V14.01,2013-08-18 16:15:00,
2013-08-18 12:16:00,78.9,64.8,30.17,SSE,152,0.0,1.0,62,0.00,,CLR,0.00,VWS V14.01,2013-08-18 16:16:00,
2013-08-18 12:17:00,78.9,64.8,30.17,South,170,0.0,1.0,62,0.00,,CLR,0.00,VWS V14.01,2013-08-18 16:17:00,
2013-08-18 12:18:00,79.7,64.0,30.18,SE,141,1.0,1.0,58,0.00,,,0.00,weatherlink.com 1.10,2013-08-18 16:18:00,
2013-08-18 12:19:00,78.8,65.2,30.17,SSE,165,1.0,1.0,63,0.00,,CLR,0.00,VWS V14.01,2013-08-18 16:19:00,
2013-08-18 12:20:00,78.8,64.2,30.17,SE,132,1.0,1.0,61,0.00,,CLR,0.00,VWS V14.01,2013-08-18 16:20:00,
2013-08-18 12:21:00,78.8,64.2,30.17,SE,125,2.0,2.0,61,0.00,,CLR,0.00,VWS V14.01,2013-08-18 16:21:00,
2013-08-18 12:22:00,78.7,63.7,30.17,SSE,153,1.0,3.0,60,0.00,,CLR,0.00,VWS V14.01,2013-08-18 16:22:00,
2013-08-18 12:23:00,78.8,65.2,30.17,SSE,166,1.0,4.0,63,0.00,,CLR,0.00,VWS V14.01,2013-08-18 16:23:00,
2013-08-18 12:24:00,78.8,65.2,30.17,ESE,120,3.0,4.0,63,0.00,,CLR,0.00,VWS V14.01,2013-08-18 16:24:00,
2013-08-18 12:25:00,78.8,64.7,30.17,SW,233,2.0,5.0,62,0.00,,CLR,0.00,VWS V14.01,2013-08-18 16:25:00,
2013-08-18 12:26:00,78.7,65.5,30.17,NNE,25,0.0,5.0,64,0.00,,CLR,0.00,VWS V14.01,2013-08-18 16:26:00,
2013-08-18 12:27:00,78.7,65.5,30.17,North,8,0.0,5.0,64,0.00,,CLR,0.00,VWS V14.01,2013-08-18 16:27:00,
2013-08-18 12:28:00,78.7,65.5,30.17,North,8,0.0,5.0,64,0.00,,CLR,0.00,VWS V14.01,2013-08-18 16:28:00,
2013-08-18 12:29:00,78.7,66.0,30.17,ENE,65,0.0,0.0,65,0.00,,CLR,0.00,VWS V14.01,2013-08-18 16:29:00,
2013-08-18 12:30:00,78.6,65.4,30.17,East,91,0.0,0.0,64,0.00,,CLR,0.00,VWS V14.01,2013-08-18 16:30:00,
2013-08-18 12:31:00,78.5,65.3,30.17,East,101,0.0,0.0,64,0.00,,CLR,0.00,VWS V14.01,2013-08-18 16:31:00,
2013-08-18 12:32:00,78.6,65.4,30.17,SE,134,1.0,1.0,64,0.00,,CLR,0.00,VWS V14.01,2013-08-18 16:32:00,
2013-08-18 12:33:00,78.6,65.9,30.17,SE,134,0.0,1.0,65,0.00,,CLR,0.00,VWS V14.01,2013-08-18 16:33:00,
2013-08-18 12:34:00,78.6,65.9,30.17,West,259,2.0,2.0,65,0.00,,CLR,0.00,VWS V14.01,2013-08-18 16:34:00,
2013-08-18 12:35:00,78.6,65.9,30.17,West,259,0.0,2.0,65,0.00,,CLR,0.00,VWS V14.01,2013-08-18 16:35:00,
2013-08-18 12:36:00,79.4,66.0,30.17,SE,139,0.0,2.0,64,0.00,,,0.00,weatherlink.com 1.10,2013-08-18 16:36:00,
2013-08-18 12:37:00,78.5,65.8,30.17,WNW,288,0.0,2.0,65,0.00,,CLR,0.00,VWS V14.01,2013-08-18 16:37:00,
2013-08-18 12:38:00,78.5,65.3,30.17,WSW,238,0.0,1.0,64,0.00,,CLR,0.00,VWS V14.01,2013-08-18 16:38:00,
2013-08-18 12:39:00,78.5,64.9,30.17,SW,221,1.0,1.0,63,0.00,,CLR,0.00,VWS V14.01,2013-08-18 16:39:00,
2013-08-18 12:40:00,78.5,64.9,30.17,ENE,77,0.0,1.0,63,0.00,,CLR,0.00,VWS V14.01,2013-08-18 16:40:00,
2013-08-18 12:41:00,78.5,64.9,30.17,East,94,0.0,1.0,63,0.00,,CLR,0.00,VWS V14.01,2013-08-18 16:41:00,
2013-08-18 12:42:00,78.4,64.8,30.17,SE,141,1.0,1.0,63,0.00,,CLR,0.00,VWS V14.01,2013-08-18 16:42:00,
2013-08-18 12:43:00,78.4,64.3,30.17,SE,139,0.0,1.0,62,0.00,,CLR,0.00,VWS V14.01,2013-08-18 16:43:00,
2013-08-18 12:44:00,78.5,65.3,30.17,SE,139,0.0,1.0,64,0.00,,CLR,0.00,VWS V14.01,2013-08-18 16:44:00,
2013-08-18 12:45:00,78.6,65.0,30.16,ESE,107,1.0,1.0,63,0.00,,CLR,0.00,VWS V14.01,2013-08-18 16:45:00,
2013-08-18 12:46:00,78.6,64.5,30.16,SSW,212,0.0,1.0,62,0.00,,CLR,0.00,VWS V14.01,2013-08-18 16:46:00,
2013-08-18 12:47:00,78.5,64.4,30.16,WSW,239,0.0,1.0,62,0.00,,CLR,0.00,VWS V14.01,2013-08-18 16:47:00,
2013-08-18 12:48:00,78.5,64.4,30.16,SE,131,1.0,1.0,62,0.00,,CLR,0.00,VWS V14.01,2013-08-18 16:48:00,
2013-08-18 12:49:00,78.5,64.4,30.16,SE,127,1.0,1.0,62,0.00,,CLR,0.00,VWS V14.01,2013-08-18 16:49:00,
2013-08-18 12:50:00,78.4,63.4,30.16,West,277,1.0,4.0,60,0.00,,CLR,0.00,VWS V14.01,2013-08-18 16:50:00,
2013-08-18 12:51:00,78.8,65.0,30.17,SE,132,3.0,5.0,62,0.00,,,0.00,weatherlink.com 1.10,2013-08-18 16:51:00,
2013-08-18 12:52:00,78.3,64.2,30.16,South,179,3.0,4.0,62,0.00,,CLR,0.00,VWS V14.01,2013-08-18 16:52:00,
2013-08-18 12:53:00,78.3,64.2,30.16,SSE,160,0.0,4.0,62,0.00,,CLR,0.00,VWS V14.01,2013-08-18 16:53:00,
2013-08-18 12:54:00,78.2,63.7,30.16,SE,131,1.0,3.0,61,0.00,,CLR,0.00,VWS V14.01,2013-08-18 16:54:00,
2013-08-18 12:55:00,78.2,63.7,30.16,SW,216,0.0,3.0,61,0.00,,CLR,0.00,VWS V14.01,2013-08-18 16:55:00,
2013-08-18 12:56:00,78.1,64.0,30.16,SE,143,1.0,1.0,62,0.00,,CLR,0.00,VWS V14.01,2013-08-18 16:56:00,
2013-08-18 12:57:00,78.1,64.0,30.16,SE,146,0.0,1.0,62,0.00,,CLR,0.00,VWS V14.01,2013-08-18 16:57:00,
2013-08-18 12:58:00,78.1,63.6,30.16,WSW,248,1.0,3.0,61,0.00,,CLR,0.00,VWS V14.01,2013-08-18 16:58:00,
2013-08-18 12:59:00,78.0,63.5,30.16,West,263,2.0,3.0,61,0.00,,CLR,0.00,VWS V14.01,2013-08-18 16:59:00,
2013-08-18 13:00:00,77.9,63.4,30.16,SSE,155,1.0,3.0,61,0.00,,CLR,0.00,VWS V14.01,2013-08-18 17:00:00,
2013-08-18 13:01:00,77.9,63.8,30.16,ESE,106,0.0,3.0,62,0.00,,CLR,0.00,VWS V14.01,2013-08-18 17:01:00,
2013-08-18 13:02:00,77.9,63.8,30.16,East,87,3.0,3.0,62,0.00,,CLR,0.00,VWS V14.01,2013-08-18 17:02:00,
2013-08-18 13:03:00,77.8,63.8,30.16,East,99,1.0,3.0,62,0.00,,CLR,0.00,VWS V14.01,2013-08-18 17:03:00,
2013-08-18 13:04:00,77.9,64.3,30.16,East,98,0.0,3.0,63,0.00,,CLR,0.00,VWS V14.01,2013-08-18 17:04:00,
2013-08-18 13:05:00,77.9,64.3,30.16,SW,228,0.0,3.0,63,0.00,,CLR,0.00,VWS V14.01,2013-08-18 17:05:00,
2013-08-18 13:06:00,78.0,64.4,30.16,SW,215,0.0,1.0,63,0.00,,CLR,0.00,VWS V14.01,2013-08-18 17:06:00,
2013-08-18 13:07:00,78.5,65.0,30.17,SE,135,1.0,2.0,63,0.00,,,0.00,weatherlink.com 1.10,2013-08-18 17:07:00,
2013-08-18 13:08:00,78.1,64.5,30.16,ESE,123,0.0,1.0,63,0.00,,CLR,0.00,VWS V14.01,2013-08-18 17:08:00,
2013-08-18 13:09:00,78.1,64.9,30.16,SE,125,0.0,1.0,64,0.00,,CLR,0.00,VWS V14.01,2013-08-18 17:09:00,
2013-08-18 13:10:00,78.2,65.5,30.16,SE,124,0.0,1.0,65,0.00,,CLR,0.00,VWS V14.01,2013-08-18 17:10:00,
2013-08-18 13:11:00,78.2,65.5,30.16,SE,125,0.0,1.0,65,0.00,,CLR,0.00,VWS V14.01,2013-08-18 17:11:00,
2013-08-18 13:12:00,78.3,66.0,30.16,SE,127,0.0,0.0,66,0.00,,CLR,0.00,VWS V14.01,2013-08-18 17:12:00,
2013-08-18 13:13:00,78.4,65.2,30.16,SSE,163,0.0,0.0,64,0.00,,CLR,0.00,VWS V14.01,2013-08-18 17:13:00,
2013-08-18 13:14:00,78.4,66.6,30.16,SE,143,1.0,1.0,67,0.00,,CLR,0.00,VWS V14.01,2013-08-18 17:14:00,
2013-08-18 13:15:00,78.4,66.1,30.16,East,89,2.0,2.0,66,0.00,,CLR,0.00,VWS V14.01,2013-08-18 17:15:00,
2013-08-18 13:16:00,78.4,65.2,30.16,ESE,118,1.0,2.0,64,0.00,,CLR,0.00,VWS V14.01,2013-08-18 17:16:00,
2013-08-18 13:17:00,78.3,65.6,30.16,ESE,108,1.0,2.0,65,0.00,,CLR,0.00,VWS V14.01,2013-08-18 17:17:00,
2013-08-18 13:18:00,78.1,64.9,30.16,SE,146,0.0,2.0,64,0.00,,CLR,0.00,VWS V14.01,2013-08-18 17:18:00,
2013-08-18 13:19:00,78.0,65.3,30.16,WSW,253,2.0,2.0,65,0.00,,CLR,0.00,VWS V14.01,2013-08-18 17:19:00,
2013-08-18 13:20:00,77.9,64.8,30.16,South,170,0.0,2.0,64,0.00,,CLR,0.00,VWS V14.01,2013-08-18 17:20:00,
2013-08-18 13:21:00,77.7,64.6,30.16,SSW,210,1.0,4.0,64,0.00,,CLR,0.00,VWS V14.01,2013-08-18 17:21:00,
2013-08-18 13:22:00,77.5,63.9,30.16,East,85,0.0,4.0,63,0.00,,CLR,0.00,VWS V14.01,2013-08-18 17:22:00,
2013-08-18 13:23:00,77.5,64.4,30.16,East,86,0.0,4.0,64,0.00,,CLR,0.00,VWS V14.01,2013-08-18 17:23:00,
2013-08-18 13:24:00,77.4,65.2,30.16,East,101,0.0,4.0,66,0.00,,CLR,0.00,VWS V14.01,2013-08-18 17:24:00,
2013-08-18 13:25:00,78.0,63.0,30.16,SSE,163,1.0,4.0,61,0.00,,,0.00,weatherlink.com 1.10,2013-08-18 17:25:00,
2013-08-18 13:26:00,77.2,65.0,30.16,SE,136,0.0,2.0,66,0.00,,CLR,0.00,VWS V14.01,2013-08-18 17:26:00,
2013-08-18 13:27:00,77.2,65.0,30.16,SE,142,0.0,2.0,66,0.00,,CLR,0.00,VWS V14.01,2013-08-18 17:27:00,
2013-08-18 13:28:00,77.2,65.0,30.16,East,101,1.0,1.0,66,0.00,,CLR,0.00,VWS V14.01,2013-08-18 17:28:00,
2013-08-18 13:29:00,77.2,65.0,30.16,East,101,0.0,1.0,66,0.00,,CLR,0.00,VWS V14.01,2013-08-18 17:29:00,
2013-08-18 13:30:00,77.2,65.0,30.16,ESE,103,0.0,1.0,66,0.00,,CLR,0.00,VWS V14.01,2013-08-18 17:30:00,
2013-08-18 13:31:00,77.2,65.4,30.15,ESE,103,0.0,1.0,67,0.00,,CLR,0.00,VWS V14.01,2013-08-18 17:31:00,
2013-08-18 13:32:00,77.2,65.4,30.16,SE,134,0.0,1.0,67,0.00,,CLR,0.00,VWS V14.01,2013-08-18 17:32:00,
2013-08-18 13:33:00,77.2,65.4,30.16,SE,134,0.0,1.0,67,0.00,,CLR,0.00,VWS V14.01,2013-08-18 17:33:00,
2013-08-18 13:34:00,77.3,65.1,30.15,SE,134,0.0,0.0,66,0.00,,CLR,0.00,VWS V14.01,2013-08-18 17:34:00,
2013-08-18 13:35:00,77.3,65.5,30.15,SE,132,0.0,0.0,67,0.00,,CLR,0.00,VWS V14.01,2013-08-18 17:35:00,
2013-08-18 13:36:00,77.4,65.6,30.15,SE,132,0.0,0.0,67,0.00,,CLR,0.00,VWS V14.01,2013-08-18 17:36:00,
2013-08-18 13:37:00,77.4,65.6,30.15,SE,134,0.0,0.0,67,0.00,,CLR,0.00,VWS V14.01,2013-08-18 17:37:00,
2013-08-18 13:38:00,77.4,65.6,30.15,SE,134,0.0,0.0,67,0.00,,CLR,0.00,VWS V14.01,2013-08-18 17:38:00,
2013-08-18 13:39:00,77.4,65.6,30.15,ESE,119,0.0,0.0,67,0.00,,CLR,0.00,VWS V14.01,2013-08-18 17:39:00,
2013-08-18 13:40:00,77.4,65.6,30.15,ESE,118,0.0,0.0,67,0.00,,CLR,0.00,VWS V14.01,2013-08-18 17:40:00,
2013-08-18 13:41:00,78.5,66.0,30.16,East,87,1.0,1.0,66,0.00,,,0.00,weatherlink.com 1.10,2013-08-18 17:41:00,
2013-08-18 13:42:00,77.3,65.5,30.15,ESE,118,0.0,0.0,67,0.00,,CLR,0.00,VWS V14.01,2013-08-18 17:42:00,
2013-08-18 13:43:00,77.3,65.9,30.15,ESE,118,0.0,0.0,68,0.00,,CLR,0.00,VWS V14.01,2013-08-18 17:43:00,
2013-08-18 13:44:00,77.2,65.8,30.15,ESE,118,0.0,0.0,68,0.00,,CLR,0.00,VWS V14.01,2013-08-18 17:44:00,
2013-08-18 13:45:00,77.2,65.8,30.15,ESE,119,0.0,0.0,68,0.00,,CLR,0.00,VWS V14.01,2013-08-18 17:45:00,
2013-08-18 13:46:00,77.2,65.8,30.15,ESE,121,0.0,0.0,68,0.00,,CLR,0.00,VWS V14.01,2013-08-18 17:46:00,
2013-08-18 13:47:00,77.2,65.8,30.15,ESE,122,0.0,0.0,68,0.00,,CLR,0.00,VWS V14.01,2013-08-18 17:47:00,
2013-08-18 13:48:00,77.3,66.3,30.15,ESE,121,0.0,0.0,69,0.00,,CLR,0.00,VWS V14.01,2013-08-18 17:48:00,
2013-08-18 13:49:00,77.3,65.9,30.15,ESE,121,0.0,0.0,68,0.00,,CLR,0.00,VWS V14.01,2013-08-18 17:49:00,
2013-08-18 13:50:00,77.3,65.5,30.15,ESE,120,0.0,0.0,67,0.00,,CLR,0.00,VWS V14.01,2013-08-18 17:50:00,
2013-08-18 13:51:00,77.3,65.5,30.15,South,173,0.0,2.0,67,0.00,,CLR,0.00,VWS V14.01,2013-08-18 17:51:00,
2013-08-18 13:52:00,77.3,65.5,30.15,SE,127,0.0,2.0,67,0.00,,CLR,0.00,VWS V14.01,2013-08-18 17:52:00,
2013-08-18 13:53:00,77.3,65.5,30.15,ESE,104,0.0,2.0,67,0.00,,CLR,0.00,VWS V14.01,2013-08-18 17:53:00,
2013-08-18 13:54:00,77.3,65.9,30.15,ESE,108,0.0,2.0,68,0.00,,CLR,0.00,VWS V14.01,2013-08-18 17:54:00,
2013-08-18 13:55:00,77.3,65.9,30.14,ESE,108,0.0,1.0,68,0.00,,CLR,0.00,VWS V14.01,2013-08-18 17:55:00,
2013-08-18 13:56:00,77.3,66.3,30.14,ESE,113,0.0,1.0,69,0.00,,CLR,0.00,VWS V14.01,2013-08-18 17:56:00,
2013-08-18 13:57:00,77.2,65.0,30.15,ESE,103,0.0,2.0,67,0.00,,,0.00,weatherlink.com 1.10,2013-08-18 17:57:00,
2013-08-18 13:58:00,77.4,66.9,30.14,ESE,123,1.0,1.0,70,0.00,,CLR,0.00,VWS V14.01,2013-08-18 17:58:00,
2013-08-18 13:59:00,77.5,66.1,30.14,East,89,2.0,2.0,68,0.00,,CLR,0.00,VWS V14.01,2013-08-18 17:59:00,
2013-08-18 14:00:00,77.4,65.6,30.14,ESE,103,0.0,2.0,67,0.00,,CLR,0.00,VWS V14.01,2013-08-18 18:00:00,
2013-08-18 14:01:00,77.5,65.7,30.14,ESE,103,0.0,2.0,67,0.00,,CLR,0.00,VWS V14.01,2013-08-18 18:01:00,
2013-08-18 14:02:00,77.5,65.7,30.14,SSE,158,1.0,2.0,67,0.00,,CLR,0.00,VWS V14.01,2013-08-18 18:02:00,
2013-08-18 14:03:00,77.5,66.1,30.14,WNW,285,0.0,2.0,68,0.00,,CLR,0.00,VWS V14.01,2013-08-18 18:03:00,
2013-08-18 14:04:00,77.6,66.2,30.14,SSE,154,1.0,2.0,68,0.00,,CLR,0.00,VWS V14.01,2013-08-18 18:04:00,
2013-08-18 14:05:00,77.7,66.3,30.14,SSE,158,1.0,1.0,68,0.00,,CLR,0.00,VWS V14.01,2013-08-18 18:05:00,
2013-08-18 14:06:00,77.7,65.9,30.14,ESE,120,0.0,1.0,67,0.00,,CLR,0.00,VWS V14.01,2013-08-18 18:06:00,
2013-08-18 14:07:00,77.8,66.4,30.14,ESE,120,1.0,1.0,68,0.00,,CLR,0.00,VWS V14.01,2013-08-18 18:07:00,
2013-08-18 14:08:00,77.9,66.5,30.14,ESE,114,0.0,1.0,68,0.00,,CLR,0.00,VWS V14.01,2013-08-18 18:08:00,
2013-08-18 14:09:00,78.0,67.0,30.14,ESE,115,0.0,1.0,69,0.00,,CLR,0.00,VWS V14.01,2013-08-18 18:09:00,
2013-08-18 14:10:00,78.1,66.7,30.14,ESE,115,0.0,1.0,68,0.00,,CLR,0.00,VWS V14.01,2013-08-18 18:10:00,
2013-08-18 14:11:00,78.3,66.9,30.14,SE,134,0.0,1.0,68,0.00,,CLR,0.00,VWS V14.01,2013-08-18 18:11:00,
2013-08-18 14:12:00,78.3,66.4,30.14,SSW,192,2.0,2.0,67,0.00,,CLR,0.00,VWS V14.01,2013-08-18 18:12:00,
2013-08-18 14:13:00,77.2,66.0,30.15,ESE,121,0.0,0.0,68,0.00,,,0.00,weatherlink.com 1.10,2013-08-18 18:13:00,
2013-08-18 14:14:00,78.4,66.6,30.14,SW,219,0.0,2.0,67,0.00,,CLR,0.00,VWS V14.01,2013-08-18 18:14:00,
2013-08-18 14:15:00,78.4,67.0,30.13,SW,218,0.0,2.0,68,0.00,,CLR,0.00,VWS V14.01,2013-08-18 18:15:00,
2013-08-18 14:16:00,78.4,66.6,30.13,SSE,154,0.0,1.0,67,0.00,,CLR,0.00,VWS V14.01,2013-08-18 18:16:00,
2013-08-18 14:17:00,78.4,66.6,30.13,SE,132,1.0,1.0,67,0.00,,CLR,0.00,VWS V14.01,2013-08-18 18:17:00,
2013-08-18 14:18:00,78.4,66.6,30.13,ESE,111,1.0,3.0,67,0.00,,CLR,0.00,VWS V14.01,2013-08-18 18:18:00,
2013-08-18 14:19:00,78.3,66.4,30.13,ESE,111,0.0,3.0,67,0.00,,CLR,0.00,VWS V14.01,2013-08-18 18:19:00,
2013-08-18 14:20:00,78.3,66.0,30.13,NE,40,0.0,3.0,66,0.00,,CLR,0.00,VWS V14.01,2013-08-18 18:20:00,
2013-08-18 14:21:00,78.2,65.9,30.13,SE,129,1.0,2.0,66,0.00,,CLR,0.00,VWS V14.01,2013-08-18 18:21:00,
2013-08-18 14:22:00,78.2,66.4,30.13,SE,142,1.0,1.0,67,0.00,,CLR,0.00,VWS V14.01,2013-08-18 18:22:00,
2013-08-18 14:23:00,78.2,66.4,30.13,East,89,1.0,2.0,67,0.00,,CLR,0.00,VWS V14.01,2013-08-18 18:23:00,
2013-08-18 14:24:00,78.2,66.4,30.13,SE,127,0.0,2.0,67,0.00,,CLR,0.00,VWS V14.01,2013-08-18 18:24:00,
2013-08-18 14:25:00,78.1,66.7,30.13,SE,127,0.0,2.0,68,0.00,,CLR,0.00,VWS V14.01,2013-08-18 18:25:00,
2013-08-18 14:26:00,78.1,66.7,30.13,SE,125,0.0,1.0,68,0.00,,CLR,0.00,VWS V14.01,2013-08-18 18:26:00,
2013-08-18 14:27:00,78.1,66.3,30.13,SSE,156,1.0,1.0,67,0.00,,CLR,0.00,VWS V14.01,2013-08-18 18:27:00,
2013-08-18 14:28:00,78.0,66.2,30.13,SW,218,0.0,3.0,67,0.00,,CLR,0.00,VWS V14.01,2013-08-18 18:28:00,
2013-08-18 14:29:00,77.9,66.5,30.13,ESE,122,0.0,3.0,68,0.00,,CLR,0.00,VWS V14.01,2013-08-18 18:29:00,
2013-08-18 14:30:00,77.6,66.0,30.14,SSE,152,1.0,2.0,68,0.00,,,0.00,weatherlink.com 1.10,2013-08-18 18:30:00,
2013-08-18 14:31:00,77.8,66.8,30.13,ESE,116,0.0,2.0,69,0.00,,CLR,0.00,VWS V14.01,2013-08-18 18:31:00,
2013-08-18 14:32:00,77.8,67.2,30.13,ESE,116,0.0,1.0,70,0.00,,CLR,0.00,VWS V14.01,2013-08-18 18:32:00,
2013-08-18 14:33:00,77.8,66.8,30.12,ESE,115,0.0,1.0,69,0.00,,CLR,0.00,VWS V14.01,2013-08-18 18:33:00,
2013-08-18 14:34:00,77.8,67.2,30.12,ESE,108,0.0,1.0,70,0.00,,CLR,0.00,VWS V14.01,2013-08-18 18:34:00,
2013-08-18 14:35:00,77.8,67.2,30.12,ESE,108,0.0,1.0,70,0.00,,CLR,0.00,VWS V14.01,2013-08-18 18:35:00,
2013-08-18 14:36:00,77.7,67.1,30.13,ESE,108,0.0,1.0,70,0.00,,CLR,0.00,VWS V14.01,2013-08-18 18:36:00,
2013-08-18 14:37:00,77.7,67.1,30.13,ESE,108,0.0,1.0,70,0.00,,CLR,0.00,VWS V14.01,2013-08-18 18:37:00,
2013-08-18 14:38:00,77.7,67.6,30.13,ESE,108,0.0,0.0,71,0.00,,CLR,0.00,VWS V14.01,2013-08-18 18:38:00,
2013-08-18 14:39:00,77.7,67.6,30.13,ESE,108,0.0,0.0,71,0.00,,CLR,0.00,VWS V14.01,2013-08-18 18:39:00,
2013-08-18 14:40:00,77.7,67.6,30.12,ESE,110,0.0,0.0,71,0.00,,CLR,0.00,VWS V14.01,2013-08-18 18:40:00,
2013-08-18 14:41:00,77.7,67.6,30.12,ESE,108,0.0,0.0,71,0.00,,CLR,0.00,VWS V14.01,2013-08-18 18:41:00,
2013-08-18 14:42:00,77.8,67.2,30.12,ESE,109,0.0,0.0,70,0.00,,CLR,0.00,VWS V14.01,2013-08-18 18:42:00,
2013-08-18 14:43:00,77.9,67.8,30.12,ESE,108,0.0,0.0,71,0.00,,CLR,0.00,VWS V14.01,2013-08-18 18:43:00,
2013-08-18 14:44:00,77.9,67.3,30.12,ENE,77,0.0,0.0,70,0.00,,CLR,0.00,VWS V14.01,2013-08-18 18:44:00,
2013-08-18 14:45:00,77.9,67.8,30.12,ENE,77,0.0,0.0,71,0.00,,CLR,0.00,VWS V14.01,2013-08-18 18:45:00,
2013-08-18 14:46:00,78.3,66.0,30.13,NNE,19,0.0,3.0,66,0.00,,,0.00,weatherlink.com 1.10,2013-08-18 18:46:00,
2013-08-18 14:47:00,77.9,67.3,30.12,ESE,104,0.0,0.0,70,0.00,,CLR,0.00,VWS V14.01,2013-08-18 18:47:00,
2013-08-18 14:48:00,77.9,67.3,30.12,ESE,104,0.0,0.0,70,0.00,,CLR,0.00,VWS V14.01,2013-08-18 18:48:00,
2013-08-18 14:49:00,78.0,67.4,30.12,ESE,104,0.0,0.0,70,0.00,,CLR,0.00,VWS V14.01,2013-08-18 18:49:00,
2013-08-18 14:50:00,78.0,67.0,30.12,NW,304,0.0,0.0,69,0.00,,CLR,0.00,VWS V14.01,2013-08-18 18:50:00,
2013-08-18 14:51:00,78.0,67.4,30.12,ESE,110,0.0,2.0,70,0.00,,CLR,0.00,VWS V14.01,2013-08-18 18:51:00,
2013-08-18 14:52:00,77.9,67.3,30.12,ESE,110,0.0,2.0,70,0.00,,CLR,0.00,VWS V14.01,2013-08-18 18:52:00,
2013-08-18 14:53:00,77.9,66.9,30.12,ESE,110,0.0,2.0,69,0.00,,CLR,0.00,VWS V14.01,2013-08-18 18:53:00,
2013-08-18 14:54:00,77.9,67.3,30.12,ESE,110,0.0,0.0,70,0.00,,CLR,0.00,VWS V14.01,2013-08-18 18:54:00,
2013-08-18 14:55:00,77.8,67.2,30.12,ESE,110,0.0,0.0,70,0.00,,CLR,0.00,VWS V14.01,2013-08-18 18:55:00,
2013-08-18 14:56:00,77.9,67.3,30.12,ESE,108,1.0,1.0,70,0.00,,CLR,0.00,VWS V14.01,2013-08-18 18:56:00,
2013-08-18 14:57:00,77.9,67.3,30.12,ESE,108,0.0,1.0,70,0.00,,CLR,0.00,VWS V14.01,2013-08-18 18:57:00,
2013-08-18 14:58:00,77.9,67.3,30.12,ESE,111,0.0,1.0,70,0.00,,CLR,0.00,VWS V14.01,2013-08-18 18:58:00,
2013-08-18 14:59:00,77.9,67.3,30.12,SE,132,1.0,2.0,70,0.00,,CLR,0.00,VWS V14.01,2013-08-18 18:59:00,
2013-08-18 15:00:00,77.8,67.2,30.12,SE,124,0.0,2.0,70,0.00,,CLR,0.00,VWS V14.01,2013-08-18 19:00:00,
2013-08-18 15:01:00,77.7,67.1,30.11,SE,124,0.0,2.0,70,0.00,,CLR,0.00,VWS V14.01,2013-08-18 19:01:00,
2013-08-18 15:02:00,77.7,67.0,30.13,ESE,108,0.0,3.0,70,0.00,,,0.00,weatherlink.com 1.10,2013-08-18 19:02:00,
2013-08-18 15:03:00,77.7,67.1,30.11,NE,39,0.0,1.0,70,0.00,,CLR,0.00,VWS V14.01,2013-08-18 19:03:00,
2013-08-18 15:04:00,77.6,66.6,30.11,South,186,0.0,1.0,69,0.00,,CLR,0.00,VWS V14.01,2013-08-18 19:04:00,
2013-08-18 15:05:00,77.6,67.1,30.11,SE,125,0.0,1.0,70,0.00,,CLR,0.00,VWS V14.01,2013-08-18 19:05:00,
2013-08-18 15:06:00,77.6,67.1,30.11,SE,125,0.0,1.0,70,0.00,,CLR,0.00,VWS V14.01,2013-08-18 19:06:00,
2013-08-18 15:07:00,77.6,66.6,30.11,North,355,0.0,1.0,69,0.00,,CLR,0.00,VWS V14.01,2013-08-18 19:07:00,
2013-08-18 15:08:00,77.6,66.6,30.11,East,96,1.0,1.0,69,0.00,,CLR,0.00,VWS V14.01,2013-08-18 19:08:00,
2013-08-18 15:09:00,77.6,66.6,30.11,East,96,0.0,1.0,69,0.00,,CLR,0.00,VWS V14.01,2013-08-18 19:09:00,
2013-08-18 15:10:00,77.7,67.1,30.11,SE,131,1.0,1.0,70,0.00,,CLR,0.00,VWS V14.01,2013-08-18 19:10:00,
2013-08-18 15:11:00,77.6,66.6,30.11,ESE,107,0.0,2.0,69,0.00,,CLR,0.00,VWS V14.01,2013-08-18 19:11:00,
2013-08-18 15:12:00,77.6,67.1,30.11,SSW,200,2.0,3.0,70,0.00,,CLR,0.00,VWS V14.01,2013-08-18 19:12:00,
2013-08-18 15:13:00,77.6,66.6,30.11,SW,216,1.0,3.0,69,0.00,,CLR,0.00,VWS V14.01,2013-08-18 19:13:00,
2013-08-18 15:14:00,77.5,66.1,30.11,WSW,248,1.0,3.0,68,0.00,,CLR,0.00,VWS V14.01,2013-08-18 19:14:00,
2013-08-18 15:15:00,77.5,66.1,30.11,SE,143,2.0,3.0,68,0.00,,CLR,0.00,VWS V14.01,2013-08-18 19:15:00,
2013-08-18 15:16:00,77.4,65.6,30.11,South,191,0.0,2.0,67,0.00,,CLR,0.00,VWS V14.01,2013-08-18 19:16:00,
2013-08-18 15:17:00,77.4,65.2,30.11,SE,129,0.0,2.0,66,0.00,,CLR,0.00,VWS V14.01,2013-08-18 19:17:00,
2013-08-18 15:18:00,77.3,65.1,30.11,ESE,118,0.0,2.0,66,0.00,,CLR,0.00,VWS V14.01,2013-08-18 19:18:00,
2013-08-18 15:19:00,77.4,65.6,30.11,ESE,118,0.0,1.0,67,0.00,,CLR,0.00,VWS V14.01,2013-08-18 19:19:00,
2013-08-18 15:20:00,77.9,67.0,30.12,ESE,110,0.0,2.0,69,0.00,,,0.00,weatherlink.com 1.10,2013-08-18 19:20:00,
2013-08-18 15:21:00,77.4,65.6,30.11,ESE,118,0.0,0.0,67,0.00,,CLR,0.00,VWS V14.01,2013-08-18 19:21:00,
2013-08-18 15:22:00,77.4,65.6,30.11,ESE,118,0.0,0.0,67,0.00,,CLR,0.00,VWS V14.01,2013-08-18 19:22:00,
2013-08-18 15:23:00,77.5,65.7,30.11,ESE,118,0.0,0.0,67,0.00,,CLR,0.00,VWS V14.01,2013-08-18 19:23:00,
2013-08-18 15:24:00,77.4,65.6,30.11,ESE,118,0.0,0.0,67,0.00,,CLR,0.00,VWS V14.01,2013-08-18 19:24:00,
2013-08-18 15:25:00,77.5,65.7,30.10,ESE,118,0.0,0.0,67,0.00,,CLR,0.00,VWS V14.01,2013-08-18 19:25:00,
2013-08-18 15:26:00,77.5,66.1,30.10,ESE,120,0.0,1.0,68,0.00,,CLR,0.00,VWS V14.01,2013-08-18 19:26:00,
2013-08-18 15:27:00,77.5,65.7,30.10,ESE,120,0.0,1.0,67,0.00,,CLR,0.00,VWS V14.01,2013-08-18 19:27:00,
2013-08-18 15:28:00,77.4,65.6,30.10,ESE,103,1.0,2.0,67,0.00,,CLR,0.00,VWS V14.01,2013-08-18 19:28:00,
2013-08-18 15:29:00,77.4,66.0,30.10,ESE,103,0.0,2.0,68,0.00,,CLR,0.00,VWS V14.01,2013-08-18 19:29:00,
2013-08-18 15:30:00,77.4,65.6,30.10,ESE,103,0.0,2.0,67,0.00,,CLR,0.00,VWS V14.01,2013-08-18 19:30:00,
2013-08-18 15:31:00,77.3,65.5,30.10,East,89,0.0,2.0,67,0.00,,CLR,0.00,VWS V14.01,2013-08-18 19:31:00,
2013-08-18 15:32:00,77.3,65.9,30.10,East,89,0.0,2.0,68,0.00,,CLR,0.00,VWS V14.01,2013-08-18 19:32:00,
2013-08-18 15:33:00,77.3,65.9,30.10,East,91,1.0,2.0,68,0.00,,CLR,0.00,VWS V14.01,2013-08-18 19:33:00,
2013-08-18 15:34:00,77.2,65.8,30.10,East,90,0.0,2.0,68,0.00,,CLR,0.00,VWS V14.01,2013-08-18 19:34:00,
2013-08-18 15:35:00,77.2,65.8,30.10,East,90,0.0,1.0,68,0.00,,CLR,0.00,VWS V14.01,2013-08-18 19:35:00,
2013-08-18 15:36:00,77.6,67.0,30.11,East,82,0.0,2.0,70,0.00,,,0.00,weatherlink.com 1.10,2013-08-18 19:36:00,
2013-08-18 15:37:00,77.2,65.8,30.09,ESE,103,0.0,1.0,68,0.00,,CLR,0.00,VWS V14.01,2013-08-18 19:37:00,
2013-08-18 15:38:00,77.2,65.4,30.09,East,101,0.0,1.0,67,0.00,,CLR,0.00,VWS V14.01,2013-08-18 19:38:00,
2013-08-18 15:39:00,77.1,65.7,30.09,East,101,0.0,1.0,68,0.00,,CLR,0.00,VWS V14.01,2013-08-18 19:39:00,
2013-08-18 15:40:00,77.1,65.7,30.09,East,101,0.0,1.0,68,0.00,,CLR,0.00,VWS V14.01,2013-08-18 19:40:00,
2013-08-18 15:41:00,77.1,65.7,30.09,East,101,0.0,0.0,68,0.00,,CLR,0.00,VWS V14.01,2013-08-18 19:41:00,
2013-08-18 15:42:00,77.0,65.2,30.09,East,101,1.0,1.0,67,0.00,,CLR,0.00,VWS V14.01,2013-08-18 19:42:00,
2013-08-18 15:43:00,77.0,65.2,30.09,ESE,102,0.0,1.0,67,0.00,,CLR,0.00,VWS V14.01,2013-08-18 19:43:00,
2013-08-18 15:44:00,77.0,65.6,30.09,East,101,0.0,1.0,68,0.00,,CLR,0.00,VWS V14.01,2013-08-18 19:44:00,
2013-08-18 15:45:00,76.8,65.0,30.09,East,101,0.0,1.0,67,0.00,,CLR,0.00,VWS V14.01,2013-08-18 19:45:00,
2013-08-18 15:46:00,76.7,65.3,30.09,East,101,0.0,0.0,68,0.00,,CLR,0.00,VWS V14.01,2013-08-18 19:46:00,
2013-08-18 15:47:00,76.7,64.9,30.09,East,101,0.0,0.0,67,0.00,,CLR,0.00,VWS V14.01,2013-08-18 19:47:00,
2013-08-18 15:48:00,76.6,65.3,30.09,East,101,0.0,0.0,68,0.00,,CLR,0.00,VWS V14.01,2013-08-18 19:48:00,
2013-08-18 15:49:00,76.6,65.3,30.09,East,101,0.0,0.0,68,0.00,,CLR,0.00,VWS V14.01,2013-08-18 19:49:00,
2013-08-18 15:50:00,76.6,65.3,30.09,East,101,0.0,0.0,68,0.00,,CLR,0.00,VWS V14.01,2013-08-18 19:50:00,
2013-08-18 15:51:00,76.6,65.3,30.09,ESE,102,0.0,0.0,68,0.00,,CLR,0.00,VWS V14.01,2013-08-18 19:51:00,
2013-08-18 15:52:00,77.5,66.0,30.10,ESE,120,0.0,1.0,67,0.00,,,0.00,weatherlink.com 1.10,2013-08-18 19:52:00,
2013-08-18 15:53:00,76.7,65.8,30.09,ESE,102,0.0,0.0,69,0.00,,CLR,0.00,VWS V14.01,2013-08-18 19:53:00,
2013-08-18 15:54:00,76.6,65.7,30.09,East,101,0.0,0.0,69,0.00,,CLR,0.00,VWS V14.01,2013-08-18 19:54:00,
2013-08-18 15:55:00,76.6,65.7,30.09,East,101,0.0,0.0,69,0.00,,CLR,0.00,VWS V14.01,2013-08-18 19:55:00,
2013-08-18 15:56:00,76.5,65.6,30.09,East,101,0.0,0.0,69,0.00,,CLR,0.00,VWS V14.01,2013-08-18 19:56:00,
2013-08-18 15:57:00,76.4,65.9,30.09,ESE,102,0.0,0.0,70,0.00,,CLR,0.00,VWS V14.01,2013-08-18 19:57:00,
2013-08-18 15:58:00,76.4,65.9,30.09,ESE,102,0.0,0.0,70,0.00,,CLR,0.00,VWS V14.01,2013-08-18 19:58:00,
2013-08-18 15:59:00,76.3,66.2,30.09,East,101,0.0,0.0,71,0.00,,CLR,0.00,VWS V14.01,2013-08-18 19:59:00,
2013-08-18 16:00:00,76.2,66.1,30.09,East,101,0.0,0.0,71,0.00,,CLR,0.00,VWS V14.01,2013-08-18 20:00:00,
2013-08-18 16:01:00,76.2,66.1,30.09,East,101,0.0,0.0,71,0.00,,CLR,0.00,VWS V14.01,2013-08-18 20:01:00,
2013-08-18 16:02:00,76.2,66.1,30.09,ESE,102,0.0,0.0,71,0.00,,CLR,0.00,VWS V14.01,2013-08-18 20:02:00,
2013-08-18 16:03:00,76.2,66.1,30.09,ESE,102,0.0,0.0,71,0.00,,CLR,0.00,VWS V14.01,2013-08-18 20:03:00,
2013-08-18 16:04:00,76.2,66.1,30.09,East,101,0.0,0.0,71,0.00,,CLR,0.00,VWS V14.01,2013-08-18 20:04:00,
2013-08-18 16:05:00,76.1,66.0,30.09,East,101,0.0,0.0,71,0.00,,CLR,0.00,VWS V14.01,2013-08-18 20:05:00,
2013-08-18 16:06:00,76.1,66.0,30.09,East,101,0.0,0.0,71,0.00,,CLR,0.00,VWS V14.01,2013-08-18 20:06:00,
2013-08-18 16:07:00,76.1,66.0,30.09,ESE,102,0.0,0.0,71,0.00,,CLR,0.00,VWS V14.01,2013-08-18 20:07:00,
2013-08-18 16:08:00,77.0,65.0,30.09,East,101,0.0,1.0,67,0.00,,,0.00,weatherlink.com 1.10,2013-08-18 20:08:00,
2013-08-18 16:09:00,76.0,66.7,30.09,ESE,102,0.0,0.0,73,0.00,,CLR,0.00,VWS V14.01,2013-08-18 20:09:00,
2013-08-18 16:10:00,75.9,66.6,30.09,East,101,0.0,0.0,73,0.00,,CLR,0.00,VWS V14.01,2013-08-18 20:10:00,
2013-08-18 16:11:00,75.9,67.0,30.09,East,101,0.0,0.0,74,0.00,,CLR,0.00,VWS V14.01,2013-08-18 20:11:00,
2013-08-18 16:12:00,75.8,67.3,30.09,ESE,103,0.0,0.0,75,0.00,,CLR,0.00,VWS V14.01,2013-08-18 20:12:00,
2013-08-18 16:13:00,75.7,67.2,30.09,ESE,103,0.0,0.0,75,0.00,,CLR,0.00,VWS V14.01,2013-08-18 20:13:00,
2013-08-18 16:14:00,75.6,67.1,30.09,East,101,0.0,0.0,75,0.00,,CLR,0.00,VWS V14.01,2013-08-18 20:14:00,
2013-08-18 16:15:00,75.5,66.6,30.09,East,101,0.0,0.0,74,0.00,,CLR,0.00,VWS V14.01,2013-08-18 20:15:00,
2013-08-18 16:16:00,75.4,66.5,30.09,East,101,0.0,0.0,74,0.00,,CLR,0.00,VWS V14.01,2013-08-18 20:16:00,
2013-08-18 16:17:00,75.4,66.2,30.09,East,101,0.0,0.0,73,0.00,,CLR,0.00,VWS V14.01,2013-08-18 20:17:00,
2013-08-18 16:18:00,75.3,66.4,30.08,East,101,0.0,0.0,74,0.00,,CLR,0.00,VWS V14.01,2013-08-18 20:18:00,
2013-08-18 16:19:00,75.3,66.8,30.09,ESE,102,0.0,0.0,75,0.00,,CLR,0.00,VWS V14.01,2013-08-18 20:19:00,
2013-08-18 16:20:00,75.3,67.2,30.09,ESE,102,0.0,0.0,76,0.00,,CLR,0.00,VWS V14.01,2013-08-18 20:20:00,
2013-08-18 16:21:00,75.3,67.6,30.09,East,101,0.0,0.0,77,0.00,,CLR,0.00,VWS V14.01,2013-08-18 20:21:00,
2013-08-18 16:22:00,75.3,68.0,30.09,East,101,0.0,0.0,78,0.00,,CLR,0.00,VWS V14.01,2013-08-18 20:22:00,
2013-08-18 16:23:00,75.3,68.3,30.09,East,101,0.0,0.0,79,0.00,,CLR,0.00,VWS V14.01,2013-08-18 20:23:00,
2013-08-18 16:24:00,75.3,68.3,30.08,East,101,0.0,0.0,79,0.00,,CLR,0.00,VWS V14.01,2013-08-18 20:24:00,
2013-08-18 16:25:00,75.3,68.3,30.09,ESE,102,0.0,0.0,79,0.00,,CLR,0.00,VWS V14.01,2013-08-18 20:25:00,
2013-08-18 16:26:00,76.3,66.0,30.09,ESE,102,0.0,0.0,71,0.00,,,0.00,weatherlink.com 1.10,2013-08-18 20:26:00,
2013-08-18 16:27:00,75.1,68.5,30.08,East,101,0.0,0.0,80,0.00,,CLR,0.00,VWS V14.01,2013-08-18 20:27:00,
2013-08-18 16:28:00,75.1,68.5,30.08,East,101,0.0,0.0,80,0.00,,CLR,0.00,VWS V14.01,2013-08-18 20:28:00,
2013-08-18 16:29:00,75.1,68.5,30.09,East,101,0.0,0.0,80,0.00,,CLR,0.00,VWS V14.01,2013-08-18 20:29:00,
2013-08-18 16:30:00,75.0,68.4,30.08,ESE,102,0.0,0.0,80,0.00,,CLR,0.00,VWS V14.01,2013-08-18 20:30:00,
2013-08-18 16:31:00,74.9,67.9,30.08,East,101,0.0,0.0,79,0.00,,CLR,0.00,VWS V14.01,2013-08-18 20:31:00,
2013-08-18 16:32:00,74.9,68.3,30.08,East,101,0.0,0.0,80,0.00,,CLR,0.00,VWS V14.01,2013-08-18 20:32:00,
2013-08-18 16:33:00,74.8,68.2,30.08,ESE,102,0.0,0.0,80,0.00,,CLR,0.00,VWS V14.01,2013-08-18 20:33:00,
2013-08-18 16:34:00,74.7,67.8,30.08,East,101,0.0,0.0,79,0.00,,CLR,0.00,VWS V14.01,2013-08-18 20:34:00,
2013-08-18 16:35:00,74.7,67.4,30.08,East,101,0.0,0.0,78,0.00,,CLR,0.00,VWS V14.01,2013-08-18 20:35:00,
2013-08-18 16:36:00,74.7,67.4,30.08,East,101,0.0,0.0,78,0.00,,CLR,0.00,VWS V14.01,2013-08-18 20:36:00,
2013-08-18 16:37:00,74.6,66.9,30.08,ESE,102,0.0,0.0,77,0.00,,CLR,0.00,VWS V14.01,2013-08-18 20:37:00,
2013-08-18 16:38:00,74.6,66.9,30.08,ESE,102,0.0,0.0,77,0.00,,CLR,0.00,VWS V14.01,2013-08-18 20:38:00,
2013-08-18 16:39:00,74.6,66.9,30.08,ESE,102,0.0,0.0,77,0.00,,CLR,0.00,VWS V14.01,2013-08-18 20:39:00,
2013-08-18 16:40:00,74.5,66.4,30.08,East,101,0.0,0.0,76,0.00,,CLR,0.00,VWS V14.01,2013-08-18 20:40:00,
2013-08-18 16:41:00,74.5,66.4,30.08,ESE,102,0.0,0.0,76,0.00,,CLR,0.00,VWS V14.01,2013-08-18 20:41:00,
2013-08-18 16:42:00,75.5,67.0,30.09,ESE,102,0.0,0.0,74,0.00,,,0.00,weatherlink.com 1.10,2013-08-18 20:42:00,
2013-08-18 16:43:00,74.5,66.4,30.08,East,101,0.0,0.0,76,0.00,,CLR,0.00,VWS V14.01,2013-08-18 20:43:00,
2013-08-18 16:44:00,74.5,66.4,30.08,East,101,0.0,0.0,76,0.00,,CLR,0.00,VWS V14.01,2013-08-18 20:44:00,
2013-08-18 16:45:00,74.5,66.4,30.08,East,101,0.0,0.0,76,0.00,,CLR,0.00,VWS V14.01,2013-08-18 20:45:00,
2013-08-18 16:46:00,74.5,66.4,30.08,ESE,102,0.0,0.0,76,0.00,,CLR,0.00,VWS V14.01,2013-08-18 20:46:00,
2013-08-18 16:47:00,74.5,66.4,30.08,East,101,0.0,0.0,76,0.00,,CLR,0.00,VWS V14.01,2013-08-18 20:47:00,
2013-08-18 16:48:00,74.4,66.3,30.08,ESE,102,0.0,0.0,76,0.00,,CLR,0.00,VWS V14.01,2013-08-18 20:48:00,
2013-08-18 16:49:00,74.4,66.3,30.08,ESE,102,0.0,0.0,76,0.00,,CLR,0.00,VWS V14.01,2013-08-18 20:49:00,
2013-08-18 16:50:00,74.4,66.3,30.08,East,101,0.0,0.0,76,0.00,,CLR,0.00,VWS V14.01,2013-08-18 20:50:00,
2013-08-18 16:51:00,74.4,66.3,30.08,East,101,0.0,0.0,76,0.00,,CLR,0.00,VWS V14.01,2013-08-18 20:51:00,
2013-08-18 16:52:00,74.3,66.6,30.08,East,101,0.0,0.0,77,0.00,,CLR,0.00,VWS V14.01,2013-08-18 20:52:00,
2013-08-18 16:53:00,74.3,66.6,30.08,ESE,102,0.0,0.0,77,0.00,,CLR,0.00,VWS V14.01,2013-08-18 20:53:00,
2013-08-18 16:54:00,74.3,66.6,30.08,ESE,102,0.0,0.0,77,0.00,,CLR,0.00,VWS V14.01,2013-08-18 20:54:00,
2013-08-18 16:55:00,74.3,66.6,30.08,East,101,0.0,0.0,77,0.00,,CLR,0.00,VWS V14.01,2013-08-18 20:55:00,
2013-08-18 16:56:00,74.2,66.5,30.08,ESE,102,0.0,0.0,77,0.00,,CLR,0.00,VWS V14.01,2013-08-18 20:56:00,
2013-08-18 16:57:00,74.1,66.4,30.08,ESE,102,0.0,0.0,77,0.00,,CLR,0.00,VWS V14.01,2013-08-18 20:57:00,
2013-08-18 16:58:00,74.9,68.0,30.08,East,101,0.0,0.0,80,0.00,,,0.00,weatherlink.com 1.10,2013-08-18 20:58:00,
2013-08-18 16:59:00,74.0,66.3,30.08,ESE,102,0.0,0.0,77,0.00,,CLR,0.00,VWS V14.01,2013-08-18 20:59:00,
2013-08-18 17:00:00,73.9,66.2,30.08,ESE,102,0.0,0.0,77,0.00,,CLR,0.00,VWS V14.01,2013-08-18 21:00:00,
2013-08-18 17:01:00,73.9,66.2,30.08,East,101,0.0,0.0,77,0.00,,CLR,0.00,VWS V14.01,2013-08-18 21:01:00,
2013-08-18 17:02:00,73.8,66.2,30.08,East,101,0.0,0.0,77,0.00,,CLR,0.00,VWS V14.01,2013-08-18 21:02:00,
2013-08-18 17:03:00,73.7,66.1,30.08,ESE,102,0.0,0.0,77,0.00,,CLR,0.00,VWS V14.01,2013-08-18 21:03:00,
2013-08-18 17:04:00,73.7,66.4,30.08,ESE,102,0.0,0.0,78,0.00,,CLR,0.00,VWS V14.01,2013-08-18 21:04:00,
2013-08-18 17:05:00,73.7,66.1,30.08,East,101,0.0,0.0,77,0.00,,CLR,0.00,VWS V14.01,2013-08-18 21:05:00,
2013-08-18 17:06:00,73.7,66.1,30.08,East,101,0.0,0.0,77,0.00,,CLR,0.00,VWS V14.01,2013-08-18 21:06:00,
2013-08-18 17:07:00,73.7,66.4,30.08,ESE,102,0.0,0.0,78,0.00,,CLR,0.00,VWS V14.01,2013-08-18 21:07:00,
2013-08-18 17:08:00,73.6,66.3,30.08,ESE,102,0.0,0.0,78,0.00,,CLR,0.00,VWS V14.01,2013-08-18 21:08:00,
2013-08-18 17:09:00,73.6,66.3,30.08,East,101,0.0,0.0,78,0.00,,CLR,0.00,VWS V14.01,2013-08-18 21:09:00,
2013-08-18 17:10:00,73.6,66.3,30.08,ESE,102,0.0,0.0,78,0.00,,CLR,0.00,VWS V14.01,2013-08-18 21:10:00,
2013-08-18 17:11:00,73.5,66.2,30.08,ESE,102,0.0,0.0,78,0.00,,CLR,0.00,VWS V14.01,2013-08-18 21:11:00,
2013-08-18 17:12:00,73.4,66.1,30.08,ESE,102,0.0,0.0,78,0.00,,CLR,0.00,VWS V14.01,2013-08-18 21:12:00,
2013-08-18 17:13:00,73.4,66.1,30.08,ESE,102,0.0,0.0,78,0.00,,CLR,0.00,VWS V14.01,2013-08-18 21:13:00,
2013-08-18 17:14:00,74.4,66.0,30.08,East,101,0.0,0.0,76,0.00,,,0.00,weatherlink.com 1.10,2013-08-18 21:14:00,
2013-08-18 17:15:00,73.3,66.0,30.08,East,101,0.0,0.0,78,0.00,,CLR,0.00,VWS V14.01,2013-08-18 21:15:00,
2013-08-18 17:16:00,73.2,65.9,30.08,ESE,102,0.0,0.0,78,0.00,,CLR,0.00,VWS V14.01,2013-08-18 21:16:00,
2013-08-18 17:17:00,73.2,65.9,30.08,ESE,102,0.0,0.0,78,0.00,,CLR,0.00,VWS V14.01,2013-08-18 21:17:00,
2013-08-18 17:18:00,73.1,65.8,30.08,East,101,0.0,0.0,78,0.00,,CLR,0.00,VWS V14.01,2013-08-18 21:18:00,
2013-08-18 17:19:00,73.1,66.2,30.08,East,101,0.0,0.0,79,0.00,,CLR,0.00,VWS V14.01,2013-08-18 21:19:00,
2013-08-18 17:20:00,73.1,66.2,30.08,East,101,0.0,0.0,79,0.00,,CLR,0.00,VWS V14.01,2013-08-18 21:20:00,
2013-08-18 17:21:00,73.1,66.6,30.08,ESE,102,0.0,0.0,80,0.00,,CLR,0.00,VWS V14.01,2013-08-18 21:21:00,
2013-08-18 17:22:00,73.1,66.6,30.08,ESE,102,0.0,0.0,80,0.00,,CLR,0.00,VWS V14.01,2013-08-18 21:22:00,
2013-08-18 17:23:00,73.1,66.6,30.08,East,101,0.0,0.0,80,0.00,,CLR,0.00,VWS V14.01,2013-08-18 21:23:00,
2013-08-18 17:24:00,73.1,66.6,30.08,East,101,0.0,0.0,80,0.00,,CLR,0.00,VWS V14.01,2013-08-18 21:24:00,
2013-08-18 17:25:00,73.0,66.8,30.08,ESE,102,0.0,0.0,81,0.00,,CLR,0.00,VWS V14.01,2013-08-18 21:25:00,
2013-08-18 17:26:00,73.0,66.8,30.08,East,101,0.0,0.0,81,0.00,,CLR,0.00,VWS V14.01,2013-08-18 21:26:00,
2013-08-18 17:27:00,72.9,66.7,30.08,East,101,0.0,0.0,81,0.00,,CLR,0.00,VWS V14.01,2013-08-18 21:27:00,
2013-08-18 17:28:00,72.9,66.7,30.08,ESE,102,0.0,0.0,81,0.00,,CLR,0.00,VWS V14.01,2013-08-18 21:28:00,
2013-08-18 17:29:00,72.8,66.6,30.08,East,101,0.0,0.0,81,0.00,,CLR,0.00,VWS V14.01,2013-08-18 21:29:00,
2013-08-18 17:30:00,73.7,66.0,30.08,East,101,0.0,0.0,78,0.00,,,0.00,weatherlink.com 1.10,2013-08-18 21:30:00,
2013-08-18 17:31:00,72.8,66.3,30.08,ESE,102,0.0,0.0,80,0.00,,CLR,0.00,VWS V14.01,2013-08-18 21:31:00,
2013-08-18 17:32:00,72.8,66.3,30.07,ESE,102,0.0,0.0,80,0.00,,CLR,0.00,VWS V14.01,2013-08-18 21:32:00,
2013-08-18 17:33:00,72.7,66.5,30.08,East,101,0.0,0.0,81,0.00,,CLR,0.00,VWS V14.01,2013-08-18 21:33:00,
2013-08-18 17:34:00,72.7,66.5,30.07,East,101,0.0,0.0,81,0.00,,CLR,0.00,VWS V14.01,2013-08-18 21:34:00,
2013-08-18 17:35:00,72.7,66.5,30.08,ESE,102,0.0,0.0,81,0.00,,CLR,0.00,VWS V14.01,2013-08-18 21:35:00,
2013-08-18 17:36:00,72.6,66.4,30.08,East,101,0.0,0.0,81,0.00,,CLR,0.00,VWS V14.01,2013-08-18 21:36:00,
2013-08-18 17:37:00,72.6,66.8,30.08,ESE,102,0.0,0.0,82,0.00,,CLR,0.00,VWS V14.01,2013-08-18 21:37:00,
2013-08-18 17:38:00,72.6,66.8,30.08,ESE,102,0.0,0.0,82,0.00,,CLR,0.00,VWS V14.01,2013-08-18 21:38:00,
2013-08-18 17:39:00,72.6,66.8,30.08,ESE,102,0.0,0.0,82,0.00,,CLR,0.00,VWS V14.01,2013-08-18 21:39:00,
2013-08-18 17:40:00,72.6,66.8,30.07,ESE,102,0.0,0.0,82,0.00,,CLR,0.00,VWS V14.01,2013-08-18 21:40:00,
2013-08-18 17:41:00,72.6,67.2,30.08,ESE,103,0.0,0.0,83,0.00,,CLR,0.00,VWS V14.01,2013-08-18 21:41:00,
2013-08-18 17:42:00,72.6,67.2,30.08,ESE,103,0.0,0.0,83,0.00,,CLR,0.00,VWS V14.01,2013-08-18 21:42:00,
2013-08-18 17:43:00,72.5,67.1,30.08,ESE,103,0.0,0.0,83,0.00,,CLR,0.00,VWS V14.01,2013-08-18 21:43:00,
2013-08-18 17:44:00,72.5,67.1,30.07,ESE,103,0.0,0.0,83,0.00,,CLR,0.00,VWS V14.01,2013-08-18 21:44:00,
2013-08-18 17:45:00,72.5,67.1,30.07,ESE,103,0.0,0.0,83,0.00,,CLR,0.00,VWS V14.01,2013-08-18 21:45:00,
2013-08-18 17:46:00,72.5,67.1,30.07,ESE,103,0.0,0.0,83,0.00,,CLR,0.00,VWS V14.01,2013-08-18 21:46:00,
2013-08-18 17:47:00,73.1,67.0,30.08,ESE,102,0.0,0.0,80,0.00,,,0.00,weatherlink.com 1.10,2013-08-18 21:47:00,
2013-08-18 17:48:00,72.4,66.9,30.07,ESE,103,0.0,0.0,83,0.00,,CLR,0.00,VWS V14.01,2013-08-18 21:48:00,
2013-08-18 17:49:00,72.4,66.6,30.07,ESE,103,0.0,0.0,82,0.00,,CLR,0.00,VWS V14.01,2013-08-18 21:49:00,
2013-08-18 17:50:00,72.4,66.6,30.07,ESE,103,0.0,0.0,82,0.00,,CLR,0.00,VWS V14.01,2013-08-18 21:50:00,
2013-08-18 17:51:00,72.4,66.6,30.07,ESE,103,0.0,0.0,82,0.00,,CLR,0.00,VWS V14.01,2013-08-18 21:51:00,
2013-08-18 17:52:00,72.3,66.2,30.07,ESE,103,0.0,0.0,81,0.00,,CLR,0.00,VWS V14.01,2013-08-18 21:52:00,
2013-08-18 17:53:00,72.3,66.2,30.07,ESE,103,0.0,0.0,81,0.00,,CLR,0.00,VWS V14.01,2013-08-18 21:53:00,
2013-08-18 17:54:00,72.3,66.2,30.07,ESE,103,0.0,0.0,81,0.00,,CLR,0.00,VWS V14.01,2013-08-18 21:54:00,
2013-08-18 17:55:00,72.3,66.2,30.07,ESE,103,0.0,0.0,81,0.00,,CLR,0.00,VWS V14.01,2013-08-18 21:55:00,
2013-08-18 17:56:00,72.3,66.5,30.07,ESE,103,0.0,0.0,82,0.00,,CLR,0.00,VWS V14.01,2013-08-18 21:56:00,
2013-08-18 17:57:00,72.3,66.5,30.07,ESE,103,0.0,0.0,82,0.00,,CLR,0.00,VWS V14.01,2013-08-18 21:57:00,
2013-08-18 17:58:00,72.2,66.4,30.07,ESE,103,0.0,0.0,82,0.00,,CLR,0.00,VWS V14.01,2013-08-18 21:58:00,
2013-08-18 17:59:00,72.2,66.4,30.07,ESE,103,0.0,0.0,82,0.00,,CLR,0.00,VWS V14.01,2013-08-18 21:59:00,
2013-08-18 18:00:00,72.2,66.1,30.07,ESE,103,0.0,0.0,81,0.00,,CLR,0.00,VWS V14.01,2013-08-18 22:00:00,
2013-08-18 18:01:00,72.2,66.1,30.07,ESE,103,0.0,0.0,81,0.00,,CLR,0.00,VWS V14.01,2013-08-18 22:01:00,
2013-08-18 18:02:00,72.2,66.1,30.07,ESE,103,0.0,0.0,81,0.00,,CLR,0.00,VWS V14.01,2013-08-18 22:02:00,
2013-08-18 18:03:00,72.1,65.9,30.07,ESE,103,0.0,0.0,81,0.00,,CLR,0.00,VWS V14.01,2013-08-18 22:03:00,
2013-08-18 18:04:00,72.6,67.0,30.07,East,101,0.0,0.0,82,0.00,,,0.00,weatherlink.com 1.10,2013-08-18 22:04:00,
2013-08-18 18:05:00,72.1,66.3,30.07,ESE,103,0.0,0.0,82,0.00,,CLR,0.00,VWS V14.01,2013-08-18 22:05:00,
2013-08-18 18:06:00,72.2,66.4,30.07,ESE,103,0.0,0.0,82,0.00,,CLR,0.00,VWS V14.01,2013-08-18 22:06:00,
2013-08-18 18:07:00,72.2,66.4,30.07,ESE,103,0.0,0.0,82,0.00,,CLR,0.00,VWS V14.01,2013-08-18 22:07:00,
2013-08-18 18:08:00,72.2,66.4,30.07,ESE,103,0.0,0.0,82,0.00,,CLR,0.00,VWS V14.01,2013-08-18 22:08:00,
2013-08-18 18:09:00,72.1,66.3,30.07,ESE,103,0.0,0.0,82,0.00,,CLR,0.00,VWS V14.01,2013-08-18 22:09:00,
2013-08-18 18:10:00,72.1,66.3,30.06,ESE,103,0.0,0.0,82,0.00,,CLR,0.00,VWS V14.01,2013-08-18 22:10:00,
2013-08-18 18:11:00,72.1,65.9,30.07,ESE,103,0.0,0.0,81,0.00,,CLR,0.00,VWS V14.01,2013-08-18 22:11:00,
2013-08-18 18:12:00,72.0,65.5,30.06,ESE,103,0.0,0.0,80,0.00,,CLR,0.00,VWS V14.01,2013-08-18 22:12:00,
2013-08-18 18:13:00,72.0,65.5,30.06,ESE,103,0.0,0.0,80,0.00,,CLR,0.00,VWS V14.01,2013-08-18 22:13:00,
2013-08-18 18:14:00,71.9,65.4,30.06,ESE,103,0.0,0.0,80,0.00,,CLR,0.00,VWS V14.01,2013-08-18 22:14:00,
2013-08-18 18:15:00,71.9,65.0,30.06,ESE,103,0.0,0.0,79,0.00,,CLR,0.00,VWS V14.01,2013-08-18 22:15:00,
2013-08-18 18:16:00,71.8,64.9,30.06,ESE,103,0.0,0.0,79,0.00,,CLR,0.00,VWS V14.01,2013-08-18 22:16:00,
2013-08-18 18:17:00,71.8,65.3,30.06,ESE,103,0.0,0.0,80,0.00,,CLR,0.00,VWS V14.01,2013-08-18 22:17:00,
2013-08-18 18:18:00,71.8,65.3,30.06,ESE,103,0.0,0.0,80,0.00,,CLR,0.00,VWS V14.01,2013-08-18 22:18:00,
2013-08-18 18:19:00,71.7,65.2,30.06,ESE,103,0.0,0.0,80,0.00,,CLR,0.00,VWS V14.01,2013-08-18 22:19:00,
2013-08-18 18:20:00,72.3,66.0,30.07,ESE,103,0.0,1.0,81,0.00,,,0.00,weatherlink.com 1.10,2013-08-18 22:20:00,
2013-08-18 18:21:00,71.6,65.1,30.06,ESE,103,0.0,0.0,80,0.00,,CLR,0.00,VWS V14.01,2013-08-18 22:21:00,
2013-08-18 18:22:00,71.6,65.1,30.06,ESE,103,0.0,0.0,80,0.00,,CLR,0.00,VWS V14.01,2013-08-18 22:22:00,
2013-08-18 18:23:00,71.6,65.1,30.06,ESE,103,0.0,0.0,80,0.00,,CLR,0.00,VWS V14.01,2013-08-18 22:23:00,
2013-08-18 18:24:00,71.5,65.0,30.06,ESE,103,0.0,0.0,80,0.00,,CLR,0.00,VWS V14.01,2013-08-18 22:24:00,
2013-08-18 18:25:00,71.4,64.9,30.06,ESE,103,0.0,0.0,80,0.00,,CLR,0.00,VWS V14.01,2013-08-18 22:25:00,
2013-08-18 18:26:00,71.4,64.9,30.07,ESE,103,0.0,0.0,80,0.00,,CLR,0.00,VWS V14.01,2013-08-18 22:26:00,
2013-08-18 18:27:00,71.4,64.9,30.06,ESE,103,0.0,0.0,80,0.00,,CLR,0.00,VWS V14.01,2013-08-18 22:27:00,
2013-08-18 18:28:00,71.4,64.9,30.06,ESE,103,0.0,0.0,80,0.00,,CLR,0.00,VWS V14.01,2013-08-18 22:28:00,
2013-08-18 18:29:00,71.3,64.8,30.06,ESE,103,0.0,0.0,80,0.00,,CLR,0.00,VWS V14.01,2013-08-18 22:29:00,
2013-08-18 18:30:00,71.2,65.1,30.06,ESE,103,0.0,0.0,81,0.00,,CLR,0.00,VWS V14.01,2013-08-18 22:30:00,
2013-08-18 18:31:00,71.2,65.1,30.06,ESE,103,0.0,0.0,81,0.00,,CLR,0.00,VWS V14.01,2013-08-18 22:31:00,
2013-08-18 18:32:00,71.2,65.1,30.06,ESE,103,0.0,0.0,81,0.00,,CLR,0.00,VWS V14.01,2013-08-18 22:32:00,
2013-08-18 18:33:00,71.1,65.0,30.06,ESE,103,0.0,0.0,81,0.00,,CLR,0.00,VWS V14.01,2013-08-18 22:33:00,
2013-08-18 18:34:00,71.0,64.5,30.06,ESE,103,0.0,0.0,80,0.00,,CLR,0.00,VWS V14.01,2013-08-18 22:34:00,
2013-08-18 18:35:00,71.0,64.9,30.06,ESE,103,0.0,0.0,81,0.00,,CLR,0.00,VWS V14.01,2013-08-18 22:35:00,
2013-08-18 18:36:00,72.1,66.0,30.06,ESE,103,0.0,1.0,82,0.00,,,0.00,weatherlink.com 1.10,2013-08-18 22:36:00,
2013-08-18 18:37:00,70.9,64.4,30.07,ESE,103,0.0,0.0,80,0.00,,CLR,0.00,VWS V14.01,2013-08-18 22:37:00,
2013-08-18 18:38:00,70.8,64.3,30.06,ESE,103,0.0,0.0,80,0.00,,CLR,0.00,VWS V14.01,2013-08-18 22:38:00,
2013-08-18 18:39:00,70.8,64.7,30.07,ESE,103,0.0,0.0,81,0.00,,CLR,0.00,VWS V14.01,2013-08-18 22:39:00,
2013-08-18 18:40:00,70.8,64.7,30.06,ESE,103,0.0,0.0,81,0.00,,CLR,0.00,VWS V14.01,2013-08-18 22:40:00,
2013-08-18 18:41:00,70.7,64.2,30.06,ESE,103,0.0,0.0,80,0.00,,CLR,0.00,VWS V14.01,2013-08-18 22:41:00,
2013-08-18 18:42:00,70.7,64.2,30.06,ESE,103,0.0,0.0,80,0.00,,CLR,0.00,VWS V14.01,2013-08-18 22:42:00,
2013-08-18 18:43:00,70.6,64.1,30.07,ESE,103,0.0,0.0,80,0.00,,CLR,0.00,VWS V14.01,2013-08-18 22:43:00,
2013-08-18 18:44:00,70.6,64.1,30.06,ESE,103,0.0,0.0,80,0.00,,CLR,0.00,VWS V14.01,2013-08-18 22:44:00,
2013-08-18 18:45:00,70.5,63.7,30.07,ESE,103,0.0,0.0,79,0.00,,CLR,0.00,VWS V14.01,2013-08-18 22:45:00,
2013-08-18 18:46:00,70.5,63.7,30.06,ESE,103,0.0,0.0,79,0.00,,CLR,0.00,VWS V14.01,2013-08-18 22:46:00,
2013-08-18 18:47:00,70.4,63.6,30.06,ESE,103,0.0,0.0,79,0.00,,CLR,0.00,VWS V14.01,2013-08-18 22:47:00,
2013-08-18 18:48:00,70.4,63.6,30.06,ESE,103,0.0,0.0,79,0.00,,CLR,0.00,VWS V14.01,2013-08-18 22:48:00,
2013-08-18 18:49:00,70.3,63.5,30.06,ESE,103,0.0,0.0,79,0.00,,CLR,0.00,VWS V14.01,2013-08-18 22:49:00,
2013-08-18 18:50:00,70.3,63.8,30.06,ESE,103,0.0,0.0,80,0.00,,CLR,0.00,VWS V14.01,2013-08-18 22:50:00,
2013-08-18 18:51:00,70.3,63.8,30.06,ESE,103,0.0,0.0,80,0.00,,CLR,0.00,VWS V14.01,2013-08-18 22:51:00,
2013-08-18 18:52:00,70.2,63.8,30.06,ESE,103,0.0,0.0,80,0.00,,CLR,0.00,VWS V14.01,2013-08-18 22:52:00,
2013-08-18 18:53:00,71.4,65.0,30.06,ESE,103,0.0,0.0,80,0.00,,,0.00,weatherlink.com 1.10,2013-08-18 22:53:00,
2013-08-18 18:54:00,70.1,64.0,30.06,ESE,103,0.0,0.0,81,0.00,,CLR,0.00,VWS V14.01,2013-08-18 22:54:00,
2013-08-18 18:55:00,70.1,64.0,30.06,ESE,103,0.0,0.0,81,0.00,,CLR,0.00,VWS V14.01,2013-08-18 22:55:00,
2013-08-18 18:56:00,70.1,64.0,30.06,ESE,103,0.0,0.0,81,0.00,,CLR,0.00,VWS V14.01,2013-08-18 22:56:00,
2013-08-18 18:57:00,70.0,64.3,30.06,ESE,103,0.0,0.0,82,0.00,,CLR,0.00,VWS V14.01,2013-08-18 22:57:00,
2013-08-18 18:58:00,70.0,64.3,30.06,ESE,103,0.0,0.0,82,0.00,,CLR,0.00,VWS V14.01,2013-08-18 22:58:00,
2013-08-18 18:59:00,69.9,64.5,30.06,ESE,103,0.0,0.0,83,0.00,,CLR,0.00,VWS V14.01,2013-08-18 22:59:00,
2013-08-18 19:00:00,69.8,64.4,30.06,ESE,103,0.0,0.0,83,0.00,,CLR,0.00,VWS V14.01,2013-08-18 23:00:00,
2013-08-18 19:01:00,69.8,64.4,30.06,ESE,103,0.0,0.0,83,0.00,,CLR,0.00,VWS V14.01,2013-08-18 23:01:00,
2013-08-18 19:02:00,69.8,64.4,30.06,ESE,103,0.0,0.0,83,0.00,,CLR,0.00,VWS V14.01,2013-08-18 23:02:00,
2013-08-18 19:03:00,69.7,64.3,30.06,ESE,103,0.0,0.0,83,0.00,,CLR,0.00,VWS V14.01,2013-08-18 23:03:00,
2013-08-18 19:04:00,69.7,64.3,30.06,ESE,103,0.0,0.0,83,0.00,,CLR,0.00,VWS V14.01,2013-08-18 23:04:00,
2013-08-18 19:05:00,69.6,64.2,30.06,ESE,103,0.0,0.0,83,0.00,,CLR,0.00,VWS V14.01,2013-08-18 23:05:00,
2013-08-18 19:06:00,69.6,64.2,30.06,ESE,103,0.0,0.0,83,0.00,,CLR,0.00,VWS V14.01,2013-08-18 23:06:00,
2013-08-18 19:07:00,69.5,64.1,30.06,ESE,103,0.0,0.0,83,0.00,,CLR,0.00,VWS V14.01,2013-08-18 23:07:00,
2013-08-18 19:08:00,69.5,64.1,30.06,ESE,103,0.0,0.0,83,0.00,,CLR,0.00,VWS V14.01,2013-08-18 23:08:00,
2013-08-18 19:09:00,70.6,64.0,30.06,ESE,103,0.0,0.0,80,0.00,,,0.00,weatherlink.com 1.10,2013-08-18 23:09:00,
2013-08-18 19:10:00,69.4,64.0,30.06,ESE,103,0.0,0.0,83,0.00,,CLR,0.00,VWS V14.01,2013-08-18 23:10:00,
2013-08-18 19:11:00,69.3,63.9,30.06,ESE,103,0.0,0.0,83,0.00,,CLR,0.00,VWS V14.01,2013-08-18 23:11:00,
2013-08-18 19:12:00,69.2,63.8,30.06,ESE,103,0.0,0.0,83,0.00,,CLR,0.00,VWS V14.01,2013-08-18 23:12:00,
2013-08-18 19:13:00,69.2,63.8,30.06,ESE,103,0.0,0.0,83,0.00,,CLR,0.00,VWS V14.01,2013-08-18 23:13:00,
2013-08-18 19:14:00,69.1,63.7,30.06,ESE,103,0.0,0.0,83,0.00,,CLR,0.00,VWS V14.01,2013-08-18 23:14:00,
2013-08-18 19:15:00,69.0,63.6,30.06,ESE,103,0.0,0.0,83,0.00,,CLR,0.00,VWS V14.01,2013-08-18 23:15:00,
2013-08-18 19:16:00,68.9,63.9,30.06,ESE,103,0.0,0.0,84,0.00,,CLR,0.00,VWS V14.01,2013-08-18 23:16:00,
2013-08-18 19:17:00,68.9,63.9,30.07,ESE,103,0.0,0.0,84,0.00,,CLR,0.00,VWS V14.01,2013-08-18 23:17:00,
2013-08-18 19:18:00,68.8,63.4,30.06,ESE,103,0.0,0.0,83,0.00,,CLR,0.00,VWS V14.01,2013-08-18 23:18:00,
2013-08-18 19:19:00,68.7,63.3,30.06,ESE,103,0.0,0.0,83,0.00,,CLR,0.00,VWS V14.01,2013-08-18 23:19:00,
2013-08-18 19:20:00,68.6,63.2,30.07,ESE,103,0.0,0.0,83,0.00,,CLR,0.00,VWS V14.01,2013-08-18 23:20:00,
2013-08-18 19:21:00,68.6,63.6,30.06,ESE,103,0.0,0.0,84,0.00,,CLR,0.00,VWS V14.01,2013-08-18 23:21:00,
2013-08-18 19:22:00,68.5,63.5,30.06,ESE,103,0.0,0.0,84,0.00,,CLR,0.00,VWS V14.01,2013-08-18 23:22:00,
2013-08-18 19:23:00,68.5,63.5,30.06,ESE,103,0.0,0.0,84,0.00,,CLR,0.00,VWS V14.01,2013-08-18 23:23:00,
2013-08-18 19:24:00,68.4,63.7,30.06,ESE,103,0.0,0.0,85,0.00,,CLR,0.00,VWS V14.01,2013-08-18 23:24:00,
2013-08-18 19:25:00,68.3,63.6,30.06,ESE,103,0.0,0.0,85,0.00,,CLR,0.00,VWS V14.01,2013-08-18 23:25:00,
2013-08-18 19:26:00,69.9,65.0,30.06,ESE,103,0.0,0.0,83,0.00,,,0.00,weatherlink.com 1.10,2013-08-18 23:26:00,
2013-08-18 19:27:00,68.2,63.2,30.06,ESE,103,0.0,1.0,84,0.00,,CLR,0.00,VWS V14.01,2013-08-18 23:27:00,
2013-08-18 19:28:00,68.2,63.2,30.06,ESE,103,0.0,1.0,84,0.00,,CLR,0.00,VWS V14.01,2013-08-18 23:28:00,
2013-08-18 19:29:00,68.2,63.2,30.07,ESE,103,0.0,1.0,84,0.00,,CLR,0.00,VWS V14.01,2013-08-18 23:29:00,
2013-08-18 19:30:00,68.2,63.2,30.07,ESE,103,0.0,1.0,84,0.00,,CLR,0.00,VWS V14.01,2013-08-18 23:30:00,
2013-08-18 19:31:00,68.1,63.1,30.07,ESE,103,0.0,0.0,84,0.00,,CLR,0.00,VWS V14.01,2013-08-18 23:31:00,
2013-08-18 19:32:00,68.1,63.1,30.07,ESE,103,0.0,0.0,84,0.00,,CLR,0.00,VWS V14.01,2013-08-18 23:32:00,
2013-08-18 19:33:00,68.0,62.7,30.07,ESE,103,0.0,0.0,83,0.00,,CLR,0.00,VWS V14.01,2013-08-18 23:33:00,
2013-08-18 19:34:00,68.0,63.0,30.07,ESE,103,0.0,0.0,84,0.00,,CLR,0.00,VWS V14.01,2013-08-18 23:34:00,
2013-08-18 19:35:00,67.9,62.9,30.07,ESE,103,0.0,0.0,84,0.00,,CLR,0.00,VWS V14.01,2013-08-18 23:35:00,
2013-08-18 19:36:00,67.9,62.9,30.07,ESE,103,0.0,0.0,84,0.00,,CLR,0.00,VWS V14.01,2013-08-18 23:36:00,
2013-08-18 19:37:00,67.9,62.9,30.07,ESE,103,0.0,0.0,84,0.00,,CLR,0.00,VWS V14.01,2013-08-18 23:37:00,
2013-08-18 19:38:00,67.9,62.9,30.07,ESE,103,0.0,0.0,84,0.00,,CLR,0.00,VWS V14.01,2013-08-18 23:38:00,
2013-08-18 19:39:00,67.8,62.8,30.07,ESE,103,0.0,0.0,84,0.00,,CLR,0.00,VWS V14.01,2013-08-18 23:39:00,
2013-08-18 19:40:00,67.8,62.8,30.07,ESE,103,0.0,0.0,84,0.00,,CLR,0.00,VWS V14.01,2013-08-18 23:40:00,
2013-08-18 19:41:00,67.7,62.7,30.07,ESE,103,0.0,0.0,84,0.00,,CLR,0.00,VWS V14.01,2013-08-18 23:41:00,
2013-08-18 19:42:00,69.0,64.0,30.06,ESE,103,0.0,0.0,84,0.00,,,0.00,weatherlink.com 1.10,2013-08-18 23:42:00,
2013-08-18 19:43:00,67.7,63.0,30.07,ESE,103,0.0,0.0,85,0.00,,CLR,0.00,VWS V14.01,2013-08-18 23:43:00,
2013-08-18 19:44:00,67.7,62.7,30.07,ESE,103,0.0,0.0,84,0.00,,CLR,0.00,VWS V14.01,2013-08-18 23:44:00,
2013-08-18 19:45:00,67.6,62.6,30.07,ESE,103,0.0,0.0,84,0.00,,CLR,0.00,VWS V14.01,2013-08-18 23:45:00,
2013-08-18 19:46:00,67.6,62.6,30.07,ESE,103,0.0,0.0,84,0.00,,CLR,0.00,VWS V14.01,2013-08-18 23:46:00,
2013-08-18 19:47:00,67.6,62.6,30.07,ESE,103,0.0,0.0,84,0.00,,CLR,0.00,VWS V14.01,2013-08-18 23:47:00,
2013-08-18 19:48:00,67.5,62.8,30.07,ESE,103,0.0,0.0,85,0.00,,CLR,0.00,VWS V14.01,2013-08-18 23:48:00,
2013-08-18 19:49:00,67.5,62.5,30.07,ESE,103,0.0,0.0,84,0.00,,CLR,0.00,VWS V14.01,2013-08-18 23:49:00,
2013-08-18 19:50:00,67.5,62.5,30.07,ESE,103,0.0,0.0,84,0.00,,CLR,0.00,VWS V14.01,2013-08-18 23:50:00,
2013-08-18 19:51:00,67.4,62.4,30.07,ESE,103,0.0,0.0,84,0.00,,CLR,0.00,VWS V14.01,2013-08-18 23:51:00,
2013-08-18 19:52:00,67.4,62.4,30.07,ESE,103,0.0,0.0,84,0.00,,CLR,0.00,VWS V14.01,2013-08-18 23:52:00,
2013-08-18 19:53:00,67.4,62.4,30.07,ESE,103,0.0,0.0,84,0.00,,CLR,0.00,VWS V14.01,2013-08-18 23:53:00,
2013-08-18 19:54:00,67.4,62.7,30.07,ESE,103,0.0,0.0,85,0.00,,CLR,0.00,VWS V14.01,2013-08-18 23:54:00,
2013-08-18 19:55:00,67.4,62.7,30.07,ESE,103,0.0,0.0,85,0.00,,CLR,0.00,VWS V14.01,2013-08-18 23:55:00,
2013-08-18 19:56:00,67.4,62.7,30.07,ESE,103,0.0,0.0,85,0.00,,CLR,0.00,VWS V14.01,2013-08-18 23:56:00,
2013-08-18 19:57:00,67.4,62.7,30.07,ESE,103,0.0,0.0,85,0.00,,CLR,0.00,VWS V14.01,2013-08-18 23:57:00,
2013-08-18 19:58:00,68.1,63.0,30.07,ESE,103,0.0,1.0,83,0.00,,,0.00,weatherlink.com 1.10,2013-08-18 23:58:00,
2013-08-18 19:59:00,67.4,62.7,30.07,ESE,103,0.0,0.0,85,0.00,,CLR,0.00,VWS V14.01,2013-08-18 23:59:00,
2013-08-18 20:00:00,67.4,62.7,30.06,ESE,103,0.0,0.0,85,0.00,,CLR,0.00,VWS V14.01,2013-08-19 00:00:00,
2013-08-18 20:01:00,67.3,62.6,30.06,ESE,103,0.0,0.0,85,0.00,,CLR,0.00,VWS V14.01,2013-08-19 00:01:00,
2013-08-18 20:02:00,67.3,62.6,30.07,ESE,103,0.0,0.0,85,0.00,,CLR,0.00,VWS V14.01,2013-08-19 00:02:00,
2013-08-18 20:03:00,67.3,62.6,30.07,ESE,103,0.0,0.0,85,0.00,,CLR,0.00,VWS V14.01,2013-08-19 00:03:00,
2013-08-18 20:04:00,67.3,62.6,30.06,ESE,103,0.0,0.0,85,0.00,,CLR,0.00,VWS V14.01,2013-08-19 00:04:00,
2013-08-18 20:05:00,67.3,62.6,30.07,ESE,103,0.0,0.0,85,0.00,,CLR,0.00,VWS V14.01,2013-08-19 00:05:00,
2013-08-18 20:06:00,67.3,62.6,30.06,ESE,103,0.0,0.0,85,0.00,,CLR,0.00,VWS V14.01,2013-08-19 00:06:00,
2013-08-18 20:07:00,67.2,62.5,30.06,ESE,103,0.0,0.0,85,0.00,,CLR,0.00,VWS V14.01,2013-08-19 00:07:00,
2013-08-18 20:08:00,67.2,62.5,30.06,ESE,103,0.0,0.0,85,0.00,,CLR,0.00,VWS V14.01,2013-08-19 00:08:00,
2013-08-18 20:09:00,67.2,62.5,30.06,ESE,103,0.0,0.0,85,0.00,,CLR,0.00,VWS V14.01,2013-08-19 00:09:00,
2013-08-18 20:10:00,67.1,62.5,30.06,ESE,103,0.0,0.0,85,0.00,,CLR,0.00,VWS V14.01,2013-08-19 00:10:00,
2013-08-18 20:11:00,67.1,62.5,30.07,ESE,103,0.0,0.0,85,0.00,,CLR,0.00,VWS V14.01,2013-08-19 00:11:00,
2013-08-18 20:12:00,67.1,62.5,30.06,ESE,103,0.0,0.0,85,0.00,,CLR,0.00,VWS V14.01,2013-08-19 00:12:00,
2013-08-18 20:13:00,67.1,62.5,30.07,ESE,103,0.0,0.0,85,0.00,,CLR,0.00,VWS V14.01,2013-08-19 00:13:00,
2013-08-18 20:14:00,67.1,62.5,30.06,ESE,103,0.0,0.0,85,0.00,,CLR,0.00,VWS V14.01,2013-08-19 00:14:00,
2013-08-18 20:15:00,67.5,63.0,30.07,ESE,103,0.0,0.0,84,0.00,,,0.00,weatherlink.com 1.10,2013-08-19 00:15:00,
2013-08-18 20:16:00,67.1,62.5,30.06,ESE,103,0.0,0.0,85,0.00,,CLR,0.00,VWS V14.01,2013-08-19 00:16:00,
2013-08-18 20:17:00,67.1,62.5,30.07,ESE,103,0.0,0.0,85,0.00,,CLR,0.00,VWS V14.01,2013-08-19 00:17:00,
2013-08-18 20:18:00,67.1,62.5,30.06,ESE,103,0.0,0.0,85,0.00,,CLR,0.00,VWS V14.01,2013-08-19 00:18:00,
2013-08-18 20:19:00,67.1,62.5,30.06,ESE,103,0.0,0.0,85,0.00,,CLR,0.00,VWS V14.01,2013-08-19 00:19:00,
2013-08-18 20:20:00,67.1,62.1,30.06,ESE,103,0.0,0.0,84,0.00,,CLR,0.00,VWS V14.01,2013-08-19 00:20:00,
2013-08-18 20:21:00,67.1,62.1,30.06,ESE,103,0.0,0.0,84,0.00,,CLR,0.00,VWS V14.01,2013-08-19 00:21:00,
2013-08-18 20:22:00,67.1,62.5,30.06,ESE,103,0.0,0.0,85,0.00,,CLR,0.00,VWS V14.01,2013-08-19 00:22:00,
2013-08-18 20:23:00,67.1,62.5,30.06,ESE,103,0.0,0.0,85,0.00,,CLR,0.00,VWS V14.01,2013-08-19 00:23:00,
2013-08-18 20:24:00,67.1,62.1,30.06,ESE,103,0.0,0.0,84,0.00,,CLR,0.00,VWS V14.01,2013-08-19 00:24:00,
2013-08-18 20:25:00,67.2,62.5,30.06,ESE,103,0.0,0.0,85,0.00,,CLR,0.00,VWS V14.01,2013-08-19 00:25:00,
2013-08-18 20:26:00,67.2,62.5,30.06,ESE,103,0.0,0.0,85,0.00,,CLR,0.00,VWS V14.01,2013-08-19 00:26:00,
2013-08-18 20:27:00,67.2,62.5,30.06,ESE,103,0.0,0.0,85,0.00,,CLR,0.00,VWS V14.01,2013-08-19 00:27:00,
2013-08-18 20:28:00,67.2,62.5,30.06,ESE,103,0.0,0.0,85,0.00,,CLR,0.00,VWS V14.01,2013-08-19 00:28:00,
2013-08-18 20:29:00,67.3,62.6,30.06,ESE,103,0.0,0.0,85,0.00,,CLR,0.00,VWS V14.01,2013-08-19 00:29:00,
2013-08-18 20:30:00,67.3,62.6,30.06,ESE,103,0.0,0.0,85,0.00,,CLR,0.00,VWS V14.01,2013-08-19 00:30:00,
2013-08-18 20:31:00,67.3,62.3,30.06,ESE,103,0.0,0.0,84,0.00,,CLR,0.00,VWS V14.01,2013-08-19 00:31:00,
2013-08-18 20:32:00,67.3,63.0,30.06,ESE,103,0.0,0.0,85,0.00,,,0.00,weatherlink.com 1.10,2013-08-19 00:32:00,
2013-08-18 20:33:00,67.3,62.3,30.06,ESE,103,0.0,0.0,84,0.00,,CLR,0.00,VWS V14.01,2013-08-19 00:33:00,
2013-08-18 20:34:00,67.3,62.3,30.06,ESE,103,0.0,0.0,84,0.00,,CLR,0.00,VWS V14.01,2013-08-19 00:34:00,
2013-08-18 20:35:00,67.3,62.3,30.06,ESE,103,0.0,0.0,84,0.00,,CLR,0.00,VWS V14.01,2013-08-19 00:35:00,
2013-08-18 20:36:00,67.3,62.3,30.06,ESE,103,0.0,0.0,84,0.00,,CLR,0.00,VWS V14.01,2013-08-19 00:36:00,
2013-08-18 20:37:00,67.3,62.6,30.06,ESE,103,0.0,0.0,85,0.00,,CLR,0.00,VWS V14.01,2013-08-19 00:37:00,
2013-08-18 20:38:00,67.3,62.3,30.06,ESE,103,0.0,0.0,84,0.00,,CLR,0.00,VWS V14.01,2013-08-19 00:38:00,
2013-08-18 20:39:00,67.2,62.2,30.06,ESE,103,0.0,0.0,84,0.00,,CLR,0.00,VWS V14.01,2013-08-19 00:39:00,
2013-08-18 20:40:00,67.2,62.2,30.06,ESE,103,0.0,0.0,84,0.00,,CLR,0.00,VWS V14.01,2013-08-19 00:40:00,
2013-08-18 20:41:00,67.2,62.2,30.06,ESE,103,0.0,0.0,84,0.00,,CLR,0.00,VWS V14.01,2013-08-19 00:41:00,
2013-08-18 20:42:00,67.2,62.5,30.06,ESE,103,0.0,0.0,85,0.00,,CLR,0.00,VWS V14.01,2013-08-19 00:42:00,
2013-08-18 20:43:00,67.1,62.5,30.06,ESE,103,0.0,0.0,85,0.00,,CLR,0.00,VWS V14.01,2013-08-19 00:43:00,
2013-08-18 20:44:00,67.1,62.1,30.06,ESE,103,0.0,0.0,84,0.00,,CLR,0.00,VWS V14.01,2013-08-19 00:44:00,
2013-08-18 20:45:00,67.1,62.1,30.06,ESE,103,0.0,0.0,84,0.00,,CLR,0.00,VWS V14.01,2013-08-19 00:45:00,
2013-08-18 20:46:00,67.1,62.5,30.06,ESE,103,0.0,0.0,85,0.00,,CLR,0.00,VWS V14.01,2013-08-19 00:46:00,
2013-08-18 20:47:00,67.1,62.5,30.06,ESE,103,0.0,0.0,85,0.00,,CLR,0.00,VWS V14.01,2013-08-19 00:47:00,
2013-08-18 20:48:00,67.1,63.0,30.06,ESE,103,0.0,0.0,85,0.00,,,0.00,weatherlink.com 1.10,2013-08-19 00:48:00,
2013-08-18 20:49:00,67.0,62.3,30.06,ESE,103,0.0,0.0,85,0.00,,CLR,0.00,VWS V14.01,2013-08-19 00:49:00,
2013-08-18 20:50:00,67.0,62.3,30.06,ESE,103,0.0,0.0,85,0.00,,CLR,0.00,VWS V14.01,2013-08-19 00:50:00,
2013-08-18 20:51:00,67.0,62.3,30.06,ESE,103,0.0,0.0,85,0.00,,CLR,0.00,VWS V14.01,2013-08-19 00:51:00,
2013-08-18 20:52:00,67.0,62.3,30.06,ESE,103,0.0,0.0,85,0.00,,CLR,0.00,VWS V14.01,2013-08-19 00:52:00,
2013-08-18 20:53:00,67.0,62.3,30.06,ESE,103,0.0,0.0,85,0.00,,CLR,0.00,VWS V14.01,2013-08-19 00:53:00,
2013-08-18 20:54:00,67.0,62.3,30.06,ESE,103,0.0,0.0,85,0.00,,CLR,0.00,VWS V14.01,2013-08-19 00:54:00,
2013-08-18 20:55:00,67.0,62.0,30.06,ESE,103,0.0,0.0,84,0.00,,CLR,0.00,VWS V14.01,2013-08-19 00:55:00,
2013-08-18 20:56:00,67.0,62.0,30.06,SSE,153,0.0,2.0,84,0.00,,CLR,0.00,VWS V14.01,2013-08-19 00:56:00,
2013-08-18 20:57:00,67.0,62.3,30.06,SSE,153,0.0,2.0,85,0.00,,CLR,0.00,VWS V14.01,2013-08-19 00:57:00,
2013-08-18 20:58:00,67.0,62.3,30.06,SSE,155,0.0,2.0,85,0.00,,CLR,0.00,VWS V14.01,2013-08-19 00:58:00,
2013-08-18 20:59:00,67.0,62.3,30.06,SSE,155,0.0,2.0,85,0.00,,CLR,0.00,VWS V14.01,2013-08-19 00:59:00,
2013-08-18 21:00:00,66.9,62.2,30.06,SSE,155,0.0,0.0,85,0.00,,CLR,0.00,VWS V14.01,2013-08-19 01:00:00,
2013-08-18 21:01:00,67.0,62.3,30.06,SSE,155,0.0,0.0,85,0.00,,CLR,0.00,VWS V14.01,2013-08-19 01:01:00,
2013-08-18 21:02:00,66.9,61.9,30.06,SSE,155,0.0,0.0,84,0.00,,CLR,0.00,VWS V14.01,2013-08-19 01:02:00,
2013-08-18 21:03:00,66.9,61.9,30.06,SSE,155,0.0,0.0,84,0.00,,CLR,0.00,VWS V14.01,2013-08-19 01:03:00,
2013-08-18 21:04:00,67.3,62.0,30.06,ESE,103,0.0,1.0,84,0.00,,,0.00,weatherlink.com 1.10,2013-08-19 01:04:00,
2013-08-18 21:05:00,66.9,62.2,30.06,SSE,155,0.0,0.0,85,0.00,,CLR,0.00,VWS V14.01,2013-08-19 01:05:00,
2013-08-18 21:06:00,66.9,62.2,30.06,SSE,155,0.0,0.0,85,0.00,,CLR,0.00,VWS V14.01,2013-08-19 01:06:00,
2013-08-18 21:07:00,66.9,62.2,30.06,SSE,155,0.0,0.0,85,0.00,,CLR,0.00,VWS V14.01,2013-08-19 01:07:00,
2013-08-18 21:08:00,66.9,62.2,30.06,SSE,155,0.0,0.0,85,0.00,,CLR,0.00,VWS V14.01,2013-08-19 01:08:00,
2013-08-18 21:09:00,66.9,62.2,30.06,SSE,155,0.0,0.0,85,0.00,,CLR,0.00,VWS V14.01,2013-08-19 01:09:00,
2013-08-18 21:10:00,66.9,62.2,30.06,SSE,155,0.0,0.0,85,0.00,,CLR,0.00,VWS V14.01,2013-08-19 01:10:00,
2013-08-18 21:11:00,66.9,62.2,30.06,SSE,155,0.0,0.0,85,0.00,,CLR,0.00,VWS V14.01,2013-08-19 01:11:00,
2013-08-18 21:12:00,67.0,62.3,30.05,SSE,155,0.0,0.0,85,0.00,,CLR,0.00,VWS V14.01,2013-08-19 01:12:00,
2013-08-18 21:13:00,67.0,62.3,30.05,SSE,155,0.0,0.0,85,0.00,,CLR,0.00,VWS V14.01,2013-08-19 01:13:00,
2013-08-18 21:14:00,67.0,62.3,30.06,SSE,155,0.0,0.0,85,0.00,,CLR,0.00,VWS V14.01,2013-08-19 01:14:00,
2013-08-18 21:15:00,67.0,62.3,30.05,SSE,155,0.0,0.0,85,0.00,,CLR,0.00,VWS V14.01,2013-08-19 01:15:00,
2013-08-18 21:16:00,67.0,62.3,30.05,SSE,155,0.0,0.0,85,0.00,,CLR,0.00,VWS V14.01,2013-08-19 01:16:00,
2013-08-18 21:17:00,67.0,62.3,30.05,SSE,155,0.0,0.0,85,0.00,,CLR,0.00,VWS V14.01,2013-08-19 01:17:00,
2013-08-18 21:18:00,66.9,62.2,30.05,SSE,155,0.0,0.0,85,0.00,,CLR,0.00,VWS V14.01,2013-08-19 01:18:00,
2013-08-18 21:19:00,66.9,62.2,30.05,SSE,155,0.0,0.0,85,0.00,,CLR,0.00,VWS V14.01,2013-08-19 01:19:00,
2013-08-18 21:20:00,66.8,62.2,30.05,SSE,154,0.0,0.0,85,0.00,,CLR,0.00,VWS V14.01,2013-08-19 01:20:00,
2013-08-18 21:21:00,67.0,62.0,30.06,ESE,103,0.0,0.0,85,0.00,,,0.00,weatherlink.com 1.10,2013-08-19 01:21:00,
2013-08-18 21:22:00,66.8,62.2,30.05,SSE,155,0.0,0.0,85,0.00,,CLR,0.00,VWS V14.01,2013-08-19 01:22:00,
2013-08-18 21:23:00,66.7,62.0,30.05,SSE,155,0.0,0.0,85,0.00,,CLR,0.00,VWS V14.01,2013-08-19 01:23:00,
2013-08-18 21:24:00,66.7,62.0,30.05,SSE,155,0.0,0.0,85,0.00,,CLR,0.00,VWS V14.01,2013-08-19 01:24:00,
2013-08-18 21:25:00,66.6,62.3,30.05,SSE,153,0.0,0.0,86,0.00,,CLR,0.00,VWS V14.01,2013-08-19 01:25:00,
2013-08-18 21:26:00,66.6,62.3,30.05,SSE,153,0.0,0.0,86,0.00,,CLR,0.00,VWS V14.01,2013-08-19 01:26:00,
2013-08-18 21:27:00,66.6,62.3,30.05,SSE,155,0.0,0.0,86,0.00,,CLR,0.00,VWS V14.01,2013-08-19 01:27:00,
2013-08-18 21:28:00,66.5,62.2,30.05,SSE,154,0.0,0.0,86,0.00,,CLR,0.00,VWS V14.01,2013-08-19 01:28:00,
2013-08-18 21:29:00,66.5,62.2,30.05,SSE,155,0.0,0.0,86,0.00,,CLR,0.00,VWS V14.01,2013-08-19 01:29:00,
2013-08-18 21:30:00,66.4,62.1,30.05,SSE,155,0.0,0.0,86,0.00,,CLR,0.00,VWS V14.01,2013-08-19 01:30:00,
2013-08-18 21:31:00,66.4,62.1,30.05,SSE,150,0.0,0.0,86,0.00,,CLR,0.00,VWS V14.01,2013-08-19 01:31:00,
2013-08-18 21:32:00,66.4,62.1,30.05,SSE,151,0.0,0.0,86,0.00,,CLR,0.00,VWS V14.01,2013-08-19 01:32:00,
2013-08-18 21:33:00,66.3,62.0,30.05,SSE,150,0.0,0.0,86,0.00,,CLR,0.00,VWS V14.01,2013-08-19 01:33:00,
2013-08-18 21:34:00,66.3,62.0,30.05,SSE,150,0.0,0.0,86,0.00,,CLR,0.00,VWS V14.01,2013-08-19 01:34:00,
2013-08-18 21:35:00,66.3,62.0,30.05,SSE,151,0.0,0.0,86,0.00,,CLR,0.00,VWS V14.01,2013-08-19 01:35:00,
2013-08-18 21:36:00,66.2,62.2,30.05,SSE,150,0.0,0.0,87,0.00,,CLR,0.00,VWS V14.01,2013-08-19 01:36:00,
2013-08-18 21:37:00,66.9,62.0,30.05,SSE,155,0.0,1.0,85,0.00,,,0.00,weatherlink.com 1.10,2013-08-19 01:37:00,
2013-08-18 21:38:00,66.1,62.1,30.05,SSE,150,0.0,0.0,87,0.00,,CLR,0.00,VWS V14.01,2013-08-19 01:38:00,
2013-08-18 21:39:00,66.1,62.1,30.05,SSE,151,0.0,0.0,87,0.00,,CLR,0.00,VWS V14.01,2013-08-19 01:39:00,
2013-08-18 21:40:00,66.1,62.1,30.05,SSE,150,0.0,0.0,87,0.00,,CLR,0.00,VWS V14.01,2013-08-19 01:40:00,
2013-08-18 21:41:00,66.0,62.0,30.05,SSE,151,0.0,0.0,87,0.00,,CLR,0.00,VWS V14.01,2013-08-19 01:41:00,
2013-08-18 21:42:00,66.0,62.0,30.05,SSE,151,0.0,0.0,87,0.00,,CLR,0.00,VWS V14.01,2013-08-19 01:42:00,
2013-08-18 21:43:00,66.0,62.0,30.05,SSE,150,0.0,0.0,87,0.00,,CLR,0.00,VWS V14.01,2013-08-19 01:43:00,
2013-08-18 21:44:00,66.0,62.0,30.05,SSE,151,0.0,0.0,87,0.00,,CLR,0.00,VWS V14.01,2013-08-19 01:44:00,
2013-08-18 21:45:00,65.9,61.9,30.05,SSE,150,0.0,0.0,87,0.00,,CLR,0.00,VWS V14.01,2013-08-19 01:45:00,
2013-08-18 21:46:00,65.9,61.9,30.05,SSE,150,0.0,0.0,87,0.00,,CLR,0.00,VWS V14.01,2013-08-19 01:46:00,
2013-08-18 21:47:00,65.9,61.9,30.05,SSE,151,0.0,0.0,87,0.00,,CLR,0.00,VWS V14.01,2013-08-19 01:47:00,
2013-08-18 21:48:00,65.9,61.9,30.05,SSE,150,0.0,0.0,87,0.00,,CLR,0.00,VWS V14.01,2013-08-19 01:48:00,
2013-08-18 21:49:00,65.9,61.9,30.05,SSE,150,0.0,0.0,87,0.00,,CLR,0.00,VWS V14.01,2013-08-19 01:49:00,
2013-08-18 21:50:00,65.8,61.8,30.05,SSE,150,0.0,0.0,87,0.00,,CLR,0.00,VWS V14.01,2013-08-19 01:50:00,
2013-08-18 21:51:00,65.8,61.8,30.05,SSE,150,0.0,0.0,87,0.00,,CLR,0.00,VWS V14.01,2013-08-19 01:51:00,
2013-08-18 21:52:00,65.8,61.8,30.04,SSE,151,0.0,0.0,87,0.00,,CLR,0.00,VWS V14.01,2013-08-19 01:52:00,
2013-08-18 21:53:00,66.6,62.0,30.05,SSE,155,0.0,1.0,86,0.00,,,0.00,weatherlink.com 1.10,2013-08-19 01:53:00,
2013-08-18 21:54:00,65.7,61.7,30.04,SE,132,0.0,1.0,87,0.00,,CLR,0.00,VWS V14.01,2013-08-19 01:54:00,
2013-08-18 21:55:00,65.7,61.7,30.04,SE,132,0.0,1.0,87,0.00,,CLR,0.00,VWS V14.01,2013-08-19 01:55:00,
2013-08-18 21:56:00,65.7,61.7,30.04,SE,132,0.0,1.0,87,0.00,,CLR,0.00,VWS V14.01,2013-08-19 01:56:00,
2013-08-18 21:57:00,65.7,61.7,30.04,SE,132,0.0,1.0,87,0.00,,CLR,0.00,VWS V14.01,2013-08-19 01:57:00,
2013-08-18 21:58:00,65.7,61.7,30.04,SE,133,0.0,1.0,87,0.00,,CLR,0.00,VWS V14.01,2013-08-19 01:58:00,
2013-08-18 21:59:00,65.7,61.7,30.04,SE,132,0.0,0.0,87,0.00,,CLR,0.00,VWS V14.01,2013-08-19 01:59:00,
2013-08-18 22:00:00,65.7,61.7,30.04,SE,132,0.0,0.0,87,0.00,,CLR,0.00,VWS V14.01,2013-08-19 02:00:00,
2013-08-18 22:01:00,65.7,61.7,30.04,South,180,0.0,0.0,87,0.00,,CLR,0.00,VWS V14.01,2013-08-19 02:01:00,
2013-08-18 22:02:00,65.8,62.2,30.04,SSW,212,0.0,0.0,88,0.00,,CLR,0.00,VWS V14.01,2013-08-19 02:02:00,
2013-08-18 22:03:00,65.8,62.2,30.04,SSW,212,0.0,0.0,88,0.00,,CLR,0.00,VWS V14.01,2013-08-19 02:03:00,
2013-08-18 22:04:00,65.9,62.2,30.04,SSW,212,0.0,0.0,88,0.00,,CLR,0.00,VWS V14.01,2013-08-19 02:04:00,
2013-08-18 22:05:00,65.9,62.2,30.04,SSW,212,0.0,0.0,88,0.00,,CLR,0.00,VWS V14.01,2013-08-19 02:05:00,
2013-08-18 22:06:00,66.0,62.0,30.04,SSW,212,0.0,1.0,87,0.00,,CLR,0.00,VWS V14.01,2013-08-19 02:06:00,
2013-08-18 22:07:00,66.0,62.0,30.04,SSW,212,0.0,1.0,87,0.00,,CLR,0.00,VWS V14.01,2013-08-19 02:07:00,
2013-08-18 22:08:00,66.0,62.0,30.04,SSW,212,0.0,1.0,87,0.00,,CLR,0.00,VWS V14.01,2013-08-19 02:08:00,
2013-08-18 22:09:00,66.0,62.0,30.04,SSW,212,0.0,1.0,87,0.00,,CLR,0.00,VWS V14.01,2013-08-19 02:09:00,
2013-08-18 22:10:00,66.0,62.0,30.04,SSW,212,1.0,1.0,87,0.00,,CLR,0.00,VWS V14.01,2013-08-19 02:10:00,
2013-08-18 22:11:00,66.0,62.0,30.05,SSE,150,0.0,0.0,87,0.00,,,0.00,weatherlink.com 1.10,2013-08-19 02:11:00,
2013-08-18 22:12:00,66.0,62.0,30.04,SSW,212,0.0,1.0,87,0.00,,CLR,0.00,VWS V14.01,2013-08-19 02:12:00,
2013-08-18 22:13:00,66.0,62.0,30.04,SSW,212,0.0,1.0,87,0.00,,CLR,0.00,VWS V14.01,2013-08-19 02:13:00,
2013-08-18 22:14:00,66.0,62.0,30.04,SSW,212,0.0,1.0,87,0.00,,CLR,0.00,VWS V14.01,2013-08-19 02:14:00,
2013-08-18 22:15:00,66.0,62.0,30.04,SSW,212,0.0,0.0,87,0.00,,CLR,0.00,VWS V14.01,2013-08-19 02:15:00,
2013-08-18 22:16:00,66.0,62.0,30.04,SSW,212,0.0,0.0,87,0.00,,CLR,0.00,VWS V14.01,2013-08-19 02:16:00,
2013-08-18 22:17:00,66.0,62.0,30.04,SSW,212,0.0,0.0,87,0.00,,CLR,0.00,VWS V14.01,2013-08-19 02:17:00,
2013-08-18 22:18:00,66.0,62.0,30.03,SSW,212,0.0,0.0,87,0.00,,CLR,0.00,VWS V14.01,2013-08-19 02:18:00,
2013-08-18 22:19:00,66.0,62.0,30.03,SSW,212,0.0,0.0,87,0.00,,CLR,0.00,VWS V14.01,2013-08-19 02:19:00,
2013-08-18 22:20:00,66.0,62.0,30.03,SSW,212,0.0,0.0,87,0.00,,CLR,0.00,VWS V14.01,2013-08-19 02:20:00,
2013-08-18 22:21:00,66.0,62.0,30.03,SSW,212,0.0,0.0,87,0.00,,CLR,0.00,VWS V14.01,2013-08-19 02:21:00,
2013-08-18 22:22:00,65.9,61.9,30.03,SSW,212,0.0,0.0,87,0.00,,CLR,0.00,VWS V14.01,2013-08-19 02:22:00,
2013-08-18 22:23:00,65.9,61.9,30.03,SSW,212,0.0,0.0,87,0.00,,CLR,0.00,VWS V14.01,2013-08-19 02:23:00,
2013-08-18 22:24:00,65.9,61.9,30.03,SW,214,0.0,0.0,87,0.00,,CLR,0.00,VWS V14.01,2013-08-19 02:24:00,
2013-08-18 22:25:00,65.9,61.9,30.03,SSW,212,0.0,0.0,87,0.00,,CLR,0.00,VWS V14.01,2013-08-19 02:25:00,
2013-08-18 22:26:00,65.9,61.9,30.03,SSW,212,0.0,0.0,87,0.00,,CLR,0.00,VWS V14.01,2013-08-19 02:26:00,
2013-08-18 22:27:00,65.7,62.0,30.04,South,180,0.0,1.0,87,0.00,,,0.00,weatherlink.com 1.10,2013-08-19 02:27:00,
2013-08-18 22:28:00,65.9,61.9,30.03,SSW,212,0.0,1.0,87,0.00,,CLR,0.00,VWS V14.01,2013-08-19 02:28:00,
2013-08-18 22:29:00,65.9,61.9,30.03,SSW,212,0.0,1.0,87,0.00,,CLR,0.00,VWS V14.01,2013-08-19 02:29:00,
2013-08-18 22:30:00,65.9,61.9,30.03,SW,219,0.0,1.0,87,0.00,,CLR,0.00,VWS V14.01,2013-08-19 02:30:00,
2013-08-18 22:31:00,65.8,61.8,30.03,SW,219,0.0,0.0,87,0.00,,CLR,0.00,VWS V14.01,2013-08-19 02:31:00,
2013-08-18 22:32:00,65.8,61.8,30.03,SW,219,0.0,0.0,87,0.00,,CLR,0.00,VWS V14.01,2013-08-19 02:32:00,
2013-08-18 22:33:00,65.8,61.8,30.03,SW,219,0.0,0.0,87,0.00,,CLR,0.00,VWS V14.01,2013-08-19 02:33:00,
2013-08-18 22:34:00,65.8,61.8,30.03,SW,219,0.0,0.0,87,0.00,,CLR,0.00,VWS V14.01,2013-08-19 02:34:00,
2013-08-18 22:35:00,65.8,61.8,30.03,SW,219,0.0,0.0,87,0.00,,CLR,0.00,VWS V14.01,2013-08-19 02:35:00,
2013-08-18 22:36:00,65.8,61.8,30.03,SW,217,0.0,0.0,87,0.00,,CLR,0.00,VWS V14.01,2013-08-19 02:36:00,
2013-08-18 22:37:00,65.8,61.8,30.02,SW,217,0.0,0.0,87,0.00,,CLR,0.00,VWS V14.01,2013-08-19 02:37:00,
2013-08-18 22:38:00,65.7,61.7,30.03,SW,217,0.0,0.0,87,0.00,,CLR,0.00,VWS V14.01,2013-08-19 02:38:00,
2013-08-18 22:39:00,65.7,61.7,30.02,SW,217,0.0,0.0,87,0.00,,CLR,0.00,VWS V14.01,2013-08-19 02:39:00,
2013-08-18 22:40:00,65.6,61.6,30.02,SW,217,0.0,0.0,87,0.00,,CLR,0.00,VWS V14.01,2013-08-19 02:40:00,
2013-08-18 22:41:00,65.6,61.6,30.02,SW,217,0.0,0.0,87,0.00,,CLR,0.00,VWS V14.01,2013-08-19 02:41:00,
2013-08-18 22:42:00,65.6,61.6,30.03,SW,217,0.0,0.0,87,0.00,,CLR,0.00,VWS V14.01,2013-08-19 02:42:00,
2013-08-18 22:43:00,66.0,62.0,30.04,SSW,212,0.0,1.0,87,0.00,,,0.00,weatherlink.com 1.10,2013-08-19 02:43:00,
2013-08-18 22:44:00,65.5,61.5,30.03,SW,217,0.0,0.0,87,0.00,,CLR,0.00,VWS V14.01,2013-08-19 02:44:00,
2013-08-18 22:45:00,65.5,61.5,30.03,SW,217,1.0,1.0,87,0.00,,CLR,0.00,VWS V14.01,2013-08-19 02:45:00,
2013-08-18 22:46:00,65.5,61.5,30.03,SW,217,0.0,1.0,87,0.00,,CLR,0.00,VWS V14.01,2013-08-19 02:46:00,
2013-08-18 22:47:00,65.5,61.5,30.03,SW,217,0.0,1.0,87,0.00,,CLR,0.00,VWS V14.01,2013-08-19 02:47:00,
2013-08-18 22:48:00,65.4,61.4,30.03,SW,217,0.0,1.0,87,0.00,,CLR,0.00,VWS V14.01,2013-08-19 02:48:00,
2013-08-18 22:49:00,65.4,61.4,30.03,SW,217,0.0,0.0,87,0.00,,CLR,0.00,VWS V14.01,2013-08-19 02:49:00,
2013-08-18 22:50:00,65.4,61.4,30.03,SW,219,0.0,0.0,87,0.00,,CLR,0.00,VWS V14.01,2013-08-19 02:50:00,
2013-08-18 22:51:00,65.4,61.8,30.03,SW,219,0.0,0.0,88,0.00,,CLR,0.00,VWS V14.01,2013-08-19 02:51:00,
2013-08-18 22:52:00,65.3,61.7,30.03,SW,219,0.0,0.0,88,0.00,,CLR,0.00,VWS V14.01,2013-08-19 02:52:00,
2013-08-18 22:53:00,65.3,61.3,30.02,SW,219,0.0,0.0,87,0.00,,CLR,0.00,VWS V14.01,2013-08-19 02:53:00,
2013-08-18 22:54:00,65.3,61.3,30.02,SW,219,0.0,0.0,87,0.00,,CLR,0.00,VWS V14.01,2013-08-19 02:54:00,
2013-08-18 22:55:00,65.3,61.3,30.02,SW,219,0.0,0.0,87,0.00,,CLR,0.00,VWS V14.01,2013-08-19 02:55:00,
2013-08-18 22:56:00,65.2,61.2,30.02,SW,219,0.0,0.0,87,0.00,,CLR,0.00,VWS V14.01,2013-08-19 02:56:00,
2013-08-18 22:57:00,65.2,61.2,30.02,SW,219,0.0,0.0,87,0.00,,CLR,0.00,VWS V14.01,2013-08-19 02:57:00,
2013-08-18 22:58:00,65.2,61.6,30.02,SW,219,0.0,0.0,88,0.00,,CLR,0.00,VWS V14.01,2013-08-19 02:58:00,
2013-08-18 22:59:00,65.2,61.6,30.02,SW,219,0.0,0.0,88,0.00,,CLR,0.00,VWS V14.01,2013-08-19 02:59:00,
2013-08-18 23:00:00,65.8,62.0,30.03,SW,219,0.0,1.0,87,0.00,,,0.00,weatherlink.com 1.10,2013-08-19 03:00:00,
2013-08-18 23:01:00,65.1,61.5,30.02,SW,219,0.0,0.0,88,0.00,,CLR,0.00,VWS V14.01,2013-08-19 03:01:00,
2013-08-18 23:02:00,65.0,61.4,30.02,SW,219,0.0,0.0,88,0.00,,CLR,0.00,VWS V14.01,2013-08-19 03:02:00,
2013-08-18 23:03:00,65.0,61.4,30.02,SW,219,0.0,0.0,88,0.00,,CLR,0.00,VWS V14.01,2013-08-19 03:03:00,
2013-08-18 23:04:00,65.0,61.4,30.02,SW,219,0.0,0.0,88,0.00,,CLR,0.00,VWS V14.01,2013-08-19 03:04:00,
2013-08-18 23:05:00,64.9,61.3,30.02,SW,219,0.0,0.0,88,0.00,,CLR,0.00,VWS V14.01,2013-08-19 03:05:00,
2013-08-18 23:06:00,64.9,61.3,30.03,SW,219,0.0,0.0,88,0.00,,CLR,0.00,VWS V14.01,2013-08-19 03:06:00,
2013-08-18 23:07:00,64.9,61.3,30.02,SW,219,0.0,0.0,88,0.00,,CLR,0.00,VWS V14.01,2013-08-19 03:07:00,
2013-08-18 23:08:00,64.9,61.3,30.03,SW,219,0.0,0.0,88,0.00,,CLR,0.00,VWS V14.01,2013-08-19 03:08:00,
2013-08-18 23:09:00,64.8,61.2,30.03,SW,219,0.0,0.0,88,0.00,,CLR,0.00,VWS V14.01,2013-08-19 03:09:00,
2013-08-18 23:10:00,64.8,61.2,30.03,SW,219,0.0,0.0,88,0.00,,CLR,0.00,VWS V14.01,2013-08-19 03:10:00,
2013-08-18 23:11:00,64.8,61.2,30.03,SW,219,0.0,0.0,88,0.00,,CLR,0.00,VWS V14.01,2013-08-19 03:11:00,
2013-08-18 23:12:00,64.7,61.1,30.03,SW,219,0.0,0.0,88,0.00,,CLR,0.00,VWS V14.01,2013-08-19 03:12:00,
2013-08-18 23:13:00,64.7,61.1,30.03,SW,219,0.0,0.0,88,0.00,,CLR,0.00,VWS V14.01,2013-08-19 03:13:00,
2013-08-18 23:14:00,64.7,61.1,30.03,SW,219,0.0,0.0,88,0.00,,CLR,0.00,VWS V14.01,2013-08-19 03:14:00,
2013-08-18 23:15:00,64.7,61.1,30.03,SW,219,0.0,0.0,88,0.00,,CLR,0.00,VWS V14.01,2013-08-19 03:15:00,
2013-08-18 23:16:00,65.4,62.0,30.03,SW,219,0.0,1.0,87,0.00,,,0.00,weatherlink.com 1.10,2013-08-19 03:16:00,
2013-08-18 23:17:00,64.7,61.4,30.02,SW,219,0.0,0.0,89,0.00,,CLR,0.00,VWS V14.01,2013-08-19 03:17:00,
2013-08-18 23:18:00,64.6,61.3,30.02,SW,219,0.0,0.0,89,0.00,,CLR,0.00,VWS V14.01,2013-08-19 03:18:00,
2013-08-18 23:19:00,64.6,61.3,30.02,SW,219,0.0,0.0,89,0.00,,CLR,0.00,VWS V14.01,2013-08-19 03:19:00,
2013-08-18 23:20:00,64.6,61.3,30.02,SW,219,0.0,0.0,89,0.00,,CLR,0.00,VWS V14.01,2013-08-19 03:20:00,
2013-08-18 23:21:00,64.5,61.2,30.02,SW,219,0.0,0.0,89,0.00,,CLR,0.00,VWS V14.01,2013-08-19 03:21:00,
2013-08-18 23:22:00,64.5,61.2,30.02,SW,219,0.0,0.0,89,0.00,,CLR,0.00,VWS V14.01,2013-08-19 03:22:00,
2013-08-18 23:23:00,64.5,61.5,30.02,SW,219,0.0,0.0,90,0.00,,CLR,0.00,VWS V14.01,2013-08-19 03:23:00,
2013-08-18 23:24:00,64.5,61.2,30.02,SW,219,0.0,0.0,89,0.00,,CLR,0.00,VWS V14.01,2013-08-19 03:24:00,
2013-08-18 23:25:00,64.4,61.1,30.02,SW,219,0.0,0.0,89,0.00,,CLR,0.00,VWS V14.01,2013-08-19 03:25:00,
2013-08-18 23:26:00,64.4,61.4,30.02,SW,219,0.0,0.0,90,0.00,,CLR,0.00,VWS V14.01,2013-08-19 03:26:00,
2013-08-18 23:27:00,64.3,61.3,30.02,SW,219,0.0,0.0,90,0.00,,CLR,0.00,VWS V14.01,2013-08-19 03:27:00,
2013-08-18 23:28:00,64.3,61.0,30.02,SW,219,0.0,0.0,89,0.00,,CLR,0.00,VWS V14.01,2013-08-19 03:28:00,
2013-08-18 23:29:00,64.2,61.2,30.02,SW,219,0.0,0.0,90,0.00,,CLR,0.00,VWS V14.01,2013-08-19 03:29:00,
2013-08-18 23:30:00,64.2,61.2,30.02,SW,219,0.0,0.0,90,0.00,,CLR,0.00,VWS V14.01,2013-08-19 03:30:00,
2013-08-18 23:31:00,64.2,61.2,30.02,SW,219,0.0,0.0,90,0.00,,CLR,0.00,VWS V14.01,2013-08-19 03:31:00,
2013-08-18 23:32:00,64.9,61.0,30.03,SW,219,0.0,0.0,88,0.00,,,0.00,weatherlink.com 1.10,2013-08-19 03:32:00,
2013-08-18 23:33:00,64.0,61.0,30.02,SW,219,0.0,0.0,90,0.00,,CLR,0.00,VWS V14.01,2013-08-19 03:33:00,
2013-08-18 23:34:00,64.0,61.0,30.02,SW,219,0.0,0.0,90,0.00,,CLR,0.00,VWS V14.01,2013-08-19 03:34:00,
2013-08-18 23:35:00,63.9,60.9,30.02,SW,219,0.0,0.0,90,0.00,,CLR,0.00,VWS V14.01,2013-08-19 03:35:00,
2013-08-18 23:36:00,63.9,60.9,30.02,SW,219,0.0,0.0,90,0.00,,CLR,0.00,VWS V14.01,2013-08-19 03:36:00,
2013-08-18 23:37:00,63.9,61.2,30.02,SW,219,0.0,0.0,91,0.00,,CLR,0.00,VWS V14.01,2013-08-19 03:37:00,
2013-08-18 23:38:00,63.9,61.2,30.02,SW,219,0.0,0.0,91,0.00,,CLR,0.00,VWS V14.01,2013-08-19 03:38:00,
2013-08-18 23:39:00,63.9,61.2,30.02,SW,219,0.0,0.0,91,0.00,,CLR,0.00,VWS V14.01,2013-08-19 03:39:00,
2013-08-18 23:40:00,63.8,61.1,30.02,SW,219,0.0,0.0,91,0.00,,CLR,0.00,VWS V14.01,2013-08-19 03:40:00,
2013-08-18 23:41:00,63.8,61.1,30.02,SW,219,0.0,0.0,91,0.00,,CLR,0.00,VWS V14.01,2013-08-19 03:41:00,
2013-08-18 23:42:00,63.8,61.4,30.02,SW,219,0.0,0.0,92,0.00,,CLR,0.00,VWS V14.01,2013-08-19 03:42:00,
2013-08-18 23:43:00,63.8,61.4,30.02,SW,219,0.0,0.0,92,0.00,,CLR,0.00,VWS V14.01,2013-08-19 03:43:00,
2013-08-18 23:44:00,63.8,61.4,30.02,SW,219,0.0,0.0,92,0.00,,CLR,0.00,VWS V14.01,2013-08-19 03:44:00,
2013-08-18 23:45:00,63.7,61.3,30.02,SW,219,0.0,0.0,92,0.00,,CLR,0.00,VWS V14.01,2013-08-19 03:45:00,
2013-08-18 23:46:00,63.7,61.3,30.02,SW,219,0.0,0.0,92,0.00,,CLR,0.00,VWS V14.01,2013-08-19 03:46:00,
2013-08-18 23:47:00,63.7,61.3,30.02,SW,219,0.0,0.0,92,0.00,,CLR,0.00,VWS V14.01,2013-08-19 03:47:00,
2013-08-18 23:48:00,63.7,61.3,30.02,SW,219,0.0,0.0,92,0.00,,CLR,0.00,VWS V14.01,2013-08-19 03:48:00,
2013-08-18 23:49:00,64.5,62.0,30.02,SW,219,0.0,0.0,90,0.00,,,0.00,weatherlink.com 1.10,2013-08-19 03:49:00,
2013-08-18 23:50:00,63.6,61.2,30.02,SW,219,0.0,0.0,92,0.00,,CLR,0.00,VWS V14.01,2013-08-19 03:50:00,
2013-08-18 23:51:00,63.5,61.1,30.02,SW,219,0.0,0.0,92,0.00,,CLR,0.00,VWS V14.01,2013-08-19 03:51:00,
2013-08-18 23:52:00,63.5,61.1,30.02,SW,219,0.0,0.0,92,0.00,,CLR,0.00,VWS V14.01,2013-08-19 03:52:00,
2013-08-18 23:53:00,63.5,61.1,30.02,SW,219,0.0,0.0,92,0.00,,CLR,0.00,VWS V14.01,2013-08-19 03:53:00,
2013-08-18 23:54:00,63.5,61.1,30.02,SW,219,0.0,0.0,92,0.00,,CLR,0.00,VWS V14.01,2013-08-19 03:54:00,
2013-08-18 23:55:00,63.5,61.1,30.02,SW,219,0.0,0.0,92,0.00,,CLR,0.00,VWS V14.01,2013-08-19 03:55:00,
2013-08-18 23:56:00,63.4,61.0,30.02,SW,219,0.0,0.0,92,0.00,,CLR,0.00,VWS V14.01,2013-08-19 03:56:00,
2013-08-18 23:57:00,63.4,61.0,30.02,SW,219,0.0,0.0,92,0.00,,CLR,0.00,VWS V14.01,2013-08-19 03:57:00,
2013-08-18 23:58:00,63.4,61.0,30.02,SW,219,0.0,0.0,92,0.00,,CLR,0.00,VWS V14.01,2013-08-19 03:58:00,
2013-08-18 23:59:00,63.4,61.0,30.02,SW,219,0.0,0.0,92,0.00,,CLR,0.00,VWS V14.01,2013-08-19 03:59:00,